Date StartTime U_cm/s V_cm/s W_cm/s Ustd_cm/s Vstd_cm/s Wstd_cm/s Uvar_(cm/s)^2 Vvar_(cm/s)^2 Wvar_(cm/s)^2 KE_(m/s)^2 TurbulentKE_(m/s)^2 HorizWindSpeed_cm/s FrictionSpeec_cm/s DragCoef SpeedOfSound_m/s SonicTemperature_C Pressure_mb 
01/28/2014  00:00:00     -120.635      -49.840       -7.634       16.826       12.861        8.925      283.111      165.406       79.650        0.881        0.026      130.525        3.394        0.001      336.521        7.880      865.282
01/28/2014  00:01:00      -79.399      -66.202       -0.817       49.444       33.896       25.546     2444.693     1148.910      652.580        0.747        0.212      103.377       15.953        0.024      336.534        7.901      865.291
01/28/2014  00:02:00      -58.967      -51.244        5.997       37.522       29.456       19.542     1407.921      867.630      381.886        0.440        0.133       78.122       14.958        0.037      336.586        7.988      865.303
01/28/2014  00:03:00      -74.802       -1.498        2.124       22.940       28.014       17.411      526.246      784.796      303.154        0.361        0.081       74.817       11.413        0.023      336.578        7.975      865.309
01/28/2014  00:04:00      -60.844       11.719        0.098       27.601       17.368       12.457      761.829      301.649      155.188        0.253        0.061       61.963       12.225        0.039      336.605        8.019      865.295
01/28/2014  00:05:00      -12.313       38.151        7.021       18.187       18.419       16.030      330.778      339.254      256.957        0.129        0.046       40.089       13.368        0.111      336.695        8.171      865.241
01/28/2014  00:06:00       13.986       85.516       -4.672       17.335       24.944       16.595      300.487      622.182      275.400        0.436        0.060       86.652       15.996        0.034      336.678        8.142      865.153
01/28/2014  00:07:00       36.052       86.876      -17.864       14.226       13.943       11.806      202.375      194.413      139.391        0.485        0.027       94.060        7.945        0.007      336.579        7.977      865.089
01/28/2014  00:08:00       17.881       72.603      -10.869       18.693       21.219       12.545      349.413      450.246      157.373        0.333        0.048       74.772        7.663        0.011      336.592        7.997      865.091
01/28/2014  00:09:00       -4.834       -0.219       -9.811       11.457       20.520        8.074      131.274      421.055       65.183        0.037        0.031        4.839        8.376        2.996      336.625        8.053      865.145
01/28/2014  00:10:00      -19.054      -12.357        4.378       22.000       12.728       16.894      484.020      162.003      285.397        0.073        0.047       22.710       10.959        0.233      336.666        8.122      865.213
01/28/2014  00:11:00      -28.347      -30.528       -1.487       27.106       20.642       19.564      734.760      426.093      382.737        0.164        0.077       41.659       17.579        0.178      336.657        8.106      865.267
01/28/2014  00:12:00      -23.428      -12.384        7.743       20.860       26.299       10.362      435.125      691.634      107.367        0.100        0.062       26.499       14.455        0.298      336.843        8.416      865.294
01/28/2014  00:13:00      -23.002       17.701       -0.965       21.474       11.479       10.594      461.135      131.772      112.225        0.077        0.035       29.025       12.991        0.200      336.761        8.282      865.314
01/28/2014  00:14:00      -29.828       42.521       -6.004       23.142       12.460       11.062      535.546      155.251      122.378        0.177        0.041       51.940       13.587        0.068      336.737        8.242      865.328
01/28/2014  00:15:00      -49.505       24.797       -8.849       19.304       12.998       12.042      372.635      168.947      145.014        0.192        0.034       55.368       10.080        0.033      336.749        8.262      865.331
01/28/2014  00:16:00      -56.884       10.727       -8.715       17.403       18.821       10.471      302.856      354.238      109.645        0.210        0.038       57.886        6.757        0.014      336.675        8.138      865.325
01/28/2014  00:17:00      -32.905      -23.074       -1.427       16.622       13.458       11.265      276.280      181.117      126.898        0.110        0.029       40.189        5.836        0.021      336.559        7.943      865.336
01/28/2014  00:18:00      -44.839        5.139       -6.795       23.763       24.407       11.976      564.699      595.685      143.427        0.169        0.065       45.133       11.881        0.069      336.532        7.898      865.361
01/28/2014  00:19:00      -74.998       16.151      -10.113       17.926       15.485       12.211      321.349      239.792      149.101        0.335        0.036       76.718        8.170        0.011      336.544        7.918      865.401
01/28/2014  00:20:00      -41.362      -10.716       -2.103        9.917       23.989       10.924       98.340      575.465      119.333        0.131        0.040       42.727        2.673        0.004      336.560        7.946      865.437
01/28/2014  00:21:00      -31.578      -35.547      -12.259       19.962       17.196        9.450      398.465      295.707       89.294        0.160        0.039       47.547        3.445        0.005      336.545        7.918      865.453
01/28/2014  00:22:00        3.225      -39.873       -0.833       11.350       10.288       14.024      128.818      105.849      196.681        0.102        0.022       40.004        1.945        0.002      336.652        8.099      865.448
01/28/2014  00:23:00       12.389        3.648        3.448       20.041       14.563       17.420      401.625      212.085      303.473        0.055        0.046       12.914       13.851        1.150      336.758        8.275      865.442
01/28/2014  00:24:00       34.017       40.191       26.926       14.624       17.251       19.223      213.859      297.584      369.519        0.219        0.044       52.654       13.572        0.066      336.636        8.073      865.447
01/28/2014  00:25:00        5.229      -12.835       18.149       17.606       39.141       19.399      309.983     1531.998      376.321        0.137        0.111       13.859       23.654        2.913      336.667        8.124      865.454
01/28/2014  00:26:00       11.019      -59.031      -22.674       28.112       35.605       17.653      790.272     1267.709      311.625        0.324        0.118       60.051        9.541        0.025      336.650        8.097      865.472
01/28/2014  00:27:00      -29.713      -58.077       13.388       52.458       49.771       28.519     2751.869     2477.123      813.350        0.524        0.302       65.236       26.064        0.160      336.668        8.127      865.494
01/28/2014  00:28:00     -122.720     -129.993      -11.801       48.482       51.658       29.745     2350.523     2668.561      884.768        1.900        0.295      178.769       26.845        0.023      336.510        7.858      865.500
01/28/2014  00:29:00      -91.279     -115.624       -6.812       35.000       43.100       24.734     1224.985     1857.631      611.778        1.272        0.185      147.312       25.382        0.030      336.489        7.824      865.480
01/28/2014  00:30:00       -6.373      -22.888       14.466       21.959       42.309       25.587      482.192     1790.045      654.705        0.185        0.146       23.758       15.224        0.411      336.501        7.844      865.428
01/28/2014  00:31:00       40.153       37.310       16.297       56.287       34.796       25.806     3168.196     1210.739      665.951        0.416        0.252       54.812       20.612        0.141      336.546        7.922      865.344
01/28/2014  00:32:00       45.712       33.951       31.631       49.774       33.012       30.515     2477.446     1089.780      931.146        0.437        0.225       56.940       30.201        0.281      336.560        7.945      865.279
01/28/2014  00:33:00       20.032        5.048       24.431       22.554       19.715       15.104      508.674      388.692      228.141        0.107        0.056       20.659       13.355        0.418      336.607        8.023      865.251
01/28/2014  00:34:00       -2.697      -21.076       10.575       15.506       27.507       20.830      240.430      756.621      433.898        0.100        0.072       21.247       14.487        0.465      336.639        8.077      865.257
01/28/2014  00:35:00      -72.740      -35.905        2.828       39.906       24.974       16.413     1592.480      623.708      269.394        0.454        0.124       81.119        5.085        0.004      336.608        8.025      865.266
01/28/2014  00:36:00      -76.109      -46.962       -2.184       67.007       29.360       21.578     4489.947      862.035      465.616        0.691        0.291       89.432       12.730        0.020      336.544        7.919      865.276
01/28/2014  00:37:00      -78.886      -96.641        0.305       39.699       30.508       25.255     1575.977      930.726      637.822        0.935        0.157      124.750       19.005        0.023      336.547        7.924      865.267
01/28/2014  00:38:00      -63.142     -129.571       -1.981       24.895       29.007       15.560      619.766      841.392      242.112        1.124        0.085      144.137        9.468        0.004      336.618        8.043      865.238
01/28/2014  00:39:00       -4.597       14.474       39.399       20.209       36.851       22.189      408.396     1357.974      492.344        0.202        0.113       15.186       23.396        2.373      336.703        8.185      865.196
01/28/2014  00:40:00       -8.727       52.058       82.715       16.200       31.619       18.322      262.424      999.775      335.708        0.561        0.080       52.785       19.104        0.131      336.679        8.144      865.160
01/28/2014  00:41:00       10.636       66.783       83.962       33.246       43.384       25.190     1105.281     1882.213      634.549        0.762        0.181       67.625       24.161        0.128      336.620        8.045      865.157
01/28/2014  00:42:00        7.370       45.644       59.167       28.157       33.700       16.944      792.804     1135.704      287.099        0.393        0.111       46.235       16.462        0.127      336.608        8.025      865.170
01/28/2014  00:43:00        5.622       25.183       25.512       24.027       18.214       14.617      577.283      331.749      213.648        0.122        0.056       25.803        6.581        0.065      336.606        8.021      865.183
01/28/2014  00:44:00       18.914       22.000       19.682       16.404       12.786        8.854      269.090      163.486       78.385        0.087        0.026       29.013        6.199        0.046      336.544        7.918      865.189
01/28/2014  00:45:00      -23.013       15.525       -1.360       15.540        7.958       10.664      241.486       63.322      113.711        0.060        0.021       27.760        9.370        0.114      336.549        7.927      865.195
01/28/2014  00:46:00      -45.708       13.539       -5.322       10.331       13.198       12.041      106.724      174.177      144.989        0.136        0.021       47.671        5.543        0.014      336.560        7.945      865.177
01/28/2014  00:47:00       -6.529        3.735        4.337       17.764        7.437        9.518      315.568       55.303       90.588        0.027        0.023        7.522       10.469        1.937      336.526        7.885      865.131
01/28/2014  00:48:00       21.584       29.052        2.325       12.994       15.046       11.388      168.848      226.381      129.690        0.092        0.026       36.192        9.091        0.063      336.484        7.816      865.110
01/28/2014  00:49:00       12.723       25.776       -1.691       19.257       13.944       13.031      370.828      194.443      169.794        0.078        0.037       28.745       11.355        0.156      336.457        7.772      865.122
01/28/2014  00:50:00      -34.120       11.426      -10.839       20.073        9.482        4.521      402.907       89.908       20.438        0.096        0.026       35.982        5.421        0.023      336.422        7.711      865.155
01/28/2014  00:51:00     -124.245      -41.216       -6.593       29.132       26.184       12.627      848.685      685.584      159.441        0.944        0.085      130.903       10.574        0.007      336.292        7.496      865.161
01/28/2014  00:52:00     -120.791      -64.017       -1.175       53.336       31.688       16.320     2844.745     1004.151      266.335        1.140        0.206      136.706       21.569        0.025      336.330        7.559      865.154
01/28/2014  00:53:00      -40.915        1.541        4.966       31.467       17.525       15.281      990.168      307.126      233.506        0.162        0.077       40.944       17.015        0.173      336.376        7.636      865.149
01/28/2014  00:54:00      -10.439        3.830        2.777       12.599       10.801       10.787      158.744      116.672      116.357        0.026        0.020       11.120        9.803        0.777      336.403        7.682      865.150
01/28/2014  00:55:00      -47.651      -14.109       -2.732       30.257       13.475        9.799      915.502      181.588       96.027        0.183        0.060       49.696        8.280        0.028      336.391        7.661      865.160
01/28/2014  00:56:00     -111.873      -19.922       -5.639       23.160       25.192       17.881      536.391      634.655      319.739        0.722        0.075      113.633       10.800        0.009      336.340        7.574      865.171
01/28/2014  00:57:00     -144.069      -55.809       -3.952       39.250       25.888       18.722     1540.595      670.182      350.496        1.322        0.128      154.501       16.154        0.011      336.262        7.445      865.181
01/28/2014  00:58:00     -150.893      -83.135      -15.735       49.415       34.156       26.150     2441.890     1166.634      683.818        1.711        0.215      172.279       10.638        0.004      336.238        7.404      865.172
01/28/2014  00:59:00     -108.523      -27.044       -9.855       28.063       46.860       19.679      787.558     2195.841      387.271        0.799        0.169      111.842       14.971        0.018      336.248        7.422      865.170
01/28/2014  01:00:00      -63.016       16.790       -3.195       23.764       22.157       15.168      564.735      490.915      230.076        0.277        0.064       65.215       12.927        0.039      336.270        7.461      865.170
01/28/2014  01:01:00      -76.944       22.224       -7.811       16.287       15.761       10.390      265.276      248.394      107.946        0.355        0.031       80.089        7.246        0.008      336.328        7.556      865.188
01/28/2014  01:02:00      -81.775      -19.006       -6.015       19.615       22.131       14.336      384.741      489.792      205.522        0.408        0.054       83.954       11.665        0.019      336.353        7.598      865.203
01/28/2014  01:03:00      -92.792      -38.575        2.208       21.298       24.135       18.364      453.616      582.502      337.232        0.574        0.069      100.491       12.426        0.015      336.334        7.565      865.203
01/28/2014  01:04:00     -101.933      -34.575       -7.964       19.534       18.437       14.737      381.595      339.924      217.191        0.629        0.047      107.637       11.522        0.011      336.280        7.475      865.187
01/28/2014  01:05:00      -92.982        1.621       -9.149       41.740       22.655       17.591     1742.231      513.235      309.458        0.565        0.128       92.996       20.241        0.047      336.272        7.461      865.171
01/28/2014  01:06:00     -128.192      -20.460      -13.842       25.965       30.639       20.546      674.183      938.724      422.125        0.954        0.102      129.814       17.237        0.018      336.180        7.307      865.174
01/28/2014  01:07:00      -88.301      -19.955        3.288       50.193       32.858       22.575     2519.385     1079.679      509.617        0.616        0.205       90.527       25.935        0.082      336.194        7.331      865.175
01/28/2014  01:08:00      -58.774       -5.075        4.245       32.042       25.320       18.021     1026.719      641.114      324.740        0.275        0.100       58.993       15.630        0.070      336.239        7.407      865.160
01/28/2014  01:09:00      -64.379        9.801       -7.872       20.118       13.131       13.095      404.739      172.422      171.480        0.253        0.037       65.121       12.345        0.036      336.267        7.456      865.129
01/28/2014  01:10:00      -62.806       11.615       -3.676       16.990       13.233       10.264      288.654      175.117      105.359        0.233        0.028       63.871        9.238        0.021      336.331        7.560      865.112
01/28/2014  01:11:00      -78.972       12.353       -6.660       15.214       14.019       10.446      231.470      196.529      109.113        0.349        0.027       79.932        6.137        0.006      336.413        7.697      865.105
01/28/2014  01:12:00      -29.061      -30.978        1.970       20.917       20.706       14.563      437.538      428.744      212.090        0.144        0.054       42.475       13.624        0.103      336.369        7.623      865.106
01/28/2014  01:13:00      -22.146      -24.947       -0.321       32.054       16.405       14.179     1027.436      269.122      201.045        0.131        0.075       33.359       14.964        0.201      336.348        7.588      865.097
01/28/2014  01:14:00      -27.903      -29.333       -5.469       16.766       19.127        8.016      281.105      365.826       64.258        0.119        0.036       40.485        6.530        0.026      336.234        7.399      865.091
01/28/2014  01:15:00      -36.815       -4.700       -2.167       13.151       20.308        9.029      172.938      412.425       81.518        0.102        0.033       37.114        8.730        0.055      336.331        7.561      865.091
01/28/2014  01:16:00      -57.539        0.528       -7.545       18.172       13.798       11.391      330.206      190.379      129.766        0.201        0.033       57.542        9.495        0.027      336.353        7.596      865.099
01/28/2014  01:17:00      -43.752        9.465       -5.277       15.958       23.803       10.647      254.644      566.574      113.366        0.148        0.047       44.764        9.164        0.042      336.438        7.740      865.107
01/28/2014  01:18:00      -31.079        9.616       -2.727       20.792       14.491        9.019      432.296      210.002       81.341        0.089        0.036       32.533        7.286        0.050      336.517        7.871      865.111
01/28/2014  01:19:00      -46.972       11.540       -2.458       13.305       10.935        9.911      177.021      119.578       98.230        0.137        0.020       48.369        7.601        0.025      336.529        7.893      865.130
01/28/2014  01:20:00      -25.078       18.192        0.482       20.228       12.361        9.128      409.168      152.782       83.318        0.080        0.032       30.981        9.590        0.096      336.463        7.781      865.158
01/28/2014  01:21:00        0.693        7.188        9.167       10.394        8.976       13.642      108.037       80.573      186.100        0.026        0.019        7.221        8.242        1.303      336.465        7.786      865.166
01/28/2014  01:22:00        7.296        9.578        6.667        7.694        8.079        7.915       59.193       65.265       62.654        0.019        0.009       12.040        3.973        0.109      336.420        7.709      865.173
01/28/2014  01:23:00      -31.459       -5.315       -3.024       19.530       10.320        6.941      381.423      106.506       48.176        0.078        0.027       31.905        8.537        0.072      336.523        7.883      865.180
01/28/2014  01:24:00      -43.023      -16.751        0.619        6.606       13.022       11.735       43.635      169.570      137.705        0.124        0.018       46.169       10.253        0.049      336.544        7.918      865.188
01/28/2014  01:25:00      -25.662       -9.088       -0.781        8.709        8.999        6.276       75.854       80.984       39.392        0.047        0.010       27.224        4.750        0.030      336.481        7.811      865.194
01/28/2014  01:26:00      -22.670      -12.330       -1.669        9.278       12.418        6.495       86.087      154.197       42.180        0.048        0.014       25.806        7.863        0.093      336.552        7.932      865.208
01/28/2014  01:27:00      -31.227      -23.767        0.940        7.909        9.875        7.327       62.553       97.517       53.682        0.088        0.011       39.243        3.959        0.010      336.462        7.780      865.234
01/28/2014  01:28:00      -30.681      -29.275       -1.161       12.126        8.232        9.431      147.047       67.769       88.944        0.105        0.015       42.407        5.294        0.016      336.382        7.647      865.268
01/28/2014  01:29:00      -66.324      -37.556       -7.140       19.257       10.564       12.049      370.834      111.589      145.185        0.324        0.031       76.219        7.770        0.010      336.287        7.489      865.297
01/28/2014  01:30:00      -93.731      -32.408       -8.001       11.413       10.914        7.633      130.264      119.110       58.256        0.510        0.015       99.175        6.362        0.004      336.165        7.283      865.327
01/28/2014  01:31:00      -75.139      -29.334       -8.949        7.765       12.641        5.366       60.290      159.791       28.795        0.342        0.012       80.662        2.850        0.001      336.183        7.312      865.353
01/28/2014  01:32:00      -60.583      -13.496       -7.468        7.340        8.937        7.311       53.878       79.878       53.453        0.205        0.009       62.068        3.984        0.004      336.309        7.523      865.360
01/28/2014  01:33:00      -42.986       -0.092       -2.970       10.836        6.659        7.510      117.428       44.344       56.404        0.104        0.011       42.986        6.768        0.025      336.361        7.613      865.357
01/28/2014  01:34:00      -45.417        5.259       -3.587        5.495        4.230        3.488       30.195       17.891       12.164        0.108        0.003       45.721        0.609        0.000      336.499        7.842      865.357
01/28/2014  01:35:00      -39.413        3.066       -5.169        7.566        3.280        5.528       57.250       10.758       30.559        0.084        0.005       39.532        2.299        0.003      336.555        7.936      865.346
01/28/2014  01:36:00      -14.054        5.719        2.976        8.702        4.784        7.770       75.720       22.883       60.371        0.020        0.008       15.174        6.491        0.183      336.558        7.942      865.333
01/28/2014  01:37:00       19.814       20.542       15.829       10.110        7.884        6.219      102.212       62.152       38.679        0.063        0.010       28.540        2.516        0.008      336.525        7.887      865.328
01/28/2014  01:38:00       23.067       17.811        0.229        9.907        8.767        8.232       98.148       76.853       67.767        0.055        0.012       29.143        6.598        0.051      336.492        7.830      865.342
01/28/2014  01:39:00       13.718       19.602       -4.116        9.293       10.936        6.565       86.365      119.598       43.095        0.042        0.012       23.925        2.433        0.010      336.493        7.834      865.365
01/28/2014  01:40:00       -2.130       13.517       -3.969        8.804        7.740        3.644       77.515       59.902       13.275        0.018        0.008       13.684        2.928        0.046      336.667        8.125      865.387
01/28/2014  01:41:00      -37.269        6.015       -7.055       17.237        8.891        5.477      297.101       79.047       29.994        0.094        0.020       37.751        7.136        0.036      336.567        7.956      865.404
01/28/2014  01:42:00      -53.840       -4.759       -7.575       13.558        7.856        9.732      183.819       61.715       94.706        0.166        0.017       54.050        6.782        0.016      336.268        7.457      865.419
01/28/2014  01:43:00      -63.405        3.832      -12.994       13.954       10.367       13.158      194.725      107.483      173.142        0.234        0.024       63.520       10.995        0.030      336.265        7.451      865.442
01/28/2014  01:44:00      -34.153        5.942       -4.470       10.829       11.744        6.031      117.257      137.933       36.370        0.076        0.015       34.666        3.324        0.009      336.422        7.714      865.450
01/28/2014  01:45:00        4.807        5.194       -5.270       10.318        6.107        7.357      106.460       37.298       54.132        0.014        0.010        7.077        4.574        0.418      336.600        8.011      865.461
01/28/2014  01:46:00       27.019        6.970        3.402        8.412        9.397        9.899       70.767       88.301       97.987        0.052        0.013       27.904        6.180        0.049      336.739        8.246      865.466
01/28/2014  01:47:00      -12.049       35.610       -4.402       21.211       22.566        7.570      449.913      509.217       57.306        0.122        0.051       37.594        9.111        0.059      336.758        8.276      865.489
01/28/2014  01:48:00      -39.971      -15.250       -5.736        6.143       11.928        5.499       37.736      142.271       30.244        0.104        0.011       42.781        2.759        0.004      336.546        7.920      865.515
01/28/2014  01:49:00      -42.535      -22.571       -9.384        8.402        8.627        5.598       70.590       74.420       31.336        0.129        0.009       48.153        2.517        0.003      336.322        7.547      865.541
01/28/2014  01:50:00      -58.840      -17.404       -3.194        8.342        9.359        6.639       69.583       87.586       44.072        0.199        0.010       61.360        1.381        0.001      336.276        7.470      865.569
01/28/2014  01:51:00      -63.831       -0.755       -6.885       16.606       11.733        6.864      275.764      137.655       47.121        0.229        0.023       63.836        5.222        0.007      336.226        7.385      865.601
01/28/2014  01:52:00      -44.177       -2.876       -7.825       11.220        9.351        8.420      125.877       87.449       70.899        0.115        0.014       44.270        3.973        0.008      336.260        7.443      865.612
01/28/2014  01:53:00      -25.554       -8.355        6.773       11.932        8.103        8.757      142.375       65.656       76.686        0.053        0.014       26.885        7.248        0.073      336.365        7.617      865.640
01/28/2014  01:54:00      -13.316       -9.227       -3.938        6.214        6.894        3.461       38.610       47.522       11.979        0.019        0.005       16.200        3.298        0.041      336.508        7.857      865.678
01/28/2014  01:55:00      -21.875      -28.978       -2.249        8.704       10.154        7.373       75.764      103.110       54.365        0.078        0.012       36.308        5.102        0.020      336.511        7.862      865.712
01/28/2014  01:56:00      -13.940      -12.638       -0.483       11.919        7.788        5.386      142.057       60.657       29.011        0.029        0.012       18.816        6.093        0.105      336.753        8.266      865.733
01/28/2014  01:57:00       23.466        6.501        4.062       10.497        9.541        9.260      110.182       91.026       85.748        0.045        0.014       24.350        6.924        0.081      336.699        8.177      865.756
01/28/2014  01:58:00       36.473        9.850       10.044        9.405        8.319        9.931       88.456       69.204       98.634        0.089        0.013       37.780        4.263        0.013      336.744        8.251      865.774
01/28/2014  01:59:00       26.059       14.059       22.707       28.150       15.000       20.380      792.445      225.000      415.343        0.141        0.072       29.610       23.113        0.609      336.716        8.206      865.781
01/28/2014  02:00:00       -2.219       19.153       42.466       10.031       15.673        9.775      100.625      245.641       95.552        0.131        0.022       19.281        8.211        0.181      336.718        8.209      865.761
01/28/2014  02:01:00       -4.263      -17.360       21.171        9.070       26.443       19.056       82.269      699.212      363.115        0.096        0.057       17.875       13.681        0.586      336.887        8.489      865.745
01/28/2014  02:02:00       18.521      -68.583       -7.813       25.102       19.402       13.070      630.126      376.443      170.825        0.314        0.059       71.039       13.627        0.037      336.901        8.512      865.736
01/28/2014  02:03:00      -41.574       -8.649       -7.515        8.612       14.759        7.678       74.160      217.825       58.947        0.111        0.018       42.465        5.314        0.016      336.485        7.819      865.740
01/28/2014  02:04:00      -67.814        7.234       -8.361       16.390       15.445       11.734      268.624      238.547      137.694        0.268        0.032       68.199        7.844        0.013      336.196        7.336      865.770
01/28/2014  02:05:00      -61.852       25.761      -12.537       33.093       28.986       16.363     1095.132      840.185      267.749        0.342        0.110       67.002       10.807        0.026      336.238        7.406      865.813
01/28/2014  02:06:00      -34.153       51.248       -5.928       23.470       24.057       19.767      550.834      578.740      390.745        0.267        0.076       61.585       19.845        0.104      336.430        7.726      865.847
01/28/2014  02:07:00       29.164       39.837       13.928       21.858       17.184       14.788      477.758      295.298      218.693        0.181        0.050       49.371       10.033        0.041      336.709        8.193      865.839
01/28/2014  02:08:00       21.078       37.187        4.400       17.992       22.934       18.532      323.704      525.966      343.437        0.152        0.060       42.745       13.137        0.094      336.729        8.230      865.833
01/28/2014  02:09:00       19.092       71.785      -12.126       15.856       24.329        9.878      251.416      591.918       97.575        0.330        0.047       74.280       12.401        0.028      336.724        8.220      865.851
01/28/2014  02:10:00        2.915      104.106      -19.918        9.388        9.891        6.045       88.144       97.841       36.542        0.573        0.011      104.147        4.498        0.002      336.895        8.502      865.879
01/28/2014  02:11:00      -16.897       83.032      -10.118       18.985       30.885       13.869      360.433      953.902      192.352        0.439        0.075       84.734       17.085        0.041      336.987        8.657      865.893
01/28/2014  02:12:00      -57.566       70.676      -12.216       22.269       21.857       17.181      495.903      477.715      295.173        0.486        0.063       91.153       14.638        0.026      336.796        8.339      865.922
01/28/2014  02:13:00      -20.792       56.782       -5.034       26.131       21.561       14.802      682.838      464.896      219.092        0.252        0.068       60.469       16.476        0.074      336.888        8.491      865.923
01/28/2014  02:14:00       61.135       32.342        8.787       22.556       15.287       11.104      508.760      233.697      123.293        0.286        0.043       69.163        5.138        0.006      337.086        8.823      865.921
01/28/2014  02:15:00       55.276       25.454       21.131       23.695       20.261       21.085      561.464      410.506      444.559        0.278        0.071       60.855       17.508        0.083      336.712        8.197      865.917
01/28/2014  02:16:00       39.657       23.025       16.425       22.459       20.910       21.127      504.416      437.210      446.343        0.188        0.069       45.857       17.269        0.142      336.570        7.962      865.924
01/28/2014  02:17:00       41.331       45.898        6.100       21.699       30.696       21.621      470.841      942.221      467.465        0.287        0.094       61.765       21.426        0.120      336.597        8.007      865.941
01/28/2014  02:18:00       95.281       80.015        5.676       44.306       36.892       32.382     1962.990     1361.007     1048.576        0.994        0.219      124.422       23.778        0.037      336.687        8.157      865.944
01/28/2014  02:19:00       95.770       74.018       13.138       43.252       36.441       28.531     1870.758     1327.945      814.045        0.942        0.201      121.039       21.520        0.032      336.674        8.136      865.934
01/28/2014  02:20:00       66.646       49.172       10.445       50.281       33.072       25.865     2528.151     1093.738      668.983        0.563        0.215       82.822       23.682        0.082      336.672        8.133      865.931
01/28/2014  02:21:00       -5.161       12.103        2.945       18.387       21.856       14.245      338.067      477.698      202.927        0.060        0.051       13.157       13.904        1.117      336.640        8.079      865.962
01/28/2014  02:22:00      -33.073       16.238       -4.633       18.317       18.554       13.550      335.505      344.234      183.608        0.112        0.043       36.844       13.552        0.135      336.613        8.032      865.979
01/28/2014  02:23:00      -56.433      -23.913       -7.537       19.017       23.994       12.886      361.663      575.699      166.059        0.246        0.055       61.290       10.736        0.031      336.489        7.825      865.989
01/28/2014  02:24:00      -15.889      -38.253        8.903       26.200       18.187       15.228      686.451      330.759      231.901        0.152        0.062       41.421       12.947        0.098      336.563        7.949      865.967
01/28/2014  02:25:00      -18.241      -55.254       -0.982       24.488       16.686       11.225      599.679      278.412      126.002        0.220        0.050       58.187       10.747        0.034      336.632        8.065      865.944
01/28/2014  02:26:00       -9.804       13.829       33.007       24.812       25.549       17.108      615.636      652.744      292.673        0.147        0.078       16.952       15.211        0.805      336.749        8.260      865.915
01/28/2014  02:27:00      -41.520      -31.419        1.322       32.839       36.638       20.190     1078.371     1342.374      407.643        0.277        0.141       52.068       20.190        0.150      336.769        8.295      865.903
01/28/2014  02:28:00       49.100      -72.125       -6.996       55.402       49.774       37.271     3069.397     2477.480     1389.149        0.730        0.347       87.252       35.564        0.166      336.649        8.094      865.919
01/28/2014  02:29:00       -6.558      -40.137       -5.223       21.275       32.629       25.096      452.604     1064.623      629.793        0.191        0.107       40.670       20.140        0.245      336.644        8.084      865.932
01/28/2014  02:30:00       15.995      -54.706       -5.405       38.841       50.800       34.519     1508.632     2580.676     1191.548        0.428        0.264       56.996       31.499        0.305      336.655        8.103      865.934
01/28/2014  02:31:00       -3.857      -66.793       -9.062       35.466       30.572       22.642     1257.814      934.626      512.646        0.363        0.135       66.904       11.930        0.032      336.671        8.130      865.938
01/28/2014  02:32:00        4.983      -47.402       -0.446       33.354       35.251       35.071     1112.457     1242.653     1229.993        0.293        0.179       47.663       31.634        0.440      336.655        8.105      865.937
01/28/2014  02:33:00      -12.166      -41.311       15.618       49.090       36.916       22.193     2409.799     1362.756      492.515        0.318        0.213       43.065       25.450        0.349      336.688        8.159      865.962
01/28/2014  02:34:00      -36.018      -65.236        5.635       67.827       48.254       28.516     4600.531     2328.423      813.153        0.666        0.387       74.519       24.872        0.111      336.636        8.073      865.978
01/28/2014  02:35:00      -89.373      -80.431        5.630       63.299       54.194       35.077     4006.750     2936.944     1230.368        1.133        0.409      120.236       26.151        0.047      336.617        8.040      865.986
01/28/2014  02:36:00      -42.285      -32.729       17.015       51.230       34.026       25.346     2624.525     1157.742      642.411        0.379        0.221       53.471       23.114        0.187      336.711        8.198      865.990
01/28/2014  02:37:00      -23.283      -45.482       -2.845       41.976       37.908       27.668     1762.016     1436.985      765.530        0.329        0.198       51.095       12.725        0.062      336.756        8.273      865.994
01/28/2014  02:38:00       -3.716      -26.136        0.003       23.180       18.979       13.650      537.322      360.217      186.310        0.089        0.054       26.399        8.110        0.094      336.821        8.381      866.004
01/28/2014  02:39:00      -27.412      -51.692       -4.587       37.513       28.864       16.116     1407.256      833.136      259.720        0.297        0.125       58.511        5.602        0.009      336.822        8.381      866.003
01/28/2014  02:40:00      -59.447      -59.100        0.664       58.687       51.345       31.509     3444.121     2636.287      992.836        0.705        0.354       83.825       26.735        0.102      336.807        8.357      866.000
01/28/2014  02:41:00      -13.479      -41.703       15.619       33.191       27.983       18.181     1101.618      783.033      330.532        0.219        0.111       43.827       17.717        0.163      336.756        8.271      866.006
01/28/2014  02:42:00      -37.685      -23.130        3.076       42.788       28.034       15.696     1830.771      785.929      246.371        0.241        0.143       44.217       16.969        0.147      336.733        8.232      866.030
01/28/2014  02:43:00       -0.136       21.727       13.161       25.939       17.699       16.313      672.816      313.255      266.119        0.095        0.063       21.727       11.854        0.298      336.766        8.287      866.061
01/28/2014  02:44:00       -3.721       38.903       38.363       10.218       18.032       18.829      104.406      325.150      354.522        0.189        0.039       39.081        8.259        0.045      336.743        8.250      866.097
01/28/2014  02:45:00       -4.680       24.509       45.143       10.093       23.041       10.564      101.877      530.882      111.608        0.170        0.037       24.951       12.400        0.247      336.801        8.347      866.127
01/28/2014  02:46:00       -6.934        6.045       43.302       17.657       27.074       15.775      311.771      732.999      248.847        0.163        0.065        9.199       13.870        2.273      336.878        8.476      866.146
01/28/2014  02:47:00        5.400      -59.346       -1.848       50.042       36.831       26.304     2504.172     1356.512      691.905        0.405        0.228       59.591       18.718        0.099      336.926        8.555      866.151
01/28/2014  02:48:00      -48.791      -26.806        7.316       35.064       26.633       19.575     1229.463      709.297      383.186        0.274        0.116       55.670       17.171        0.095      336.745        8.254      866.171
01/28/2014  02:49:00      -58.493      -37.330       12.598       58.630       35.808       25.003     3437.519     1282.212      625.161        0.516        0.267       69.390       29.593        0.182      336.715        8.204      866.195
01/28/2014  02:50:00      -77.737      -48.352        0.468       38.691       33.097       24.347     1497.004     1095.397      592.774        0.578        0.159       91.547       22.301        0.059      336.581        7.979      866.195
01/28/2014  02:51:00      -76.956      -41.199       -2.954       27.130       29.939       15.611      736.025      896.365      243.710        0.475        0.094       87.291       14.533        0.028      336.652        8.098      866.163
01/28/2014  02:52:00      -25.085      -17.554        7.342       26.273       16.271       10.797      690.295      264.758      116.581        0.103        0.054       30.617       11.219        0.134      336.703        8.184      866.127
01/28/2014  02:53:00       -2.490        2.331       15.303        7.311       20.079       12.487       53.447      403.182      155.921        0.043        0.031        3.411       12.691       13.843      336.778        8.308      866.105
01/28/2014  02:54:00      -20.561        8.559       13.947       14.313       11.708       10.770      204.855      137.069      115.989        0.057        0.023       22.271        9.903        0.198      336.738        8.242      866.100
01/28/2014  02:55:00      -29.092      -17.860       -2.082       25.306       18.793       11.694      640.401      353.185      136.755        0.115        0.057       34.137        5.938        0.030      336.696        8.176      866.103
01/28/2014  02:56:00      -49.434      -47.390        1.243       38.806       25.675       18.934     1505.941      659.219      358.503        0.361        0.126       68.480       16.748        0.060      336.624        8.051      866.113
01/28/2014  02:57:00      -80.537      -74.686       -2.061       60.039       32.424       26.855     3604.698     1051.324      721.175        0.872        0.269      109.837       30.878        0.079      336.560        7.946      866.122
01/28/2014  02:58:00      -80.845      -59.155      -10.039       18.876       29.840       15.241      356.311      890.414      232.278        0.581        0.074      100.176       10.816        0.012      336.540        7.911      866.144
01/28/2014  02:59:00      -51.117      -29.060       -4.885       27.117       17.479       16.035      735.309      305.513      257.127        0.239        0.065       58.800       13.200        0.050      336.552        7.930      866.150
01/28/2014  03:00:00      -35.439      -17.243        2.481       24.891       21.373       13.155      619.583      456.799      173.047        0.140        0.062       39.411        9.823        0.062      336.596        8.005      866.145
01/28/2014  03:01:00      -74.499      -12.891       -1.279       36.421       23.824       14.281     1326.470      567.590      203.947        0.391        0.105       75.607       14.889        0.039      336.527        7.888      866.135
01/28/2014  03:02:00     -133.684      -56.895       -7.180       22.502       21.704       15.528      506.331      471.052      241.127        1.119        0.061      145.287       13.722        0.009      336.455        7.768      866.122
01/28/2014  03:03:00     -106.084      -34.626       -1.856       36.086       33.651       18.345     1302.233     1132.362      336.547        0.761        0.139      111.593       15.890        0.020      336.442        7.747      866.101
01/28/2014  03:04:00      -52.252      -26.885        4.951       34.263       26.377       15.497     1173.949      695.749      240.150        0.279        0.105       58.763       12.739        0.047      336.496        7.837      866.071
01/28/2014  03:05:00      -16.617       -3.681        6.112       10.913       10.081       10.686      119.090      101.627      114.183        0.033        0.017       17.020        5.933        0.122      336.515        7.869      866.031
01/28/2014  03:06:00       21.052       14.439       12.772       14.294       20.364       12.878      204.329      414.692      165.832        0.080        0.039       25.528       13.856        0.295      336.535        7.905      865.986
01/28/2014  03:07:00       32.222       43.141       -0.680       26.102       15.375       12.717      681.303      236.380      161.719        0.199        0.054       53.846        6.072        0.013      336.499        7.843      865.964
01/28/2014  03:08:00        9.070       49.446       -8.752       10.660       11.723        6.447      113.627      137.417       41.563        0.145        0.015       50.271        4.989        0.010      336.472        7.794      865.948
01/28/2014  03:09:00      -16.458        6.884        0.327       14.502        9.787        7.228      210.322       95.781       52.246        0.034        0.018       17.840        6.181        0.120      336.575        7.969      865.945
01/28/2014  03:10:00      -57.115       -0.617       -2.504       21.433       14.595       10.004      459.380      213.009      100.085        0.202        0.039       57.119        9.884        0.030      336.501        7.846      865.955
01/28/2014  03:11:00      -77.754      -15.990      -10.566       17.604       11.926        9.907      309.915      142.229       98.145        0.348        0.028       79.381        7.283        0.008      336.388        7.656      865.965
01/28/2014  03:12:00      -65.779       -3.732        0.558       31.554       23.090       17.356      995.635      533.139      301.223        0.309        0.091       65.885       19.466        0.087      336.439        7.743      865.981
01/28/2014  03:13:00      -42.466      -10.858       -8.058       23.751       25.198       12.410      564.108      634.954      154.013        0.167        0.068       43.832       15.843        0.131      336.456        7.768      865.991
01/28/2014  03:14:00      -37.610      -12.249       -5.178       14.816       14.775        9.313      219.518      218.310       86.724        0.106        0.026       39.555        4.176        0.011      336.488        7.822      865.999
01/28/2014  03:15:00      -68.871      -24.913       -8.663       12.813       13.736        5.872      164.174      188.685       34.481        0.291        0.019       73.239        4.504        0.004      336.526        7.889      866.017
01/28/2014  03:16:00      -85.427      -36.245       -6.939       15.279       16.527       10.666      233.461      273.158      113.774        0.464        0.031       92.799        5.837        0.004      336.444        7.750      866.042
01/28/2014  03:17:00      -59.304      -25.549       -3.767       28.577       19.339        8.471      816.651      373.996       71.754        0.272        0.063       64.573        7.975        0.015      336.402        7.679      866.063
01/28/2014  03:18:00      -17.253        0.885       11.049       22.535       21.114       16.978      507.820      445.795      288.236        0.083        0.062       17.276        8.344        0.233      336.539        7.910      866.068
01/28/2014  03:19:00      -23.815       29.201       -4.508       11.627       18.192       12.562      135.179      330.937      157.807        0.103        0.031       37.681        5.940        0.025      336.688        8.157      866.075
01/28/2014  03:20:00       -3.145       21.886        8.466       12.259        9.379        9.995      150.290       87.964       99.894        0.045        0.017       22.111        6.373        0.083      336.735        8.237      866.072
01/28/2014  03:21:00       11.461       36.137        6.463       11.655       18.627       13.475      135.850      346.965      181.566        0.107        0.033       37.911       13.076        0.119      336.667        8.125      866.058
01/28/2014  03:22:00      -16.493       86.669      -11.093       10.595       13.555        7.812      112.248      183.738       61.031        0.413        0.018       88.225        5.403        0.004      336.721        8.213      866.038
01/28/2014  03:23:00      -20.299       47.868       -4.065       15.177       33.413       11.456      230.336     1116.437      131.237        0.210        0.074       51.994       13.099        0.063      336.739        8.244      866.012
01/28/2014  03:24:00      -45.746       11.830       -6.179       16.098       17.331       13.395      259.130      300.349      179.435        0.150        0.037       47.251        9.021        0.036      336.507        7.856      865.976
01/28/2014  03:25:00      -54.853      -19.222       -6.212       12.330       12.627        9.917      152.022      159.451       98.344        0.191        0.020       58.124        5.361        0.009      336.293        7.498      865.945
01/28/2014  03:26:00      -47.529       -9.203       -8.235        8.706        9.106        7.519       75.786       82.912       56.542        0.131        0.011       48.412        5.165        0.011      336.384        7.649      865.925
01/28/2014  03:27:00      -61.290       19.604      -14.421       11.086       13.657        6.433      122.899      186.504       41.389        0.235        0.018       64.349        2.705        0.002      336.632        8.065      865.896
01/28/2014  03:28:00      -38.720       -0.762       -6.794        9.281       12.703        9.467       86.134      161.357       89.618        0.094        0.017       38.728        7.342        0.036      336.641        8.081      865.891
01/28/2014  03:29:00      -25.805      -22.193       -7.140        9.811        7.200        8.093       96.258       51.838       65.502        0.071        0.011       34.035        6.094        0.032      336.606        8.021      865.908
01/28/2014  03:30:00      -22.998      -17.766       -5.234       11.721        9.840        6.605      137.383       96.833       43.620        0.057        0.014       29.061        6.744        0.054      336.591        7.997      865.920
01/28/2014  03:31:00      -10.568      -17.490        0.223       13.441       12.296        8.664      180.663      151.196       75.073        0.041        0.020       20.435        8.371        0.168      336.728        8.226      865.931
01/28/2014  03:32:00      -43.448        1.706       -5.825        9.451        5.619        5.998       89.318       31.576       35.978        0.104        0.008       43.482        4.028        0.009      336.842        8.415      865.931
01/28/2014  03:33:00      -64.169       -9.027       -9.354       10.147        8.458        6.284      102.958       71.537       39.490        0.225        0.011       64.801        5.287        0.007      336.576        7.971      865.954
01/28/2014  03:34:00      -59.647      -17.069      -10.372        6.622        7.958        7.514       43.846       63.335       56.454        0.206        0.008       62.041        2.819        0.002      336.375        7.635      865.984
01/28/2014  03:35:00      -49.353      -27.470       -5.339       17.348       19.335       12.388      300.963      373.837      153.460        0.202        0.041       56.483       11.245        0.040      336.301        7.512      866.009
01/28/2014  03:36:00      -78.334       -7.319       -6.556       23.952       14.008       11.060      573.708      196.225      122.313        0.356        0.045       78.675        5.586        0.005      336.335        7.568      866.010
01/28/2014  03:37:00      -77.981      -36.260       -3.881       18.018       22.298       15.313      324.652      497.195      234.473        0.423        0.053       85.999       12.184        0.020      336.376        7.635      866.011
01/28/2014  03:38:00      -92.122      -57.682        1.821       38.337       22.078       22.466     1469.701      487.428      504.703        0.714        0.123      108.691       18.933        0.030      336.442        7.746      866.009
01/28/2014  03:39:00     -111.364      -72.122        4.293       44.421       37.244       24.739     1973.223     1387.118      612.004        1.080        0.199      132.678       22.429        0.029      336.481        7.811      866.010
01/28/2014  03:40:00      -66.589      -69.917        8.472       51.516       49.519       29.160     2653.947     2452.134      850.285        0.767        0.298       96.553       27.479        0.081      336.592        7.999      866.010
01/28/2014  03:41:00      -77.727      -42.407        2.357       35.757       16.611       17.561     1278.556      275.931      308.387        0.485        0.093       88.543       16.204        0.033      336.564        7.952      865.990
01/28/2014  03:42:00      -65.858      -24.290        0.262       39.011       23.865       13.630     1521.861      569.534      185.766        0.360        0.114       70.194       17.259        0.060      336.553        7.933      865.960
01/28/2014  03:43:00      -18.411        3.707       11.015       29.295       17.520       15.102      858.170      306.955      228.065        0.093        0.070       18.781       17.678        0.886      336.580        7.978      865.915
01/28/2014  03:44:00        3.181        4.902       19.409       11.622        8.905        9.691      135.070       79.299       93.922        0.036        0.015        5.844        8.067        1.906      336.615        8.036      865.877
01/28/2014  03:45:00       -6.861        3.596        7.879       15.408        6.758        9.796      237.401       45.667       95.969        0.025        0.019        7.747        7.359        0.902      336.595        8.003      865.849
01/28/2014  03:46:00        8.270       28.626       -4.419       12.290       11.511        7.066      151.043      132.508       49.924        0.062        0.017       29.796        4.600        0.024      336.558        7.942      865.837
01/28/2014  03:47:00       21.637       21.002       -4.671       15.827       18.773        7.120      250.500      352.417       50.696        0.079        0.033       30.154        6.682        0.049      336.500        7.844      865.820
01/28/2014  03:48:00        2.049       -8.207       -2.305       16.722       11.538        8.199      279.619      133.122       67.231        0.028        0.024        8.459        7.572        0.801      336.555        7.937      865.799
01/28/2014  03:49:00      -19.488      -16.287        0.666        9.607       10.943        9.458       92.291      119.753       89.457        0.047        0.015       25.398        6.979        0.076      336.546        7.922      865.785
01/28/2014  03:50:00        2.172        2.147        9.097        7.974        3.507        3.236       63.578       12.300       10.472        0.009        0.004        3.054        3.152        1.065      336.580        7.978      865.775
01/28/2014  03:51:00       23.446       14.531        9.791       11.863        9.482       10.299      140.737       89.905      106.071        0.060        0.017       27.584        7.961        0.083      336.576        7.971      865.758
01/28/2014  03:52:00       53.645       36.685       12.274       10.892        9.661       11.061      118.629       93.327      122.338        0.235        0.017       64.989        5.639        0.008      336.528        7.891      865.737
01/28/2014  03:53:00       76.895       36.791       10.190       18.184       19.046       16.551      330.641      362.767      273.938        0.417        0.048       85.244        8.488        0.010      336.453        7.766      865.722
01/28/2014  03:54:00       68.409       49.558       20.790       21.832       19.514       25.545      476.654      380.785      652.536        0.454        0.075       84.473       13.092        0.024      336.528        7.891      865.722
01/28/2014  03:55:00       30.458       26.503       18.199       19.710       18.970       15.399      388.474      359.849      237.119        0.147        0.049       40.374       10.929        0.073      336.575        7.969      865.753
01/28/2014  03:56:00       -1.773       21.492       14.843       21.128       13.790        9.618      446.383      190.162       92.511        0.071        0.036       21.565        7.690        0.127      336.568        7.958      865.778
01/28/2014  03:57:00      -93.118      -16.757       -4.184       36.487       26.258       15.118     1331.281      689.465      228.561        0.561        0.112       94.614       10.407        0.012      336.425        7.718      865.803
01/28/2014  03:58:00     -159.419      -42.210        2.722       55.841       51.599       31.873     3118.210     2662.456     1015.913        1.700        0.340      164.913       30.337        0.034      336.381        7.644      865.815
01/28/2014  03:59:00     -154.981      -27.288       -7.420       40.470       30.472       33.081     1637.849      928.520     1094.347        1.424        0.183      157.365       23.098        0.022      336.385        7.649      865.810
01/28/2014  04:00:00      -81.372      -33.825       -0.859       39.720       24.563       14.890     1577.666      603.351      221.704        0.508        0.120       88.122       14.791        0.028      336.429        7.724      865.777
01/28/2014  04:01:00      -56.466      -46.606        1.576       17.508       21.280        9.890      306.523      452.847       97.804        0.311        0.043       73.216       10.015        0.019      336.575        7.969      865.743
01/28/2014  04:02:00      -26.732       -6.153        3.380       25.985       22.559        9.625      675.202      508.900       92.632        0.102        0.064       27.431       11.734        0.183      336.669        8.127      865.701
01/28/2014  04:03:00        5.843       29.728        4.750       19.630       13.860       11.509      385.327      192.088      132.459        0.083        0.035       30.297        8.607        0.081      336.628        8.059      865.676
01/28/2014  04:04:00       27.464       41.934        1.302       12.579       15.961        9.202      158.243      254.759       84.672        0.151        0.025       50.127        8.853        0.031      336.562        7.950      865.653
01/28/2014  04:05:00       34.561       29.680       -7.759        9.770       11.522        7.308       95.457      132.761       53.410        0.121        0.014       45.556        5.661        0.015      336.529        7.894      865.641
01/28/2014  04:06:00       59.569       22.235        4.426       17.098       14.620       19.213      292.344      213.746      369.137        0.247        0.044       63.584        7.510        0.014      336.533        7.900      865.628
01/28/2014  04:07:00       44.395       31.505       24.120       19.076       18.081       22.540      363.907      326.926      508.050        0.237        0.060       54.438       10.555        0.038      336.509        7.859      865.607
01/28/2014  04:08:00       66.290       37.047       12.448       19.213       21.893       19.833      369.146      479.323      393.359        0.358        0.062       75.940       13.247        0.030      336.419        7.709      865.587
01/28/2014  04:09:00       73.570       51.637       21.586       25.230       15.409       21.882      636.539      237.450      478.826        0.495        0.068       89.883       15.616        0.030      336.456        7.771      865.586
01/28/2014  04:10:00       70.183       68.397       52.116       29.895       23.998       22.450      893.693      575.919      503.995        0.715        0.099       97.999       14.017        0.020      336.438        7.739      865.581
01/28/2014  04:11:00       64.928       35.749       21.594       31.711       29.287       31.776     1005.609      857.723     1009.719        0.442        0.144       74.119       23.349        0.099      336.360        7.609      865.588
01/28/2014  04:12:00       37.021       29.459       -6.402       15.777        9.700        8.921      248.905       94.096       79.593        0.135        0.021       47.312        6.009        0.016      336.296        7.503      865.605
01/28/2014  04:13:00       11.491       65.360      -10.293        7.272       19.740        7.234       52.879      389.681       52.327        0.250        0.025       66.362       10.673        0.026      336.377        7.640      865.628
01/28/2014  04:14:00       24.957       75.548       -9.098       17.368       23.355       14.304      301.635      545.451      204.611        0.373        0.053       79.563       11.846        0.022      336.254        7.434      865.668
01/28/2014  04:15:00       93.918       40.976        0.664       45.311       25.280       24.821     2053.057      639.058      616.096        0.690        0.165      102.468       17.594        0.029      336.266        7.453      865.687
01/28/2014  04:16:00       96.676       53.873       14.059       22.779       27.288       22.763      518.880      744.634      518.176        0.711        0.089      110.673       12.580        0.013      336.231        7.393      865.703
01/28/2014  04:17:00       72.981       48.522        4.267       35.690       21.220       19.188     1273.807      450.305      368.196        0.490        0.105       87.639        8.248        0.009      336.170        7.291      865.706
01/28/2014  04:18:00       53.899       50.740        2.888       26.639       17.476       13.817      709.613      305.421      190.922        0.335        0.060       74.025        8.661        0.014      336.154        7.264      865.711
01/28/2014  04:19:00       37.438       35.249       -2.402       13.140       17.960       12.455      172.650      322.569      155.115        0.165        0.033       51.421        6.815        0.018      336.157        7.268      865.707
01/28/2014  04:20:00        7.561        2.846        0.144        6.697        9.479        7.519       44.847       89.854       56.537        0.013        0.010        8.079        4.449        0.303      336.215        7.369      865.709
01/28/2014  04:21:00       31.046       34.972       -1.368       18.977       15.147        8.548      360.122      229.437       73.071        0.143        0.033       46.765        4.566        0.010      336.203        7.344      865.702
01/28/2014  04:22:00       42.065       36.700        2.017       14.739       19.768       16.873      217.227      390.769      284.714        0.201        0.045       55.824       13.102        0.055      336.197        7.337      865.711
01/28/2014  04:23:00       65.953       45.683        5.342       18.548       12.175       13.741      344.028      148.236      188.826        0.357        0.034       80.230        9.623        0.014      336.175        7.301      865.721
01/28/2014  04:24:00       69.100       37.800        4.382       23.562       15.995       11.188      555.188      255.836      125.176        0.358        0.047       78.763        4.203        0.003      336.215        7.367      865.742
01/28/2014  04:25:00       69.900       44.726       13.262       21.238       18.991       17.006      451.069      360.671      289.204        0.408        0.055       82.985       12.657        0.023      336.237        7.403      865.768
01/28/2014  04:26:00       50.003       22.910        8.378       17.142       17.975       17.365      293.855      323.101      301.540        0.201        0.046       55.002       13.700        0.062      336.270        7.459      865.796
01/28/2014  04:27:00       36.713       20.884        4.524       15.164       14.183       13.316      229.936      201.164      177.315        0.121        0.030       42.238        7.897        0.035      336.264        7.450      865.815
01/28/2014  04:28:00       18.587       17.456        1.836       10.367       13.039       11.148      107.469      170.021      124.267        0.053        0.020       25.499        8.278        0.105      336.280        7.476      865.828
01/28/2014  04:29:00       -1.991       27.591       -5.258        8.069       10.255        6.452       65.107      105.162       41.634        0.050        0.011       27.662        4.846        0.031      336.271        7.459      865.861
01/28/2014  04:30:00      -11.835        1.708       -3.070        7.262        9.002        5.967       52.735       81.037       35.607        0.016        0.008       11.958        5.190        0.188      336.316        7.536      865.904
01/28/2014  04:31:00      -29.001      -18.514       -7.647       14.250       12.785        7.198      203.071      163.466       51.807        0.083        0.021       34.406        5.693        0.027      336.250        7.427      865.946
01/28/2014  04:32:00      -32.044      -14.958       -2.099       20.093       13.931        9.383      403.720      194.063       88.039        0.097        0.034       35.363        5.665        0.026      336.271        7.460      865.986
01/28/2014  04:33:00      -11.991      -24.300       11.907       31.762       21.333       18.955     1008.820      455.085      359.283        0.135        0.091       27.098       19.013        0.492      336.416        7.702      866.015
01/28/2014  04:34:00      -44.644      -37.237        7.090       37.137       28.056       18.984     1379.178      787.160      360.398        0.298        0.126       58.135       18.457        0.101      336.431        7.728      866.015
01/28/2014  04:35:00      -73.619      -45.451       -9.894       23.306       17.820       12.821      543.182      317.558      164.373        0.430        0.051       86.519       12.110        0.020      336.509        7.859      866.003
01/28/2014  04:36:00      -34.121      -21.965        1.566       38.143       20.522       14.926     1454.881      421.168      222.789        0.187        0.105       40.579       14.626        0.130      336.548        7.925      865.988
01/28/2014  04:37:00      -15.974      -16.880        3.031       25.384       21.343       16.918      644.360      455.535      286.234        0.097        0.069       23.240       11.548        0.247      336.566        7.955      865.966
01/28/2014  04:38:00      -45.406      -63.539       -5.137       40.364       27.916       21.068     1629.248      779.279      443.855        0.449        0.143       78.096       13.219        0.029      336.564        7.952      865.960
01/28/2014  04:39:00      -83.481      -75.700        1.425       30.763       36.343       19.553      946.335     1320.842      382.311        0.768        0.132      112.692       14.238        0.016      336.510        7.861      865.957
01/28/2014  04:40:00      -80.212      -66.153       -0.822       29.017       33.830       17.810      841.989     1144.442      317.200        0.656        0.115      103.972       12.139        0.014      336.505        7.854      865.965
01/28/2014  04:41:00      -84.223      -58.300       -1.330       18.553       19.374       14.019      344.226      375.345      196.545        0.570        0.046      102.432       11.023        0.012      336.515        7.868      865.977
01/28/2014  04:42:00      -70.492      -23.364        0.264       18.273       30.379       14.569      333.893      922.891      212.264        0.349        0.073       74.263        8.861        0.014      336.517        7.873      865.989
01/28/2014  04:43:00      -64.159       -8.920       -8.745       12.020        8.007        7.125      144.484       64.110       50.760        0.227        0.013       64.776        5.808        0.008      336.466        7.783      865.999
01/28/2014  04:44:00      -41.289      -17.998       -4.615        8.437       11.800        6.715       71.176      139.243       45.094        0.115        0.013       45.041        4.445        0.010      336.481        7.811      866.016
01/28/2014  04:45:00      -67.586      -18.215      -12.705        7.458        6.891        5.743       55.627       47.488       32.985        0.260        0.007       69.998        2.817        0.002      336.493        7.832      866.023
01/28/2014  04:46:00      -85.236      -22.693       -6.900       10.976       14.128        5.689      120.464      199.599       32.364        0.409        0.018       88.205        2.400        0.001      336.450        7.759      866.027
01/28/2014  04:47:00      -84.930      -16.723       -7.331       17.980        9.335        9.941      323.264       87.136       98.833        0.403        0.025       86.561       10.338        0.014      336.423        7.714      866.026
01/28/2014  04:48:00      -83.739       -9.221       -7.495       13.447        9.688        9.537      180.834       93.862       90.962        0.376        0.018       84.246        2.197        0.001      336.370        7.627      866.013
01/28/2014  04:49:00      -65.071      -10.034       -3.513       18.758       15.548       13.064      351.870      241.737      170.678        0.256        0.038       65.840       12.852        0.038      336.348        7.591      866.001
01/28/2014  04:50:00      -31.082      -11.238       -2.519       18.694       14.913       11.318      349.468      222.393      128.105        0.090        0.035       33.052       10.565        0.102      336.324        7.550      865.992
01/28/2014  04:51:00       -4.848        4.770       19.274        5.246        7.289        9.266       27.524       53.127       85.853        0.029        0.008        6.801        4.952        0.530      336.552        7.932      866.002
01/28/2014  04:52:00      -10.239       18.650       40.680       14.010       19.089       15.608      196.274      364.405      243.603        0.146        0.040       21.276        8.365        0.155      336.493        7.833      866.012
01/28/2014  04:53:00       -3.629       11.443       23.944       19.161       26.967       20.177      367.136      727.242      407.115        0.111        0.075       12.005       19.117        2.536      336.432        7.729      866.033
01/28/2014  04:54:00      -25.739       -3.385        5.687       17.567       17.209       10.317      308.582      296.154      106.439        0.071        0.036       25.961        4.561        0.031      336.408        7.689      866.045
01/28/2014  04:55:00      -13.637        9.673       10.647       12.771       17.098       13.698      163.110      292.325      187.645        0.052        0.032       16.719       14.447        0.747      336.379        7.642      866.069
01/28/2014  04:56:00      -16.362       40.106       -1.092       15.035       13.485       15.759      226.042      181.839      248.361        0.127        0.033       43.315       11.051        0.065      336.314        7.531      866.078
01/28/2014  04:57:00       19.501       25.617       -1.642        9.669       17.877       13.874       93.487      319.588      192.500        0.082        0.030       32.196       14.565        0.205      336.326        7.553      866.081
01/28/2014  04:58:00        4.142       12.987        3.912        4.491        7.401        4.971       20.166       54.778       24.711        0.015        0.005       13.632        2.186        0.026      336.309        7.528      866.081
01/28/2014  04:59:00      -37.925      -12.732       -2.291       20.464       19.595        9.928      418.771      383.960       98.568        0.125        0.045       40.005       10.387        0.067      336.365        7.617      866.073
01/28/2014  05:00:00      -71.650      -45.225       -2.502       32.327       19.551       16.437     1045.014      382.235      270.186        0.444        0.085       84.729       14.943        0.031      336.404        7.684      866.054
01/28/2014  05:01:00      -46.747      -59.332       11.900       45.788       35.996       28.166     2096.524     1295.683      793.351        0.502        0.209       75.536       29.433        0.152      336.501        7.845      866.035
01/28/2014  05:02:00      -86.309      -97.595        4.757       50.165       39.623       23.762     2516.524     1569.967      564.629        1.082        0.233      130.285       25.732        0.039      336.476        7.802      866.026
01/28/2014  05:03:00     -107.921      -73.813       10.269       53.303       43.297       24.455     2841.184     1874.664      598.054        1.126        0.266      130.750       23.351        0.032      336.370        7.626      866.049
01/28/2014  05:04:00     -101.636      -74.141       -8.015       29.099       28.038       17.998      846.752      786.120      323.921        0.892        0.098      125.805       12.071        0.009      336.318        7.538      866.068
01/28/2014  05:05:00      -53.754      -61.689       -1.279       34.907       35.951       21.833     1218.468     1292.468      476.699        0.484        0.149       81.824       10.067        0.015      336.336        7.569      866.073
01/28/2014  05:06:00      -32.348      -59.021        6.869       60.945       34.461       24.244     3714.306     1187.562      587.750        0.503        0.274       67.304       27.503        0.167      336.390        7.659      866.064
01/28/2014  05:07:00      -31.782      -15.361        7.724       28.050       26.923       23.725      786.798      724.831      562.874        0.169        0.104       35.299       17.938        0.258      336.340        7.574      866.042
01/28/2014  05:08:00       -9.574       19.835       42.495       10.149       18.479       12.635      103.006      341.475      159.644        0.145        0.030       22.025        9.408        0.182      336.476        7.804      866.016
01/28/2014  05:09:00      -16.896       14.119       39.888       20.559       23.067       19.197      422.666      532.106      368.535        0.170        0.066       22.018       17.378        0.623      336.437        7.737      865.998
01/28/2014  05:10:00      -28.294        4.281        5.437       16.843       11.962       11.820      283.695      143.081      139.702        0.071        0.028       28.616        5.682        0.039      336.407        7.687      866.001
01/28/2014  05:11:00       -8.619      -24.337       14.077       17.519       16.722       13.504      306.899      279.620      182.368        0.082        0.038       25.818        8.400        0.106      336.476        7.801      866.016
01/28/2014  05:12:00        4.968        4.425        5.677       13.206       23.168       14.339      174.386      536.751      205.601        0.050        0.046        6.653       11.921        3.210      336.446        7.752      866.028
01/28/2014  05:13:00       -2.690       21.797        5.402       11.756        7.206       10.649      138.211       51.927      113.402        0.041        0.015       21.962        3.973        0.033      336.432        7.731      866.036
01/28/2014  05:14:00       -2.302       12.626       10.688       10.130       16.573       10.988      102.626      274.655      120.734        0.039        0.025       12.834        9.834        0.587      336.442        7.748      866.029
01/28/2014  05:15:00       -6.210        5.796       11.684        8.304        9.992        7.516       68.961       99.849       56.491        0.022        0.011        8.494        6.345        0.558      336.442        7.746      866.019
01/28/2014  05:16:00      -12.945        6.272        4.442       10.556        8.395        7.812      111.434       70.472       61.031        0.023        0.012       14.385        7.769        0.292      336.378        7.639      865.999
01/28/2014  05:17:00      -14.645        0.674        1.092        7.652        6.648        6.046       58.559       44.200       36.553        0.018        0.007       14.661        5.036        0.118      336.379        7.638      865.985
01/28/2014  05:18:00       -0.161        2.760        9.517        4.936        3.625        4.799       24.367       13.141       23.028        0.008        0.003        2.765        1.947        0.496      336.471        7.794      865.986
01/28/2014  05:19:00       -9.362       -0.456        5.582        4.492        4.541        5.554       20.176       20.617       30.852        0.010        0.004        9.373        3.330        0.126      336.433        7.730      866.004
01/28/2014  05:20:00      -24.781        8.188       -0.160        9.184        8.037        5.463       84.340       64.597       29.849        0.043        0.009       26.098        4.365        0.028      336.368        7.621      866.022
01/28/2014  05:21:00      -28.811       10.416        1.334        5.100        5.808        4.963       26.011       33.738       24.636        0.051        0.004       30.636        3.675        0.014      336.365        7.618      866.032
01/28/2014  05:22:00       -7.949        6.071        1.945        8.981        7.100        4.145       80.663       50.404       17.181        0.013        0.007       10.002        4.574        0.209      336.402        7.683      866.031
01/28/2014  05:23:00        3.430       23.834        1.309        7.572        8.846        5.324       57.332       78.251       28.340        0.037        0.008       24.080        3.656        0.023      336.400        7.676      866.020
01/28/2014  05:24:00        8.891       52.486       -0.488       11.962       13.010       10.697      143.084      169.258      114.418        0.163        0.021       53.234        7.596        0.020      336.348        7.590      866.000
01/28/2014  05:25:00        1.144       57.554       -1.369       11.004       23.849       10.625      121.079      568.772      112.896        0.206        0.040       57.565       11.001        0.037      336.372        7.628      865.999
01/28/2014  05:26:00       -4.176       90.584      -12.135       11.449       15.922        9.249      131.074      253.511       85.553        0.442        0.024       90.681        2.468        0.001      336.334        7.567      866.020
01/28/2014  05:27:00       -2.062       79.340      -10.684       12.468       14.521        9.392      155.457      210.868       88.208        0.343        0.023       79.366        9.878        0.015      336.253        7.429      866.051
01/28/2014  05:28:00      -59.402       18.773       -1.604       22.463       15.899       13.871      504.584      252.787      192.392        0.242        0.047       62.298        6.910        0.012      336.280        7.475      866.086
01/28/2014  05:29:00      -71.089        0.816       -7.395       13.711       14.001        8.135      187.982      196.040       66.177        0.278        0.023       71.094        5.591        0.006      336.200        7.341      866.113
01/28/2014  05:30:00      -70.769       -4.551       -4.964       19.850       16.565       12.470      394.018      274.398      155.512        0.294        0.041       70.915       11.261        0.025      336.214        7.366      866.135
01/28/2014  05:31:00      -85.158        6.315      -16.659       19.687       25.453       13.841      387.572      647.847      191.562        0.440        0.061       85.392       11.505        0.018      336.244        7.418      866.145
01/28/2014  05:32:00      -61.984      -21.080       -5.545       26.193       22.441       14.370      686.076      503.599      206.505        0.286        0.070       65.471       10.849        0.027      336.250        7.425      866.138
01/28/2014  05:33:00      -68.434        1.477        0.508       41.125       34.606       17.601     1691.278     1197.575      309.785        0.394        0.160       68.450       22.571        0.109      336.194        7.333      866.115
01/28/2014  05:34:00      -58.235       21.043       -6.157       28.136       23.628       15.230      791.652      558.304      231.965        0.273        0.079       61.920        9.158        0.022      336.108        7.188      866.094
01/28/2014  05:35:00      -72.715       33.176      -16.058       18.493       17.703       12.320      341.983      313.392      151.778        0.373        0.040       79.925       11.975        0.022      336.157        7.270      866.065
01/28/2014  05:36:00      -58.328       24.180       -9.995       16.979       19.347       12.463      288.277      374.313      155.333        0.245        0.041       63.141        8.371        0.018      336.145        7.247      866.041
01/28/2014  05:37:00      -40.308        0.877       -9.916        8.610       13.080        8.042       74.137      171.091       64.673        0.102        0.015       40.317        6.073        0.023      336.153        7.261      866.018
01/28/2014  05:38:00      -31.790       -7.171       -0.264       11.968       12.270        9.290      143.230      150.564       86.300        0.072        0.019       32.589        7.901        0.059      336.204        7.349      865.990
01/28/2014  05:39:00       -5.489        9.812       12.667       19.239       20.860       13.034      370.128      435.129      169.885        0.063        0.049       11.243       12.364        1.209      336.331        7.562      865.994
01/28/2014  05:40:00        9.904       67.893      -13.533       18.122       38.999       17.525      328.393     1520.932      307.128        0.352        0.108       68.611       21.941        0.102      336.263        7.447      866.027
01/28/2014  05:41:00       -3.697        8.613        2.053        8.370       14.527        8.961       70.062      211.035       80.301        0.023        0.018        9.372        8.734        0.868      336.245        7.417      866.049
01/28/2014  05:42:00      -25.076        5.665       -5.099       18.714       13.070        8.689      350.216      170.815       75.493        0.064        0.030       25.708        5.968        0.054      336.257        7.437      866.073
01/28/2014  05:43:00      -49.562       11.642      -13.011       17.263       16.461       11.286      298.021      270.958      127.364        0.173        0.035       50.911       11.503        0.051      336.204        7.349      866.108
01/28/2014  05:44:00      -60.475      -14.556       -3.412       18.624       22.623       14.775      346.844      511.812      218.314        0.248        0.054       62.202       12.002        0.037      336.135        7.232      866.141
01/28/2014  05:45:00      -52.671        3.598      -12.066       15.001       22.391       11.590      225.017      501.339      134.332        0.190        0.043       52.794        8.354        0.025      336.175        7.299      866.167
01/28/2014  05:46:00      -53.373        5.324        1.541       26.153       21.935       17.162      683.985      481.166      294.532        0.217        0.073       53.638       14.343        0.072      336.144        7.248      866.162
01/28/2014  05:47:00      -53.640       15.697       -6.455       25.704       18.459       14.215      660.716      340.746      202.057        0.218        0.060       55.890       14.701        0.069      336.132        7.227      866.152
01/28/2014  05:48:00      -41.830       12.244       -6.045       25.787       22.634       14.439      664.991      512.306      208.496        0.166        0.069       43.585        8.003        0.034      336.147        7.254      866.144
01/28/2014  05:49:00      -35.663        9.554       -9.432       20.741       13.848        8.581      430.180      191.773       73.634        0.107        0.035       36.921        9.309        0.064      336.247        7.423      866.131
01/28/2014  05:50:00      -52.989       -2.783      -13.743       16.204       20.439        9.651      262.554      417.737       93.149        0.189        0.039       53.062        8.566        0.026      336.282        7.479      866.111
01/28/2014  05:51:00      -51.356       -8.625       -9.546       11.939       16.527       10.892      142.533      273.158      118.635        0.167        0.027       52.075        5.229        0.010      336.182        7.312      866.103
01/28/2014  05:52:00      -40.709      -17.477       -5.405       12.226        8.160        8.184      149.475       66.580       66.970        0.114        0.014       44.302        4.427        0.010      336.132        7.229      866.106
01/28/2014  05:53:00       -3.094       -7.035        5.585       16.113        6.217        7.952      259.639       38.657       63.237        0.023        0.018        7.686        5.887        0.587      336.267        7.455      866.120
01/28/2014  05:54:00       -5.871       -7.998        2.062        4.940        6.960        6.473       24.400       48.437       41.900        0.011        0.006        9.921        3.030        0.093      336.271        7.460      866.139
01/28/2014  05:55:00       -6.730      -12.626       -0.830       11.809       13.468       11.342      139.452      181.375      128.638        0.033        0.022       14.307        9.810        0.470      336.337        7.573      866.172
01/28/2014  05:56:00      -38.444      -10.711       -6.185       11.572        8.872        6.609      133.910       78.704       43.676        0.094        0.013       39.909        3.220        0.007      336.200        7.341      866.191
01/28/2014  05:57:00      -29.890       -4.012       -5.555       13.227        6.424        5.320      174.954       41.266       28.304        0.059        0.012       30.158        5.377        0.032      336.180        7.308      866.195
01/28/2014  05:58:00        6.646        0.934        0.204        7.923        8.458        5.402       62.776       71.535       29.178        0.010        0.008        6.712        3.949        0.346      336.286        7.486      866.192
01/28/2014  05:59:00       15.141       42.585       -4.078       15.272       17.253       10.892      233.233      297.677      118.639        0.135        0.032       45.197        7.464        0.027      336.448        7.756      866.187
01/28/2014  06:00:00       15.866       51.880       -7.503       18.663       22.865       14.112      348.318      522.797      199.146        0.203        0.054       54.252       13.476        0.062      336.458        7.774      866.182
01/28/2014  06:01:00       12.879       46.145       -2.364       20.253       22.865       12.635      410.190      522.829      159.638        0.170        0.055       47.909       11.516        0.058      336.442        7.747      866.192
01/28/2014  06:02:00       23.621       49.506       -7.002       20.529       21.354       12.111      421.434      455.977      146.685        0.204        0.051       54.852       10.823        0.039      336.396        7.670      866.198
01/28/2014  06:03:00       16.346       40.825       -4.937       17.471       17.781       11.822      305.242      316.160      139.770        0.136        0.038       43.976        8.250        0.035      336.420        7.709      866.207
01/28/2014  06:04:00       18.487       25.003        3.035       21.681       16.396       17.172      470.079      268.829      294.874        0.100        0.052       31.095       13.485        0.188      336.475        7.800      866.226
01/28/2014  06:05:00       16.878        1.985        0.230       20.872       21.285       11.728      435.637      453.052      137.554        0.066        0.051       16.994       13.939        0.673      336.492        7.830      866.244
01/28/2014  06:06:00      -39.650        8.264       -2.653       15.300       18.075       10.589      234.083      326.691      112.120        0.116        0.034       40.502        9.704        0.057      336.268        7.455      866.261
01/28/2014  06:07:00      -39.931       -0.238       -2.144       11.079       12.349        8.373      122.750      152.505       70.114        0.097        0.017       39.932        3.666        0.008      336.153        7.262      866.261
01/28/2014  06:08:00      -36.307        5.669        1.327       13.692       15.198       10.838      187.483      230.972      117.453        0.094        0.027       36.747        8.509        0.054      336.166        7.284      866.247
01/28/2014  06:09:00      -36.008       10.454       -0.030        9.956       14.183       10.513       99.124      201.156      110.517        0.091        0.021       37.495        8.431        0.051      336.269        7.457      866.264
01/28/2014  06:10:00      -53.663       -3.256       -6.475       12.417       14.597        9.822      154.172      213.076       96.469        0.170        0.023       53.761        6.440        0.014      336.280        7.476      866.315
01/28/2014  06:11:00      -55.365      -12.128       -8.271       15.007       13.630       14.891      225.205      185.771      221.756        0.196        0.032       56.678       10.525        0.034      336.287        7.489      866.355
01/28/2014  06:12:00      -60.507       -6.957       -5.165       18.233       12.333       11.476      332.433      152.095      131.707        0.218        0.031       60.905        4.947        0.007      336.274        7.467      866.388
01/28/2014  06:13:00      -87.598        2.586      -14.694       18.536       11.526       12.670      343.595      132.845      160.517        0.427        0.032       87.636       10.782        0.015      336.274        7.466      866.422
01/28/2014  06:14:00      -83.979       -0.946       -7.524       43.957       24.055       20.931     1932.241      578.656      438.114        0.503        0.147       83.984       20.727        0.061      336.292        7.496      866.447
01/28/2014  06:15:00     -103.027        1.579       -7.811       39.756       25.656       23.876     1580.553      658.214      570.061        0.674        0.140      103.039       21.607        0.044      336.303        7.513      866.464
01/28/2014  06:16:00     -113.704       -0.880      -13.974       22.447       21.181       13.579      503.882      448.653      184.393        0.713        0.057      113.707        9.528        0.007      336.328        7.557      866.460
01/28/2014  06:17:00     -101.445       -0.207       -9.767       18.074       16.117       11.722      326.686      259.760      137.412        0.556        0.036      101.445        8.041        0.006      336.349        7.592      866.450
01/28/2014  06:18:00     -100.317      -13.055       -8.494       12.220       11.200        7.676      149.326      125.444       58.914        0.532        0.017      101.163        3.747        0.001      336.393        7.664      866.458
01/28/2014  06:19:00     -101.724      -19.613      -12.734       17.074       14.878        9.387      291.536      221.357       88.118        0.575        0.030      103.597        6.211        0.004      336.426        7.720      866.485
01/28/2014  06:20:00     -123.641       -9.777      -11.492       21.810       16.114       12.117      475.664      259.673      146.820        0.820        0.044      124.027        9.009        0.005      336.276        7.469      866.526
01/28/2014  06:21:00      -93.076      -16.079       -1.889       29.831       25.402       22.175      889.911      645.250      491.731        0.548        0.101       94.454       18.222        0.037      336.262        7.446      866.557
01/28/2014  06:22:00     -100.073      -24.264       -8.683       25.708       26.246       15.239      660.915      688.852      232.233        0.613        0.079      102.973       16.311        0.025      336.409        7.692      866.548
01/28/2014  06:23:00      -88.578      -10.868       -1.862       33.632       23.627       14.829     1131.099      558.231      219.909        0.494        0.095       89.242       17.236        0.037      336.436        7.738      866.509
01/28/2014  06:24:00     -105.604        0.382       -8.540       27.763       15.549       11.661      770.760      241.780      135.976        0.619        0.057      105.605       13.360        0.016      336.330        7.558      866.495
01/28/2014  06:25:00      -61.326      -27.460       -1.156       21.284       13.416       10.007      453.022      179.980      100.142        0.262        0.037       67.194        9.804        0.021      336.344        7.582      866.500
01/28/2014  06:26:00      -69.690      -22.809        0.003       27.183       23.548       17.692      738.929      554.511      313.022        0.349        0.080       73.327       16.430        0.050      336.387        7.654      866.517
01/28/2014  06:27:00     -115.855       -1.760      -11.055       26.488       17.601       16.050      701.625      309.792      257.613        0.741        0.063      115.868       12.707        0.012      336.334        7.565      866.519
01/28/2014  06:28:00      -81.056        2.070       -8.177       23.878       18.356       11.730      570.182      336.944      137.593        0.384        0.052       81.082        3.702        0.002      336.318        7.538      866.526
01/28/2014  06:29:00     -100.730       -4.211       -9.385       16.254       13.951       13.631      264.204      194.633      185.807        0.545        0.032      100.818       10.123        0.010      336.355        7.601      866.530
01/28/2014  06:30:00      -51.173       -3.218        1.989       36.764       21.890       15.295     1351.582      479.160      233.949        0.235        0.103       51.274       19.004        0.137      336.394        7.667      866.545
01/28/2014  06:31:00      -84.596       14.435       -9.962       33.562       16.916       11.985     1126.387      286.154      143.640        0.451        0.078       85.818       13.896        0.026      336.410        7.693      866.582
01/28/2014  06:32:00     -126.104        8.570      -11.918       19.137       12.344       12.602      366.213      152.363      158.807        0.840        0.034      126.395       10.216        0.007      336.478        7.806      866.604
01/28/2014  06:33:00     -113.362       20.797      -11.275       22.946       24.957       12.507      526.508      622.843      156.433        0.736        0.065      115.254        4.338        0.001      336.634        8.068      866.593
01/28/2014  06:34:00      -45.860      -15.253       -3.219       32.411       11.976       11.489     1050.463      143.430      131.997        0.184        0.066       48.330       14.747        0.093      336.563        7.950      866.539
01/28/2014  06:35:00      -31.432      -16.581        4.678       10.083       11.459        8.611      101.662      131.320       74.148        0.080        0.015       35.537        4.936        0.019      336.583        7.985      866.476
01/28/2014  06:36:00      -44.010      -21.514       -7.225       25.356       16.944       11.157      642.921      287.115      124.473        0.175        0.053       48.987        7.514        0.024      336.605        8.020      866.453
01/28/2014  06:37:00      -60.775      -33.466       -4.457       12.935       12.789       10.919      167.308      163.556      119.227        0.264        0.023       69.380        6.137        0.008      336.558        7.942      866.460
01/28/2014  06:38:00      -53.702      -34.720       -5.919       19.846       15.703       14.413      393.878      246.584      207.726        0.249        0.042       63.948       10.518        0.027      336.616        8.037      866.485
01/28/2014  06:39:00      -58.606      -48.789       -1.777       19.294       13.501       17.142      372.250      182.280      293.861        0.333        0.042       76.256       10.309        0.018      336.719        8.210      866.514
01/28/2014  06:40:00      -44.172      -35.083        1.630       25.711       23.980       19.627      661.052      575.049      385.202        0.240        0.081       56.409       19.398        0.118      336.759        8.277      866.544
01/28/2014  06:41:00      -39.247      -62.425       -2.768       51.751       38.843       29.736     2678.173     1508.804      884.210        0.526        0.254       73.737       28.449        0.149      336.737        8.241      866.556
01/28/2014  06:42:00      -72.808      -21.050      -10.229       14.323       15.520        9.145      205.144      240.878       83.625        0.319        0.026       75.789        6.241        0.007      336.655        8.105      866.568
01/28/2014  06:43:00      -36.245      -15.609       -2.039        9.911       11.703        9.096       98.228      136.952       82.730        0.094        0.016       39.463        5.999        0.023      336.679        8.143      866.592
01/28/2014  06:44:00      -36.287      -10.509       -1.501       15.511       11.807        7.541      240.599      139.398       56.863        0.093        0.022       37.778        8.427        0.050      336.696        8.175      866.609
01/28/2014  06:45:00      -62.504      -25.995       -2.882        9.638       11.276        8.543       92.899      127.139       72.989        0.244        0.015       67.694        3.933        0.003      336.681        8.147      866.623
01/28/2014  06:46:00      -63.554      -26.426       -3.906       13.160       11.281        7.068      173.175      127.251       49.955        0.255        0.018       68.829        5.261        0.006      336.693        8.169      866.639
01/28/2014  06:47:00      -75.910      -47.033       -2.005       20.086       12.513       10.487      403.429      156.582      109.987        0.432        0.033       89.300        8.073        0.008      336.659        8.110      866.644
01/28/2014  06:48:00      -61.370      -33.066        2.496       21.908       17.542       13.588      479.977      307.713      184.628        0.292        0.049       69.711       11.383        0.027      336.654        8.101      866.655
01/28/2014  06:49:00      -77.152      -24.673       -5.907       13.325       13.689       10.668      177.549      187.393      113.801        0.354        0.024       81.001        6.505        0.006      336.673        8.134      866.679
01/28/2014  06:50:00      -78.499      -38.950       -4.254        8.202       10.949        5.882       67.274      119.881       34.593        0.396        0.011       87.631        3.133        0.001      336.640        8.078      866.706
01/28/2014  06:51:00      -60.806      -39.759       -3.636       14.327        9.137       10.258      205.271       83.482      105.223        0.284        0.020       72.651        4.821        0.004      336.648        8.090      866.726
01/28/2014  06:52:00      -64.959      -38.641        1.327       21.220       22.192       14.381      450.293      492.467      206.803        0.343        0.057       75.583       11.289        0.022      336.574        7.968      866.735
01/28/2014  06:53:00      -74.681      -42.555       -0.659       17.326       15.216        9.860      300.205      231.526       97.223        0.401        0.031       85.955        9.809        0.013      336.608        8.024      866.740
01/28/2014  06:54:00      -63.262      -41.628       -5.380       23.722       14.660       10.851      562.738      214.914      117.744        0.333        0.045       75.730        9.420        0.015      336.626        8.053      866.726
01/28/2014  06:55:00      -43.288      -20.175       -3.181       14.289       15.226        9.922      204.179      231.820       98.449        0.141        0.027       47.758        6.080        0.016      336.668        8.125      866.709
01/28/2014  06:56:00      -60.921      -22.912       -5.820       29.873       22.269       12.915      892.381      495.924      166.809        0.291        0.078       65.087       13.569        0.043      336.720        8.212      866.720
01/28/2014  06:57:00      -63.501      -41.273       -2.971       29.126       23.407       14.031      848.346      547.899      196.866        0.367        0.080       75.735       14.919        0.039      336.686        8.155      866.740
01/28/2014  06:58:00      -49.969      -31.053       -1.474       23.885       21.237       15.088      570.498      451.027      227.641        0.236        0.062       58.832       11.367        0.037      336.710        8.195      866.744
01/28/2014  06:59:00      -86.325      -25.871      -11.169       16.472       12.309       10.001      271.315      151.502      100.016        0.438        0.026       90.119        7.548        0.007      336.605        8.019      866.754
01/28/2014  07:00:00      -81.065      -32.226       -4.775       22.812       23.771       11.297      520.386      565.046      127.628        0.442        0.061       87.236        8.830        0.010      336.648        8.091      866.768
01/28/2014  07:01:00      -53.461      -31.598        5.377       28.481       18.617       11.221      811.192      346.589      125.916        0.258        0.064       62.101       14.285        0.053      336.708        8.193      866.800
01/28/2014  07:02:00      -66.134       -7.135       -6.103       26.340       25.997       15.055      693.805      675.839      226.656        0.303        0.080       66.518       15.375        0.053      336.697        8.175      866.838
01/28/2014  07:03:00      -96.200        9.685      -14.207       22.809       18.002       17.758      520.273      324.081      315.341        0.535        0.058       96.686       15.676        0.026      336.688        8.161      866.885
01/28/2014  07:04:00      -91.384      -29.767       -7.028       28.059       16.227       14.245      787.288      263.325      202.934        0.527        0.063       96.110       14.182        0.022      336.660        8.111      866.927
01/28/2014  07:05:00      -71.590      -37.550       -1.961       20.926       23.298       17.301      437.914      542.819      299.307        0.391        0.064       80.840       15.227        0.035      336.660        8.112      866.954
01/28/2014  07:06:00      -58.828      -18.188        0.690       21.795       18.877       13.406      475.016      356.346      179.717        0.240        0.051       61.575       12.875        0.044      336.642        8.082      866.958
01/28/2014  07:07:00      -49.766      -17.028        6.097       19.515       24.286       13.992      380.818      589.811      195.776        0.198        0.058       52.598       15.258        0.084      336.645        8.085      866.957
01/28/2014  07:08:00      -43.621      -26.809       -2.205       22.495       28.451       15.329      506.038      809.459      234.976        0.209        0.078       51.200        8.500        0.028      336.693        8.167      866.950
01/28/2014  07:09:00      -83.185       16.142      -11.973       34.278       32.547       20.345     1174.965     1059.286      413.931        0.499        0.132       84.737       24.999        0.087      336.769        8.293      866.934
01/28/2014  07:10:00      -46.806       22.111       -6.082       25.340       17.044       13.116      642.093      290.493      172.026        0.191        0.055       51.765        8.538        0.027      336.738        8.241      866.922
01/28/2014  07:11:00      -55.711       -9.442      -10.018       10.594       12.996       12.001      112.238      168.900      144.016        0.186        0.021       56.505        7.808        0.019      336.740        8.248      866.905
01/28/2014  07:12:00      -64.120      -19.772      -12.065        9.729       12.004        6.770       94.648      144.098       45.829        0.247        0.014       67.099        1.464        0.000      336.707        8.193      866.906
01/28/2014  07:13:00      -79.709      -15.067      -11.009       35.805       18.035       12.260     1282.000      325.274      150.316        0.423        0.088       81.120       14.816        0.033      336.714        8.205      866.918
01/28/2014  07:14:00      -96.128        3.573      -10.817       27.937       22.121       16.039      780.476      489.337      257.239        0.545        0.076       96.194       12.325        0.016      336.741        8.248      866.922
01/28/2014  07:15:00      -78.391      -18.652       -9.527       22.173       20.242        9.679      491.647      409.719       93.684        0.379        0.050       80.579        6.114        0.006      336.757        8.271      866.910
01/28/2014  07:16:00      -55.576        3.535       -2.511       17.449       20.920       17.583      304.463      437.653      309.167        0.208        0.053       55.688       15.280        0.075      336.756        8.272      866.892
01/28/2014  07:17:00      -51.454      -11.677       -2.811       13.379       23.853       11.531      179.003      568.987      132.970        0.184        0.044       52.762        6.342        0.014      336.786        8.322      866.876
01/28/2014  07:18:00      -61.902       -7.365        0.304       17.066       15.834       13.074      291.248      250.713      170.926        0.230        0.036       62.339       10.000        0.026      336.779        8.310      866.865
01/28/2014  07:19:00      -63.027       -4.322      -10.481       14.251       11.391        7.821      203.081      129.758       61.171        0.225        0.020       63.175        7.933        0.016      336.832        8.397      866.859
01/28/2014  07:20:00      -42.926       -8.243       -4.068       15.246       17.440       10.295      232.441      304.156      105.994        0.128        0.032       43.710        6.032        0.019      336.869        8.459      866.849
01/28/2014  07:21:00      -60.094        3.505       -5.592       24.871       14.973       11.240      618.582      224.181      126.327        0.231        0.048       60.196       10.432        0.030      336.867        8.459      866.843
01/28/2014  07:22:00      -31.171      -21.234      -10.846       17.997       13.177       10.114      323.881      173.639      102.295        0.107        0.030       37.716       11.352        0.091      336.853        8.434      866.832
01/28/2014  07:23:00      -32.093      -12.263       -4.168       16.865       10.005        8.780      284.417      100.098       77.085        0.083        0.023       34.357        7.211        0.044      336.867        8.457      866.839
01/28/2014  07:24:00      -42.466      -25.865       -5.930       17.336       22.319       11.655      300.525      498.117      135.830        0.172        0.047       49.723       10.666        0.046      336.854        8.436      866.857
01/28/2014  07:25:00      -65.794      -29.103       -5.371       27.971       12.224       11.804      782.389      149.430      139.326        0.314        0.054       71.943       12.134        0.028      336.871        8.464      866.884
01/28/2014  07:26:00      -42.401      -33.030        0.676       33.096       15.646       12.783     1095.376      244.782      163.397        0.220        0.075       53.748       12.017        0.050      336.894        8.502      866.920
01/28/2014  07:27:00      -43.327      -53.567        2.765       27.409       19.831       19.213      751.279      393.260      369.132        0.313        0.076       68.896       20.830        0.091      336.889        8.494      866.934
01/28/2014  07:28:00      -59.653      -59.203        3.611       39.321       34.160       23.227     1546.167     1166.888      539.480        0.516        0.163       84.044       24.566        0.085      336.893        8.498      866.960
01/28/2014  07:29:00      -65.784      -56.025        5.400       45.995       33.760       22.783     2115.575     1139.743      519.061        0.563        0.189       86.408       28.752        0.111      336.931        8.564      866.996
01/28/2014  07:30:00      -57.034      -54.082        7.938       40.449       37.528       18.279     1636.091     1408.387      334.132        0.481        0.169       78.599       19.291        0.060      336.958        8.607      867.030
01/28/2014  07:31:00      -76.508      -74.217       -5.951       33.256       28.269       18.309     1105.993      799.147      335.214        0.682        0.112      106.591       16.534        0.024      336.904        8.517      867.054
01/28/2014  07:32:00      -78.767     -100.342       -3.194       31.615       30.292       21.536      999.528      917.610      463.818        0.933        0.119      127.564       17.748        0.019      336.858        8.442      867.073
01/28/2014  07:33:00      -83.742      -83.339       -7.023       30.074       27.623       18.904      904.453      763.050      357.346        0.802        0.101      118.144       10.950        0.009      336.864        8.453      867.103
01/28/2014  07:34:00      -71.651      -74.466       -3.432       24.030       24.681       15.750      577.441      609.143      248.050        0.606        0.072      103.340        9.803        0.009      336.858        8.443      867.128
01/28/2014  07:35:00      -40.875      -65.660        1.827       20.882       38.500       15.499      436.079     1482.255      240.206        0.407        0.108       77.343        8.193        0.011      336.856        8.440      867.151
01/28/2014  07:36:00      -74.251      -35.011       -3.938       30.897       15.766       13.656      954.641      248.576      186.494        0.407        0.069       82.091       12.315        0.023      336.864        8.454      867.158
01/28/2014  07:37:00      -57.417      -80.203       -5.940       18.106       24.349       13.010      327.811      592.872      169.265        0.543        0.054       98.637        6.850        0.005      336.859        8.444      867.142
01/28/2014  07:38:00      -58.326      -78.285       -3.655       28.250       28.051       18.218      798.035      786.860      331.906        0.573        0.096       97.625       18.357        0.035      336.869        8.459      867.128
01/28/2014  07:39:00      -57.874      -25.738      -13.438       34.674       19.480       17.473     1202.253      379.467      305.311        0.304        0.094       63.339        5.564        0.008      336.910        8.527      867.118
01/28/2014  07:40:00       -4.266       -2.690       -6.898        9.895       10.846        7.077       97.915      117.626       50.077        0.017        0.013        5.044        4.063        0.649      336.894        8.500      867.104
01/28/2014  07:41:00      -30.139       -8.671       -0.709       19.617       10.389        8.101      384.833      107.940       65.630        0.077        0.028       31.362        3.002        0.009      336.921        8.545      867.089
01/28/2014  07:42:00       -6.886      -59.456      -10.354       16.159       24.236       12.953      261.118      587.377      167.774        0.235        0.051       59.853       11.454        0.037      336.983        8.650      867.057
01/28/2014  07:43:00      -31.589      -18.506       -1.932       20.418       21.661       10.995      416.904      469.212      120.880        0.118        0.050       36.610        4.529        0.015      336.979        8.639      867.039
01/28/2014  07:44:00      -29.875       17.682        0.718        6.720        6.065        7.266       45.162       36.785       52.798        0.067        0.007       34.715        3.836        0.012      336.933        8.563      867.026
01/28/2014  07:45:00      -24.291        9.210        0.717        8.266        5.689        4.037       68.322       32.366       16.294        0.040        0.006       25.978        4.296        0.027      336.945        8.580      867.020
01/28/2014  07:46:00      -15.784        1.964        6.265        4.771        4.183        5.178       22.761       17.499       26.815        0.018        0.003       15.906        1.978        0.015      336.976        8.637      867.010
01/28/2014  07:47:00      -20.555       -6.462       -1.101        4.645        6.408        6.817       21.575       41.069       46.470        0.029        0.005       21.546        3.841        0.032      336.955        8.598      866.991
01/28/2014  07:48:00       -7.598        1.668       -0.527        4.521        3.685        4.858       20.438       13.580       23.602        0.006        0.003        7.779        1.055        0.018      336.993        8.665      866.970
01/28/2014  07:49:00      -17.123       -0.324        3.257        9.278        9.334        6.960       86.076       87.123       48.435        0.026        0.011       17.126        3.848        0.050      336.990        8.660      866.955
01/28/2014  07:50:00        1.534       -1.241        6.805        8.108        4.420       10.270       65.746       19.540      105.479        0.012        0.010        1.973        2.131        1.167      337.080        8.812      866.932
01/28/2014  07:51:00       -5.300        7.596       14.210        7.780       10.203        8.841       60.536      104.111       78.163        0.027        0.012        9.262        4.457        0.232      337.038        8.742      866.893
01/28/2014  07:52:00       -9.588        9.635       25.783        7.157       10.794        8.319       51.220      116.521       69.208        0.054        0.012       13.593        7.313        0.289      337.085        8.819      866.863
01/28/2014  07:53:00       -0.103       16.527       24.168       13.311        8.359        7.480      177.195       69.879       55.954        0.058        0.015       16.528        7.227        0.191      337.022        8.716      866.837
01/28/2014  07:54:00       31.236        7.560        3.744       14.949       15.148       18.641      223.458      229.452      347.504        0.092        0.040       32.138       10.190        0.101      336.972        8.630      866.813
01/28/2014  07:55:00        5.720       27.292       38.155       14.475       18.559       16.763      209.520      344.442      280.993        0.153        0.042       27.885       13.859        0.247      337.059        8.775      866.774
01/28/2014  07:56:00        8.440       37.647       45.676       16.209       20.924       12.172      262.730      437.808      148.150        0.221        0.042       38.582       13.056        0.115      337.070        8.794      866.763
01/28/2014  07:57:00       21.498       41.580       45.209       17.894       13.004        8.313      320.179      169.092       69.109        0.240        0.028       46.809        7.423        0.025      337.047        8.756      866.788
01/28/2014  07:58:00       50.054       26.816       28.296       25.368       21.162       17.311      643.523      447.829      299.656        0.271        0.070       56.785       15.502        0.075      337.058        8.773      866.806
01/28/2014  07:59:00       55.448       45.072       20.479       32.081       23.982       25.512     1029.203      575.151      650.857        0.389        0.113       71.456       13.006        0.033      337.048        8.757      866.806
01/28/2014  08:00:00       52.358       59.622       50.816       41.462       26.780       18.433     1719.137      717.183      339.771        0.583        0.139       79.348       17.202        0.047      337.049        8.760      866.796
01/28/2014  08:01:00       21.430       61.227       55.551       30.617       23.268       19.566      937.380      541.386      382.816        0.458        0.093       64.869       10.806        0.028      337.054        8.769      866.773
01/28/2014  08:02:00       17.102       77.089       67.366       23.398       26.441       19.529      547.483      699.104      381.374        0.620        0.081       78.963       15.939        0.041      337.049        8.761      866.742
01/28/2014  08:03:00        2.058       51.122       69.023       18.270       27.808       18.200      333.788      773.297      331.226        0.441        0.072       51.164       13.178        0.066      337.094        8.836      866.724
01/28/2014  08:04:00       20.998       40.082       57.381       23.428       23.344       13.253      548.862      544.940      175.634        0.330        0.063       45.249        9.792        0.047      337.050        8.762      866.722
01/28/2014  08:05:00        2.450        3.377       31.910       10.467       18.214       10.767      109.563      331.750      115.932        0.080        0.028        4.172        9.457        5.137      337.163        8.953      866.772
01/28/2014  08:06:00       14.763        4.513       20.632       15.115       14.283       10.670      228.458      204.001      113.842        0.061        0.027       15.437        7.586        0.241      337.147        8.924      866.830
01/28/2014  08:07:00       31.000       29.797       24.057       18.560       17.051       13.268      344.467      290.737      176.053        0.162        0.041       42.999       11.485        0.071      337.051        8.764      866.890
01/28/2014  08:08:00       32.542       23.030       27.973       18.421       12.171       11.223      339.318      148.141      125.959        0.149        0.031       39.867        7.879        0.039      337.071        8.798      866.918
01/28/2014  08:09:00       14.797       17.267       22.589       16.006       15.327       16.794      256.195      234.919      282.024        0.090        0.039       22.740        2.415        0.011      337.105        8.853      866.896
01/28/2014  08:10:00        6.877       29.422       54.821       17.865       28.177       14.202      319.169      793.922      201.693        0.262        0.066       30.215       14.353        0.226      337.137        8.907      866.878
01/28/2014  08:11:00        2.146       39.542       67.818       20.120       30.265       14.195      404.798      915.958      201.485        0.384        0.076       39.601       10.450        0.070      337.119        8.878      866.878
01/28/2014  08:12:00       83.772       62.626       51.906       66.822       32.373       34.628     4465.134     1048.039     1199.089        1.017        0.336      104.593       41.544        0.158      336.962        8.617      866.894
01/28/2014  08:13:00       86.521       39.950       25.799       44.441       27.251       27.445     1975.031      742.617      753.223        0.661        0.174       95.299       16.158        0.029      336.923        8.548      866.921
01/28/2014  08:14:00       52.650       50.077       30.723       29.861       24.329       28.460      891.679      591.890      809.999        0.426        0.115       72.662       19.834        0.075      336.932        8.562      866.931
01/28/2014  08:15:00       41.983       44.292       37.650       30.001       25.276       19.171      900.072      638.882      367.527        0.352        0.095       61.028       16.926        0.077      336.982        8.647      866.943
01/28/2014  08:16:00       33.290       55.090       58.113       29.167       28.634       21.990      850.719      819.890      483.539        0.484        0.108       64.367       13.471        0.044      337.023        8.716      866.971
01/28/2014  08:17:00       79.616       69.251       21.830       34.334       27.454       26.591     1178.807      753.724      707.076        0.712        0.132      105.519       20.714        0.039      337.005        8.687      867.011
01/28/2014  08:18:00       41.447       33.942       17.139       34.493       33.482       29.894     1189.787     1121.015      893.635        0.318        0.160       53.572       27.041        0.255      337.017        8.707      867.087
01/28/2014  08:19:00       59.902       15.076       21.265       28.357       20.300       20.083      804.097      412.092      403.319        0.294        0.081       61.770       15.912        0.066      336.995        8.669      867.165
01/28/2014  08:20:00       33.312       26.847       26.929       26.403       26.310       19.620      697.127      692.239      384.929        0.216        0.089       42.784       18.608        0.189      337.002        8.681      867.190
01/28/2014  08:21:00        7.714       11.526       12.169       25.701       22.261       15.442      660.525      495.567      238.454        0.087        0.070       13.869       12.525        0.816      337.041        8.745      867.166
01/28/2014  08:22:00       -8.035      -19.742        4.509       14.477       29.432       16.004      209.588      866.235      256.141        0.090        0.067       21.315       12.962        0.370      337.130        8.895      867.121
01/28/2014  08:23:00       -3.053      -21.205        2.198       15.670       23.676       18.716      245.555      560.540      350.293        0.081        0.058       21.424       16.370        0.584      337.165        8.953      867.079
01/28/2014  08:24:00      -29.409      -26.393       -5.322       15.500       24.025       14.635      240.254      577.196      214.174        0.131        0.052       39.516       13.666        0.120      337.122        8.884      867.065
01/28/2014  08:25:00      -22.142       -5.002       -2.824       11.708       10.839        7.104      137.066      117.480       50.470        0.041        0.015       22.700        4.912        0.047      337.158        8.942      867.085
01/28/2014  08:26:00      -27.229       -9.639       -6.344       13.131       13.455        7.641      172.431      181.029       58.378        0.064        0.021       28.885        6.112        0.045      337.191        9.002      867.088
01/28/2014  08:27:00      -21.697      -29.854       -9.267       13.357       20.370       11.748      178.398      414.940      138.019        0.109        0.037       36.906        7.655        0.043      337.209        9.031      867.040
01/28/2014  08:28:00       -9.807      -23.569        8.261       34.867       18.735       15.126     1215.722      351.014      228.794        0.126        0.090       25.528       13.040        0.261      337.249        9.097      866.954
01/28/2014  08:29:00      -29.333      -23.907        2.981       28.421       29.011       23.735      807.736      841.631      563.337        0.183        0.111       37.842       16.819        0.198      337.238        9.077      866.913
01/28/2014  08:30:00      -62.181     -107.175      -11.441       37.473       50.248       28.879     1404.212     2524.888      833.976        1.012        0.238      123.907       27.214        0.048      337.170        8.965      866.913
01/28/2014  08:31:00      -23.929      -78.691       -7.238       28.081       38.095       29.779      788.568     1451.257      886.776        0.497        0.156       82.249       17.827        0.047      337.147        8.925      866.914
01/28/2014  08:32:00      -48.637      -32.266        5.143       30.083       24.274       20.324      904.990      589.228      413.061        0.267        0.095       58.367       15.773        0.073      337.168        8.960      866.901
01/28/2014  08:33:00      -40.327      -14.041       -0.116       25.762       19.333       14.699      663.678      373.752      216.070        0.154        0.063       42.701        6.023        0.020      337.132        8.900      866.923
01/28/2014  08:34:00       -5.586        4.174       14.829       20.198        9.077       16.033      407.971       82.394      257.070        0.051        0.037        6.973       13.707        3.864      337.278        9.144      866.977
01/28/2014  08:35:00      -36.271      -27.817        0.454       31.427       24.571       18.336      987.641      603.736      336.204        0.201        0.096       45.710       16.123        0.124      337.221        9.050      867.024
01/28/2014  08:36:00       -0.788        8.198        7.546       21.411       17.084       19.249      458.425      291.858      370.531        0.062        0.056        8.236       12.387        2.262      337.214        9.037      867.054
01/28/2014  08:37:00      -42.930       -3.038       10.863       25.771       16.644       14.176      664.164      277.031      200.963        0.156        0.057       43.038       11.335        0.069      337.157        8.940      867.095
01/28/2014  08:38:00       -4.800        9.186        2.077       12.450       11.846       11.113      155.004      140.319      123.510        0.027        0.021       10.364        8.801        0.721      337.276        9.143      867.133
01/28/2014  08:39:00       -7.670       18.217        6.646       15.517       14.184       12.205      240.762      201.181      148.953        0.051        0.030       19.766        9.094        0.212      337.276        9.144      867.166
01/28/2014  08:40:00      -30.474       16.243       -6.010       10.987       17.792       11.311      120.716      316.559      127.937        0.090        0.028       34.533        5.284        0.023      337.191        9.002      867.177
01/28/2014  08:41:00      -29.697        4.566        2.066       23.428       15.615       10.797      548.852      243.840      116.574        0.091        0.045       30.046        6.335        0.044      337.294        9.171      867.190
01/28/2014  08:42:00      -14.799        1.775        6.721       16.619       15.718        8.585      276.177      247.047       73.703        0.043        0.030       14.905        6.328        0.180      337.356        9.274      867.206
01/28/2014  08:43:00        3.954      -10.014       11.055       12.277       12.621       11.804      150.737      159.285      139.331        0.034        0.022       10.767        7.894        0.538      337.432        9.400      867.229
01/28/2014  08:44:00        3.187        3.171        9.726       17.149       13.004       10.793      294.083      169.112      116.493        0.035        0.029        4.495        3.897        0.751      337.419        9.381      867.262
01/28/2014  08:45:00      -35.926      -17.654        1.825       43.320       22.991       22.918     1876.600      528.573      525.214        0.227        0.147       40.029       17.419        0.189      337.307        9.191      867.276
01/28/2014  08:46:00      -24.342      -15.053        1.555       15.469       18.459       13.991      239.289      340.730      195.743        0.080        0.039       28.620        7.115        0.062      337.274        9.139      867.258
01/28/2014  08:47:00      -38.082      -22.014        0.348       28.526       22.996       15.015      813.747      528.815      225.462        0.175        0.078       43.987       16.624        0.143      337.280        9.149      867.249
01/28/2014  08:48:00      -58.829      -24.800       -8.137       17.835       37.658       16.036      318.100     1418.128      257.156        0.307        0.100       63.843        7.128        0.012      337.278        9.146      867.251
01/28/2014  08:49:00      -49.612      -27.711        1.096       25.626       17.825       16.574      656.711      317.747      274.685        0.224        0.062       56.826       16.087        0.080      337.324        9.220      867.249
01/28/2014  08:50:00      -54.421      -60.918       -1.885       26.009       28.019       12.713      676.487      785.074      161.618        0.415        0.081       81.686       14.054        0.030      337.313        9.202      867.259
01/28/2014  08:51:00      -40.679      -20.628       19.585       39.294       29.234       24.265     1544.007      854.602      588.780        0.273        0.149       45.611       23.480        0.265      337.382        9.318      867.280
01/28/2014  08:52:00      -55.783      -42.049        2.185       40.931       29.559       21.153     1675.329      873.712      447.456        0.394        0.150       69.856       18.716        0.072      337.346        9.258      867.311
01/28/2014  08:53:00      -33.173      -26.664       -2.159       21.776       12.905       11.020      474.190      166.546      121.436        0.129        0.038       42.560        5.761        0.018      337.353        9.269      867.317
01/28/2014  08:54:00      -34.088      -11.474       -0.588       16.052       11.178       11.051      257.675      124.954      122.118        0.090        0.025       35.967        5.960        0.027      337.333        9.238      867.326
01/28/2014  08:55:00      -32.425       -7.582       -2.167       18.004       14.370       15.836      324.135      206.504      250.795        0.095        0.039       33.300        9.178        0.076      337.334        9.239      867.324
01/28/2014  08:56:00      -22.404        9.769        0.659       11.633       12.943       11.630      135.321      167.526      135.254        0.052        0.022       24.441        8.338        0.116      337.262        9.120      867.306
01/28/2014  08:57:00       -4.898       14.691       15.261       19.423       18.837       21.421      377.240      354.840      458.870        0.083        0.060       15.486       17.161        1.228      337.362        9.286      867.299
01/28/2014  08:58:00      -19.730      -21.710        2.446       22.781       14.591       14.142      518.954      212.891      199.993        0.090        0.047       29.336       11.327        0.149      337.358        9.278      867.284
01/28/2014  08:59:00       -1.233        0.696       11.965       10.838        5.746       10.280      117.470       33.017      105.678        0.020        0.013        1.416        8.110       32.819      337.604        9.690      867.282
01/28/2014  09:00:00      -18.661      -18.984       15.769       25.819       15.667       14.582      666.633      245.458      212.632        0.104        0.056       26.620       13.841        0.270      337.517        9.543      867.294
01/28/2014  09:01:00      -26.786      -12.272        0.069       34.649       16.735       14.887     1200.569      280.048      221.624        0.128        0.085       29.464       17.747        0.363      337.485        9.491      867.304
01/28/2014  09:02:00      -37.554        0.203        9.227       32.360       12.739       20.573     1047.163      162.284      423.265        0.156        0.082       37.554       22.527        0.360      337.435        9.406      867.299
01/28/2014  09:03:00      -46.477       22.796        5.123       11.407       19.099       15.995      130.117      364.759      255.826        0.173        0.038       51.767       13.306        0.066      337.242        9.087      867.270
01/28/2014  09:04:00       -3.388       18.049       16.333       20.984       16.960       12.660      440.325      287.637      160.270        0.075        0.044       18.364       12.977        0.499      337.400        9.348      867.239
01/28/2014  09:05:00        2.462       45.893       52.636       17.857       28.119       26.397      318.856      790.660      696.826        0.334        0.090       45.959       12.261        0.071      337.427        9.394      867.202
01/28/2014  09:06:00       29.165        2.154       61.020       41.735       41.500       30.831     1741.809     1722.262      950.574        0.450        0.221       29.245       34.535        1.395      337.333        9.238      867.148
01/28/2014  09:07:00       59.039      -21.213       12.948       35.675       37.535       31.770     1272.686     1408.887     1009.364        0.390        0.185       62.734       33.296        0.282      337.304        9.187      867.116
01/28/2014  09:08:00       45.762       26.469       24.584       47.070       49.704       24.589     2215.588     2470.496      604.621        0.434        0.265       52.865       19.078        0.130      337.327        9.227      867.104
01/28/2014  09:09:00       -6.920      -38.926       14.522       22.068       28.103       25.224      486.985      789.780      636.239        0.184        0.096       39.536       17.567        0.197      337.443        9.419      867.106
01/28/2014  09:10:00      -13.564       41.083       49.479       32.228       36.524       27.304     1038.649     1334.002      745.496        0.372        0.156       43.264       26.499        0.375      337.450        9.430      867.117
01/28/2014  09:11:00       37.575      -30.767       18.650       43.327       83.076       41.104     1877.258     6901.614     1689.564        0.659        0.523       48.564       44.933        0.856      337.447        9.428      867.105
01/28/2014  09:12:00       41.618       -2.077       43.560       54.497       81.999       55.825     2969.977     6723.860     3116.406        0.822        0.641       41.670       61.004        2.143      337.434        9.405      867.101
01/28/2014  09:13:00       69.799       17.516       42.144       51.762       47.589       37.282     2679.266     2264.713     1389.915        0.664        0.317       71.963       36.731        0.261      337.304        9.188      867.107
01/28/2014  09:14:00       55.655       72.831       82.932       58.086       81.608       49.773     3373.941     6659.809     2477.335        1.389        0.626       91.661       40.912        0.199      337.307        9.194      867.119
01/28/2014  09:15:00       56.424       39.961       46.260       46.006       37.464       37.940     2116.568     1403.522     1439.477        0.594        0.248       69.142       29.373        0.180      337.233        9.068      867.168
01/28/2014  09:16:00       13.443      -48.886        8.127       30.143       47.640       25.069      908.608     2269.605      628.440        0.322        0.190       50.701       16.521        0.106      337.420        9.381      867.212
01/28/2014  09:17:00       31.445        9.925       40.869       54.814       48.963       29.928     3004.569     2397.419      895.676        0.453        0.315       32.974       33.377        1.025      337.361        9.283      867.262
01/28/2014  09:18:00       72.715       32.293       32.421       47.186       48.159       38.908     2226.517     2319.312     1513.818        0.672        0.303       79.563       38.484        0.234      337.169        8.963      867.313
01/28/2014  09:19:00       71.238       51.218       34.540       27.658       33.306       23.944      764.941     1109.276      573.311        0.567        0.122       87.739       12.185        0.019      337.117        8.874      867.336
01/28/2014  09:20:00       56.742       59.575       45.722       39.579       31.302       30.528     1566.484      979.809      931.938        0.617        0.174       82.273       25.751        0.098      337.219        9.048      867.345
01/28/2014  09:21:00       14.610       26.293       34.148       28.657       32.148       32.544      821.210     1033.498     1059.105        0.249        0.146       30.079       27.463        0.834      337.344        9.255      867.332
01/28/2014  09:22:00       -7.440       10.811       38.957       14.434       19.488       10.195      208.344      379.767      103.933        0.119        0.035       13.123        5.379        0.168      337.502        9.519      867.313
01/28/2014  09:23:00        1.979       31.956       46.859       20.159       27.832       20.967      406.404      774.633      439.629        0.242        0.081       32.018       18.519        0.335      337.444        9.421      867.306
01/28/2014  09:24:00       41.386       39.682       45.526       39.613       36.920       25.545     1569.177     1363.055      652.550        0.447        0.179       57.336       23.336        0.166      337.440        9.415      867.293
01/28/2014  09:25:00       70.617       85.585       77.059       49.606       40.075       31.066     2460.763     1605.972      965.091        1.164        0.252      110.958       21.023        0.036      337.202        9.017      867.288
01/28/2014  09:26:00       53.120       75.470       75.583       45.333       41.439       31.530     2055.097     1717.207      994.153        0.950        0.238       92.290       29.555        0.103      337.196        9.008      867.292
01/28/2014  09:27:00       70.600       72.538       66.526       34.663       35.493       31.353     1201.541     1259.749      983.033        0.906        0.172      101.223       21.274        0.044      337.203        9.019      867.274
01/28/2014  09:28:00       69.958       82.906       64.317       59.061       41.692       32.240     3488.161     1738.189     1039.429        1.108        0.313      108.478       27.725        0.065      337.195        9.006      867.235
01/28/2014  09:29:00       97.711       72.611       30.022       44.103       29.032       30.715     1945.101      842.875      943.384        0.973        0.187      121.737       25.113        0.043      337.194        9.004      867.206
01/28/2014  09:30:00       94.633       47.095       38.902       55.305       41.968       44.429     3058.659     1761.289     1973.917        0.974        0.340      105.704       42.380        0.161      337.239        9.079      867.196
01/28/2014  09:31:00       55.420       65.264       64.299       45.342       32.095       29.058     2055.853     1030.057      844.360        0.770        0.197       85.620       25.135        0.086      337.273        9.138      867.194
01/28/2014  09:32:00       58.477       80.338       65.036       61.878       34.108       39.184     3828.849     1163.332     1535.388        1.031        0.326       99.367       38.994        0.154      337.370        9.299      867.188
01/28/2014  09:33:00       59.810       72.655       65.870       52.954       41.395       33.433     2804.122     1713.560     1117.775        0.941        0.282       94.106       28.439        0.091      337.414        9.372      867.176
01/28/2014  09:34:00       64.721       52.081       27.983       30.012       27.614       30.516      900.732      762.533      931.240        0.514        0.130       83.074       18.082        0.047      337.364        9.287      867.177
01/28/2014  09:35:00       74.076       69.485       30.378       29.520       21.711       30.614      871.455      471.359      937.206        0.676        0.114      101.565       19.294        0.036      337.410        9.365      867.167
01/28/2014  09:36:00       90.094       43.748       56.807       45.737       40.118       37.952     2091.917     1609.431     1440.317        0.920        0.257      100.154       28.803        0.083      337.379        9.314      867.179
01/28/2014  09:37:00       57.325       52.396       59.263       46.574       38.824       31.531     2169.184     1507.310      994.225        0.711        0.234       77.663       19.394        0.062      337.402        9.350      867.221
01/28/2014  09:38:00       70.653       39.354       63.786       30.189       28.693       22.563      911.397      823.288      509.079        0.643        0.112       80.874       16.923        0.044      337.297        9.177      867.225
01/28/2014  09:39:00       39.419       48.084       59.828       55.920       41.891       37.357     3127.007     1754.845     1395.521        0.686        0.314       62.177       37.065        0.355      337.376        9.309      867.192
01/28/2014  09:40:00       83.788       44.216       55.717       59.733       40.548       36.111     3567.986     1644.160     1303.980        0.930        0.326       94.739       33.386        0.124      337.338        9.244      867.191
01/28/2014  09:41:00      123.019       57.033       11.637       61.079       50.710       41.910     3730.608     2571.502     1756.464        1.329        0.403      135.596       25.356        0.035      337.247        9.092      867.212
01/28/2014  09:42:00      107.913       54.042       15.417       50.443       54.277       39.408     2544.516     2945.997     1552.971        1.092        0.352      120.688       26.074        0.047      337.279        9.147      867.245
01/28/2014  09:43:00       68.625       62.835       22.866       53.825       37.174       43.171     2897.165     1381.918     1863.773        0.766        0.307       93.046       23.296        0.063      337.324        9.222      867.264
01/28/2014  09:44:00       77.293       56.426       15.880       51.025       45.482       24.329     2603.576     2068.629      591.906        0.734        0.263       95.698       25.866        0.073      337.392        9.337      867.291
01/28/2014  09:45:00      113.578       78.411       14.592       34.652       27.399       23.104     1200.778      750.730      533.782        1.087        0.124      138.015       15.580        0.013      337.345        9.257      867.308
01/28/2014  09:46:00      129.387       55.541        2.346       48.922       38.431       23.958     2393.321     1476.947      573.986        1.214        0.222      140.804       19.782        0.020      337.374        9.305      867.325
01/28/2014  09:47:00       79.281       46.062       12.536       48.041       32.036       27.231     2307.964     1026.280      741.528        0.632        0.204       91.691       11.601        0.016      337.367        9.293      867.339
01/28/2014  09:48:00      104.187       50.634       22.087       39.859       31.338       31.375     1588.740      982.099      984.414        0.873        0.178      115.840       26.173        0.051      337.325        9.223      867.335
01/28/2014  09:49:00       80.699       46.015       29.477       25.167       26.090       33.406      633.395      680.684     1115.987        0.596        0.122       92.896       17.317        0.035      337.391        9.334      867.363
01/28/2014  09:50:00       35.435       36.705       14.425       38.130       29.322       28.881     1453.860      859.800      834.131        0.298        0.157       51.018       11.162        0.048      337.453        9.435      867.398
01/28/2014  09:51:00       47.857       65.656       -4.511       38.670       34.999       21.467     1495.402     1224.925      460.827        0.490        0.159       81.247       17.661        0.047      337.469        9.462      867.408
01/28/2014  09:52:00       98.474       61.896       11.940       27.423       36.580       30.858      752.030     1338.133      952.223        0.836        0.152      116.311       17.846        0.024      337.484        9.490      867.428
01/28/2014  09:53:00       39.154       56.173       33.296       32.541       34.561       28.586     1058.930     1194.464      817.142        0.443        0.154       68.472       19.429        0.081      337.720        9.886      867.452
01/28/2014  09:54:00       68.266       63.373        1.847       60.072       41.472       38.101     3608.647     1719.947     1451.699        0.773        0.339       93.147       24.904        0.071      337.586        9.661      867.493
01/28/2014  09:55:00      130.356       94.000       19.849       49.866       24.421       27.782     2486.613      596.405      771.835        1.504        0.193      160.713       22.071        0.019      337.340        9.248      867.527
01/28/2014  09:56:00       24.215       84.033       69.946       40.955       39.177       36.067     1677.304     1534.827     1300.802        0.853        0.226       87.452       26.608        0.093      337.526        9.560      867.518
01/28/2014  09:57:00       81.775       50.876       22.306       65.144       30.159       37.436     4243.793      909.584     1401.474        0.816        0.328       96.309       37.275        0.150      337.616        9.708      867.505
01/28/2014  09:58:00      129.560       83.169        1.770       33.440       31.000       31.413     1118.220      961.025      986.753        1.339        0.153      153.957       13.285        0.007      337.359        9.281      867.525
01/28/2014  09:59:00       97.541       54.622        0.565       39.267       31.200       30.090     1541.932      973.414      905.432        0.796        0.171      111.794       16.648        0.022      337.445        9.424      867.541
01/28/2014  10:00:00       92.431       51.429       18.032       48.605       33.051       22.135     2362.416     1092.339      489.953        0.773        0.197      105.776       22.689        0.046      337.427        9.393      867.554
01/28/2014  10:01:00       68.812       43.415       23.646       37.122       27.141       20.904     1378.042      736.639      436.973        0.486        0.128       81.363       20.577        0.064      337.552        9.604      867.555
01/28/2014  10:02:00       67.262       56.925       15.761       29.265       23.001       24.017      856.469      529.036      576.812        0.499        0.098       88.118       14.073        0.026      337.575        9.642      867.560
01/28/2014  10:03:00       52.816       43.421       10.524       42.345       44.219       24.736     1793.105     1955.343      611.877        0.457        0.218       68.373       19.788        0.084      337.701        9.852      867.574
01/28/2014  10:04:00       66.264       64.076       27.684       41.967       37.538       30.270     1761.199     1409.066      916.258        0.667        0.204       92.177       25.773        0.078      337.759        9.950      867.576
01/28/2014  10:05:00       50.070       47.684        6.637       42.154       30.887       24.637     1776.924      953.978      606.971        0.408        0.167       69.143        6.340        0.008      337.739        9.914      867.596
01/28/2014  10:06:00       77.313       63.757       14.295       51.684       33.438       37.784     2671.232     1118.083     1427.604        0.773        0.261      100.211       25.645        0.065      337.567        9.627      867.604
01/28/2014  10:07:00      100.093       83.265       15.053       46.535       38.898       38.920     2165.540     1513.016     1514.775        1.118        0.260      130.199       17.965        0.019      337.580        9.650      867.595
01/28/2014  10:08:00      108.525       86.751       13.140       54.234       47.627       38.660     2941.363     2268.320     1494.582        1.309        0.335      138.937       21.905        0.025      337.547        9.596      867.609
01/28/2014  10:09:00       68.037       69.201       -4.854       34.112       28.083       25.813     1163.602      788.630      666.329        0.603        0.131       97.045       18.096        0.035      337.582        9.653      867.609
01/28/2014  10:10:00       89.033       43.566       46.108       49.799       40.121       37.442     2479.988     1609.713     1401.906        0.872        0.275       99.120       20.829        0.044      337.625        9.725      867.619
01/28/2014  10:11:00       91.297       47.019       17.482       30.125       31.395       28.813      907.509      985.675      830.165        0.679        0.136      102.693       19.777        0.037      337.508        9.529      867.647
01/28/2014  10:12:00       54.746       42.329       32.313       50.752       33.850       30.611     2575.801     1145.795      937.022        0.524        0.233       69.201       36.156        0.273      337.691        9.835      867.663
01/28/2014  10:13:00      133.216       97.437       39.151       31.903       25.843       27.124     1017.830      667.868      735.695        1.560        0.121      165.047       16.907        0.010      337.594        9.673      867.690
01/28/2014  10:14:00       75.347       46.011       25.992       37.602       32.072       26.639     1413.928     1028.621      709.618        0.581        0.158       88.285       18.503        0.044      337.727        9.898      867.695
01/28/2014  10:15:00       54.946       37.847        8.495       42.439       45.564       28.959     1801.082     2076.100      838.604        0.462        0.236       66.719       20.278        0.092      337.780        9.985      867.691
01/28/2014  10:16:00      102.621       53.326        6.099       34.443       30.097       30.935     1186.316      905.821      956.976        0.823        0.152      115.649       12.367        0.011      337.656        9.777      867.696
01/28/2014  10:17:00       97.847       57.040        7.330       31.912       27.111       23.126     1018.358      735.031      534.800        0.758        0.114      113.258       11.174        0.010      337.623        9.721      867.696
01/28/2014  10:18:00      105.251       53.797       36.134       58.438       45.841       36.134     3414.992     2101.366     1305.685        1.105        0.341      118.203       34.824        0.087      337.726        9.896      867.709
01/28/2014  10:19:00       49.054       32.739       47.678       54.360       31.891       38.749     2955.002     1017.035     1501.448        0.561        0.274       58.976       24.761        0.176      337.896       10.181      867.684
01/28/2014  10:20:00       61.433       38.154       22.498       45.186       41.463       39.468     2041.763     1719.197     1557.753        0.553        0.266       72.316       27.535        0.145      337.749        9.933      867.669
01/28/2014  10:21:00       50.714       19.217       14.889       39.031       21.551       27.109     1523.416      464.449      734.894        0.294        0.136       54.233       13.889        0.066      337.788        9.999      867.678
01/28/2014  10:22:00       -2.217        9.377       15.433       10.908       16.366       15.068      118.983      267.859      227.041        0.047        0.031        9.635        7.123        0.547      338.204       10.696      867.687
01/28/2014  10:23:00       71.739       54.953        4.945       51.271       30.660       24.386     2628.712      940.057      594.701        0.618        0.208       90.368       20.678        0.052      337.816       10.046      867.700
01/28/2014  10:24:00       75.842       48.708       40.858       52.398       34.410       33.341     2745.548     1184.034     1111.602        0.742        0.252       90.136       23.980        0.071      337.832       10.072      867.707
01/28/2014  10:25:00       36.524       46.324       54.070       48.398       35.347       30.429     2342.322     1249.424      925.895        0.546        0.226       58.991       30.161        0.261      338.093       10.510      867.721
01/28/2014  10:26:00      130.147       91.553        8.352       44.006       31.075       36.798     1936.492      965.685     1354.082        1.482        0.213      159.124       25.159        0.025      337.707        9.864      867.722
01/28/2014  10:27:00      126.804       83.275        9.165       34.184       29.300       29.753     1168.550      858.480      885.234        1.300        0.146      151.703       22.623        0.022      337.612        9.705      867.708
01/28/2014  10:28:00       59.086       50.521       -4.289       29.118       25.187       20.357      847.881      634.379      414.409        0.398        0.095       77.740       13.581        0.031      337.695        9.842      867.708
01/28/2014  10:29:00       98.957       63.309        2.898       41.192       32.193       27.788     1696.771     1036.420      772.187        0.866        0.175      117.476       21.454        0.033      337.752        9.939      867.720
01/28/2014  10:30:00       77.524       50.663       -7.356       30.969       26.452       19.795      959.050      699.691      391.851        0.534        0.103       92.611       16.627        0.032      337.685        9.825      867.744
01/28/2014  10:31:00       63.866       48.024        9.768       33.167       26.201       25.564     1100.026      686.499      653.498        0.446        0.122       79.908        9.833        0.015      337.704        9.858      867.736
01/28/2014  10:32:00       64.967       37.182       15.944       35.941       22.184       30.436     1291.767      492.134      926.337        0.428        0.136       74.855       15.416        0.042      337.839       10.086      867.717
01/28/2014  10:33:00       25.276        7.642        8.377       27.551       22.027       22.944      759.032      485.171      526.423        0.127        0.089       26.406       13.284        0.253      337.995       10.345      867.689
01/28/2014  10:34:00       10.963        6.272       20.313       28.498       34.923       18.842      812.149     1219.631      355.038        0.148        0.119       12.631        9.549        0.572      338.111       10.541      867.684
01/28/2014  10:35:00       12.186       17.346        7.578       19.389       24.252       17.065      375.915      588.159      291.199        0.088        0.063       21.199       10.255        0.234      338.141       10.592      867.687
01/28/2014  10:36:00       40.109       41.080       38.017       48.127       26.017       39.100     2316.225      676.882     1528.801        0.463        0.226       57.413       12.719        0.049      338.106       10.531      867.695
01/28/2014  10:37:00       56.608       69.667       52.426       46.750       48.767       40.172     2185.605     2378.201     1613.819        0.849        0.309       89.766       38.581        0.185      337.998       10.351      867.690
01/28/2014  10:38:00       59.958       58.243       53.872       58.451       42.850       44.610     3416.482     1836.125     1990.011        0.856        0.362       83.589       30.763        0.135      337.941       10.257      867.675
01/28/2014  10:39:00       12.723       21.151       68.727       38.475       63.982       38.737     1480.352     4093.693     1500.538        0.620        0.354       24.683       39.637        2.579      338.282       10.828      867.670
01/28/2014  10:40:00       55.574       75.295       60.355       39.042       38.316       59.128     1524.279     1468.084     3496.083        0.944        0.324       93.583       29.534        0.100      337.939       10.253      867.685
01/28/2014  10:41:00       66.677       80.429       77.654       48.984       39.704       29.357     2399.475     1576.417      861.812        1.089        0.242      104.473       17.588        0.028      337.961       10.288      867.702
01/28/2014  10:42:00      120.302       67.178       45.738       54.037       52.142       49.755     2920.014     2718.789     2475.587        1.459        0.406      137.787       37.614        0.075      337.795       10.011      867.692
01/28/2014  10:43:00       81.824       39.883       50.892       41.974       44.826       39.306     1761.783     2009.331     1544.988        0.810        0.266       91.026       31.273        0.118      337.897       10.182      867.709
01/28/2014  10:44:00       35.374       94.784       82.257       48.191       35.877       41.849     2322.344     1287.182     1751.333        1.118        0.268      101.170       36.323        0.129      337.865       10.128      867.718
01/28/2014  10:45:00       47.536      103.948       96.436       29.617       44.402       25.606      877.174     1971.557      655.671        1.293        0.175      114.301       24.923        0.048      337.796       10.011      867.741
01/28/2014  10:46:00       40.989      -24.369       32.946       40.981       59.885       31.579     1679.413     3586.221      997.244        0.481        0.313       47.686       35.234        0.546      338.059       10.454      867.755
01/28/2014  10:47:00       67.443      -22.056       45.891       47.997       88.428       50.047     2303.703     7819.460     2504.720        0.988        0.631       70.957       57.624        0.660      338.198       10.686      867.755
01/28/2014  10:48:00       16.210      -10.616       26.610       28.283       42.912       34.975      799.940     1841.480     1223.257        0.247        0.193       19.377       32.571        2.826      338.099       10.521      867.772
01/28/2014  10:49:00       26.506      -26.648       23.013       42.361       42.217       18.725     1794.426     1782.278      350.621        0.293        0.196       37.586       23.194        0.381      338.220       10.723      867.758
01/28/2014  10:50:00       72.158       53.739       29.304       52.505       39.139       35.432     2756.811     1531.862     1255.398        0.725        0.277       89.971       28.059        0.097      338.186       10.667      867.769
01/28/2014  10:51:00       95.657       87.697       66.402       68.704       50.512       54.790     4720.237     2551.485     3001.897        1.576        0.514      129.773       42.405        0.107      338.052       10.440      867.751
01/28/2014  10:52:00       94.811       30.440       35.196       80.216       44.211       49.161     6434.628     1954.631     2416.816        1.098        0.540       99.577       47.436        0.227      338.071       10.473      867.750
01/28/2014  10:53:00      139.273       65.647       12.520       28.865       38.572       28.950      833.168     1487.831      838.117        1.351        0.158      153.969       21.416        0.019      337.812       10.039      867.749
01/28/2014  10:54:00       77.474       51.114        7.552       32.351       39.800       30.091     1046.585     1584.035      905.482        0.610        0.177       92.816       19.346        0.043      337.946       10.264      867.725
01/28/2014  10:55:00       63.506       60.945       62.725       55.141       55.853       49.246     3040.538     3119.606     2425.150        1.013        0.429       88.019       44.550        0.256      338.018       10.385      867.695
01/28/2014  10:56:00       85.134       43.533       53.623       34.254       57.350       37.593     1173.341     3289.042     1413.213        0.895        0.294       95.619       43.065        0.203      337.945       10.264      867.665
01/28/2014  10:57:00      110.367       76.437       31.820       48.809       32.308       38.061     2382.272     1043.798     1448.647        1.195        0.244      134.251       26.047        0.038      337.956       10.281      867.638
01/28/2014  10:58:00       65.832       85.725       90.774       57.060       51.759       36.789     3255.848     2678.956     1353.426        1.360        0.364      108.086       36.590        0.115      338.050       10.437      867.598
01/28/2014  10:59:00      123.878       69.554       31.110       43.964       43.737       40.375     1932.830     1912.883     1630.105        1.331        0.274      142.068       25.369        0.032      337.975       10.312      867.577
01/28/2014  11:00:00      111.390       54.570       -1.959       31.991       40.789       21.935     1023.396     1663.759      481.141        0.928        0.158      124.039       15.512        0.016      337.904       10.193      867.576
01/28/2014  11:01:00       47.455       40.382       11.523       31.661       36.879       25.171     1002.388     1360.095      633.568        0.351        0.150       62.311       21.724        0.122      338.048       10.435      867.554
01/28/2014  11:02:00       31.335       44.352        9.541       41.934       34.076       29.281     1758.433     1161.165      857.375        0.341        0.189       54.304       22.730        0.175      338.106       10.532      867.539
01/28/2014  11:03:00       72.190       49.973       22.276       35.244       34.447       33.327     1242.108     1186.611     1110.675        0.587        0.177       87.799       24.443        0.078      338.194       10.679      867.516
01/28/2014  11:04:00       30.833       -0.026       43.611       53.357       48.127       43.354     2846.993     2316.234     1879.590        0.495        0.352       30.833       36.312        1.387      338.402       11.029      867.494
01/28/2014  11:05:00       38.196       20.619       66.461       44.437       67.778       36.935     1974.605     4593.806     1364.189        0.712        0.397       43.405       34.113        0.618      338.289       10.838      867.492
01/28/2014  11:06:00       81.861       48.909       27.052       30.979       38.455       24.380      959.728     1478.760      594.386        0.643        0.152       95.359       15.995        0.028      338.049       10.437      867.487
01/28/2014  11:07:00       26.805       33.185       55.489       40.488       45.904       30.886     1639.241     2107.212      953.943        0.480        0.235       42.658       33.527        0.618      338.441       11.095      867.489
01/28/2014  11:08:00       17.760      -43.608       12.780       33.323       52.894       37.420     1110.447     2797.796     1400.238        0.384        0.265       47.085       17.413        0.137      338.515       11.219      867.499
01/28/2014  11:09:00       -0.677       -6.377       33.484       19.925       25.291       15.207      396.999      639.654      231.242        0.121        0.063        6.413       13.141        4.199      338.857       11.793      867.489
01/28/2014  11:10:00       -4.979      -11.191       19.305       14.736       21.710       17.804      217.147      471.329      316.968        0.076        0.050       12.249       14.419        1.386      339.051       12.120      867.486
01/28/2014  11:11:00       -9.068       12.737       13.875       12.886       16.987       20.728      166.038      288.572      429.636        0.066        0.044       15.635        6.767        0.187      338.974       11.990      867.479
01/28/2014  11:12:00       -3.599       44.207       -3.660       21.819       21.118       20.053      476.083      445.968      402.142        0.165        0.066       44.354       17.889        0.163      338.672       11.482      867.490
01/28/2014  11:13:00       13.423       27.501        1.452       23.709       31.248       18.134      562.098      976.467      328.835        0.140        0.093       30.602       17.060        0.311      338.550       11.278      867.489
01/28/2014  11:14:00       28.204       81.436       -3.786       36.432       36.506       26.084     1327.268     1332.703      680.379        0.539        0.167       86.181       23.387        0.074      338.286       10.834      867.484
01/28/2014  11:15:00        7.051       68.684       -9.957       17.687       36.400       14.694      312.832     1324.961      215.922        0.336        0.093       69.045       17.470        0.064      338.235       10.749      867.490
01/28/2014  11:16:00       37.885       31.863       20.673       37.147       19.363       25.224     1379.871      374.928      636.235        0.263        0.120       49.503       12.302        0.062      338.441       11.094      867.495
01/28/2014  11:17:00       -8.615      116.108       -7.080       36.090       42.549       25.024     1302.495     1810.398      626.184        0.867        0.187      116.427       27.957        0.058      338.321       10.893      867.504
01/28/2014  11:18:00        8.180       53.471        2.641       14.697       50.345       24.231      216.010     2534.657      587.121        0.313        0.167       54.093       32.255        0.356      338.562       11.299      867.508
01/28/2014  11:19:00       -8.637       30.805       -2.971       15.150       27.429       21.025      229.525      752.356      442.051        0.123        0.071       31.993       15.308        0.229      338.551       11.280      867.522
01/28/2014  11:20:00       31.988       46.666        5.599       29.310       35.184       25.100      859.077     1237.916      630.006        0.298        0.136       56.577       10.628        0.035      338.659       11.461      867.527
01/28/2014  11:21:00       69.273       54.046       14.509       25.878       21.080       25.032      669.693      444.367      626.613        0.484        0.087       87.862       14.380        0.027      338.427       11.072      867.529
01/28/2014  11:22:00       29.757       26.401        9.684       28.318       19.282       19.993      801.928      371.789      399.734        0.162        0.079       39.781       13.872        0.122      338.607       11.373      867.525
01/28/2014  11:23:00      -17.430       99.672      -13.835       35.728       25.480       15.639     1276.471      649.243      244.565        0.630        0.109      101.185       14.339        0.020      338.354       10.949      867.516
01/28/2014  11:24:00        6.181       22.829       -2.849       19.707       32.084       18.529      388.354     1029.411      343.341        0.116        0.088       23.651        7.237        0.094      338.497       11.190      867.476
01/28/2014  11:25:00      -16.627       70.393      -12.005       22.594       26.383       16.292      510.501      696.060      265.415        0.342        0.074       72.331        7.182        0.010      338.350       10.942      867.437
01/28/2014  11:26:00      -57.290       14.455      -19.222       15.562       29.438       14.290      242.176      866.614      204.216        0.259        0.066       59.085       13.056        0.049      338.349       10.940      867.393
01/28/2014  11:27:00      -47.231       15.733       -6.519       32.834       24.265       16.383     1078.090      588.798      268.396        0.223        0.097       49.783       18.730        0.142      338.352       10.946      867.373
01/28/2014  11:28:00      -40.241       75.871       -7.263       21.842       36.886       25.594      477.063     1360.610      655.057        0.496        0.125       85.882       17.428        0.041      338.466       11.135      867.341
01/28/2014  11:29:00      -55.867       10.808      -17.618       13.216       16.328       17.520      174.672      266.609      306.943        0.215        0.037       56.903        7.115        0.016      338.418       11.056      867.327
01/28/2014  11:30:00       -8.697       18.609       12.457       30.905       16.538       19.815      955.139      273.492      392.643        0.110        0.081       20.541       21.924        1.139      338.804       11.705      867.312
01/28/2014  11:31:00       46.037       18.022      -10.710       13.921       24.644       22.076      193.804      607.318      487.342        0.192        0.064       49.439       15.352        0.096      338.529       11.243      867.315
01/28/2014  11:32:00       23.844       33.397       -3.072       23.311       29.158       20.927      543.394      850.166      437.958        0.176        0.092       41.035       10.921        0.071      338.795       11.689      867.275
01/28/2014  11:33:00       35.318       21.932        1.431       24.984       24.598       24.200      624.204      605.068      585.622        0.177        0.091       41.574       13.992        0.113      338.747       11.609      867.239
01/28/2014  11:34:00       -3.115       40.698       -0.673       20.213       26.531       22.172      408.553      703.875      491.588        0.163        0.080       40.817       18.819        0.213      339.173       12.326      867.209
01/28/2014  11:35:00        6.198       54.505       -2.097       26.670       31.453       23.693      711.290      989.272      561.363        0.264        0.113       54.856       17.673        0.104      339.129       12.252      867.179
01/28/2014  11:36:00       46.983       21.142       35.462       33.525       46.593       39.155     1123.898     2170.907     1533.124        0.437        0.241       51.521       35.878        0.485      339.134       12.259      867.146
01/28/2014  11:37:00      -13.470      -33.988       40.779       41.872       65.014       40.026     1753.249     4226.789     1602.078        0.529        0.379       36.560       38.231        1.093      339.232       12.425      867.091
01/28/2014  11:38:00      -14.507      -13.911       24.827       33.811       44.551       37.602     1143.195     1984.813     1413.931        0.278        0.227       20.099       31.464        2.451      339.420       12.741      867.068
01/28/2014  11:39:00       -6.004      -18.917       15.398       16.888       38.903       27.008      285.205     1513.456      729.441        0.158        0.126       19.847       27.340        1.898      339.603       13.050      867.040
01/28/2014  11:40:00      -11.504      -42.953       19.033       36.969       46.542       39.078     1366.734     2166.182     1527.076        0.370        0.253       44.467       28.394        0.408      339.425       12.748      867.014
01/28/2014  11:41:00       28.944     -122.805      -24.872       64.966       50.938       38.894     4220.624     2594.719     1512.765        1.243        0.416      126.170       36.976        0.086      338.861       11.801      866.992
01/28/2014  11:42:00       -4.601      -65.299        9.204       68.257       39.768       34.046     4659.080     1581.517     1159.099        0.588        0.370       65.460       23.431        0.128      338.942       11.936      866.965
01/28/2014  11:43:00       11.856        0.248       28.209       23.921       42.273       26.191      572.221     1787.013      685.956        0.199        0.152       11.859       18.845        2.525      339.467       12.820      866.954
01/28/2014  11:44:00       44.598      -44.926       26.790       59.972       77.243       50.234     3596.613     5966.427     2523.430        0.840        0.604       63.304       60.267        0.906      338.946       11.943      866.955
01/28/2014  11:45:00       63.227     -103.377      -12.573       45.311       28.190       21.914     2053.078      794.683      480.225        0.908        0.166      121.179       17.997        0.022      338.568       11.308      866.960
01/28/2014  11:46:00       54.361      -77.588        9.426       35.628       68.958       41.453     1269.344     4755.272     1718.363        0.840        0.387       94.736       34.592        0.133      338.834       11.755      866.942
01/28/2014  11:47:00       61.877        9.331       26.181       30.823       30.487       29.194      950.081      929.481      852.299        0.367        0.137       62.577       19.504        0.097      338.965       11.975      866.951
01/28/2014  11:48:00       39.977       50.031       55.512       42.008       50.471       33.138     1764.711     2547.370     1098.152        0.630        0.271       64.041       35.293        0.304      339.039       12.099      866.943
01/28/2014  11:49:00       26.059       28.668       60.225       51.818       50.202       41.572     2685.116     2520.282     1728.210        0.603        0.347       38.742       41.616        1.154      339.206       12.380      866.931
01/28/2014  11:50:00       56.590      -78.312       13.734       66.933       52.400       42.847     4479.970     2745.742     1835.855        0.929        0.453       96.619       33.806        0.122      338.947       11.944      866.928
01/28/2014  11:51:00        6.336      -55.083        4.555       60.225       73.869       58.826     3627.082     5456.645     3460.496        0.782        0.627       55.446       51.047        0.848      339.011       12.053      866.910
01/28/2014  11:52:00       50.885     -104.316      -19.103       52.925       50.806       30.101     2801.061     2581.248      906.069        1.006        0.314      116.065       31.347        0.073      338.969       11.981      866.902
01/28/2014  11:53:00       -8.111       19.031       38.870       25.866       41.489       34.745      669.067     1721.350     1207.222        0.277        0.180       20.687       30.580        2.185      339.269       12.486      866.882
01/28/2014  11:54:00      -12.302       16.815        8.422       25.531       24.126       18.891      651.845      582.072      356.867        0.105        0.080       20.835        7.851        0.142      339.169       12.317      866.851
01/28/2014  11:55:00       51.699       36.647        9.470       32.622       43.969       25.653     1064.218     1933.284      658.058        0.388        0.183       63.371       21.908        0.120      339.126       12.246      866.815
01/28/2014  11:56:00       44.771       80.827       90.362       74.322       56.089       39.710     5523.690     3145.932     1576.920        1.347        0.512       92.398       37.804        0.167      339.099       12.201      866.772
01/28/2014  11:57:00      142.120       78.079       45.660       47.640       40.000       36.852     2269.566     1600.008     1358.092        1.680        0.261      162.156       22.532        0.019      338.706       11.539      866.748
01/28/2014  11:58:00      127.634       29.389       30.553       66.569       45.287       41.802     4431.413     2050.890     1747.419        1.316        0.411      130.974       38.017        0.084      338.735       11.587      866.724
01/28/2014  11:59:00       39.208      113.452      108.894       52.862       50.439       37.209     2794.358     2544.121     1384.499        1.649        0.336      120.036       38.532        0.103      338.811       11.715      866.713
01/28/2014  12:00:00       90.406       51.662       40.805       32.529       37.535       34.883     1058.110     1408.886     1216.821        0.809        0.184      104.126       20.342        0.038      338.683       11.502      866.678
01/28/2014  12:01:00       94.347       83.369       55.380       57.114       36.809       47.224     3262.019     1354.923     2230.126        1.288        0.342      125.904       40.181        0.102      338.740       11.597      866.642
01/28/2014  12:02:00      138.522       61.609       48.353       60.377       32.132       43.902     3645.386     1032.465     1927.401        1.596        0.330      151.605       21.052        0.019      338.735       11.588      866.615
01/28/2014  12:03:00      109.712       61.787       35.146       44.409       35.535       37.556     1972.131     1262.708     1410.441        1.087        0.232      125.914       20.038        0.025      338.816       11.724      866.611
01/28/2014  12:04:00      116.215       94.795       57.010       53.215       45.833       44.342     2831.795     2100.646     1966.205        1.632        0.345      149.973       35.289        0.055      338.961       11.968      866.596
01/28/2014  12:05:00       54.496       76.729       75.275       42.644       30.515       26.653     1818.491      931.146      710.361        0.899        0.173       94.113       15.448        0.027      339.006       12.045      866.589
01/28/2014  12:06:00       23.756       60.909       75.478       33.270       37.514       30.460     1106.891     1407.308      927.828        0.671        0.172       65.378       27.480        0.177      339.084       12.177      866.556
01/28/2014  12:07:00       57.594      -78.272       16.629       39.879       83.021       41.816     1590.362     6892.444     1748.539        0.997        0.512       97.178       52.685        0.294      338.997       12.028      866.524
01/28/2014  12:08:00       50.648      -55.770       20.416       63.880       71.609       51.468     4080.598     5127.820     2648.934        0.897        0.593       75.335       49.644        0.434      339.167       12.314      866.517
01/28/2014  12:09:00       67.125      -23.053       20.182       48.325       54.790       36.841     2335.276     3001.933     1357.275        0.607        0.335       70.973       22.442        0.100      339.062       12.139      866.533
01/28/2014  12:10:00      116.672       86.705       57.879       72.856       43.360       38.359     5308.062     1880.048     1471.411        1.657        0.433      145.362       22.064        0.023      338.900       11.865      866.533
01/28/2014  12:11:00       64.269      112.648      119.300       58.531       57.917       37.243     3425.856     3354.383     1387.030        1.961        0.408      129.692       28.171        0.047      338.896       11.858      866.516
01/28/2014  12:12:00       55.426       82.176       93.587       51.908       43.067       33.524     2694.409     1854.755     1123.873        1.213        0.284       99.121       29.942        0.091      338.850       11.782      866.515
01/28/2014  12:13:00      110.355       92.159       56.658       29.997       31.907       32.505      899.836     1018.069     1056.550        1.343        0.149      143.776       19.683        0.019      338.702       11.533      866.515
01/28/2014  12:14:00       37.124       22.372       36.459       35.954       26.857       25.997     1292.722      721.273      675.847        0.295        0.134       43.344        9.532        0.048      338.924       11.906      866.523
01/28/2014  12:15:00       85.070       43.282       54.223       59.770       58.156       42.079     3572.498     3382.076     1770.649        1.039        0.436       95.448       38.479        0.163      338.967       11.978      866.526
01/28/2014  12:16:00       64.844       66.640       50.767       83.797       45.714       50.230     7021.957     2089.811     2523.059        1.143        0.582       92.982       51.423        0.306      339.072       12.154      866.516
01/28/2014  12:17:00      116.410       80.144       13.085       61.972       34.505       36.144     3840.554     1190.567     1306.369        1.324        0.317      141.331       27.949        0.039      338.765       11.639      866.520
01/28/2014  12:18:00       81.446       68.830       15.587       38.474       32.911       25.605     1480.235     1083.103      655.618        0.742        0.161      106.635       17.320        0.026      338.766       11.641      866.497
01/28/2014  12:19:00       25.102       57.299       -3.107       37.361       32.719       24.232     1395.877     1070.544      587.200        0.349        0.153       62.556       20.369        0.106      338.891       11.850      866.474
01/28/2014  12:20:00       47.546       18.792       13.579       37.827       30.535       29.525     1430.881      932.408      871.740        0.302        0.162       51.125       20.975        0.168      339.057       12.130      866.449
01/28/2014  12:21:00      -10.204       52.309       70.063       31.611       49.184       42.127      999.255     2419.103     1774.704        0.647        0.260       53.295       37.649        0.499      339.294       12.529      866.419
01/28/2014  12:22:00       37.750       97.835       90.921       27.512       28.512       23.006      756.908      812.940      529.288        1.068        0.105      104.866       16.451        0.025      338.948       11.947      866.397
01/28/2014  12:23:00       75.720       71.732       48.485       31.119       27.685       37.026      968.362      766.471     1370.946        0.817        0.155      104.303       27.503        0.070      338.919       11.896      866.381
01/28/2014  12:24:00       47.844      -21.771       34.394       45.935       79.771       52.883     2110.068     6363.357     2796.650        0.761        0.564       52.565       47.120        0.804      339.015       12.059      866.368
01/28/2014  12:25:00       26.236       17.418       51.892       29.861       43.959       28.149      891.669     1932.377      792.375        0.365        0.181       31.491       27.841        0.782      339.335       12.598      866.324
01/28/2014  12:26:00      -10.694      -27.792       22.991       41.503       72.818       40.250     1722.491     5302.419     1620.092        0.503        0.432       29.778       40.568        1.856      339.331       12.591      866.286
01/28/2014  12:27:00       21.183      -51.809       20.377       24.431       53.613       23.140      596.893     2874.353      535.452        0.378        0.200       55.972       25.833        0.213      339.259       12.470      866.248
01/28/2014  12:28:00        4.503        9.825       22.691       19.813       21.565       17.317      392.566      465.028      299.863        0.089        0.058       10.807       12.993        1.445      339.543       12.948      866.217
01/28/2014  12:29:00       91.003      -52.976       -5.258       51.839       51.790       27.365     2687.278     2682.219      748.858        0.862        0.306      105.300       32.640        0.096      339.014       12.056      866.190
01/28/2014  12:30:00       54.768       88.641       96.619       44.106       49.981       43.856     1945.341     2498.068     1923.347        1.328        0.318      104.196       35.089        0.113      339.225       12.413      866.154
01/28/2014  12:31:00       51.328      -31.067       36.097       53.906      102.192       52.486     2905.868    10443.192     2754.765        1.050        0.805       59.998       60.661        1.022      339.383       12.679      866.125
01/28/2014  12:32:00       25.139      -73.208       33.612       52.094       69.495       42.250     2713.783     4829.618     1785.043        0.822        0.466       77.404       35.008        0.205      339.476       12.834      866.106
01/28/2014  12:33:00       52.186      -25.980       25.052       37.962       31.811       29.834     1441.100     1011.964      890.057        0.368        0.167       58.295       17.961        0.095      339.472       12.830      866.109
01/28/2014  12:34:00       34.992       20.151        6.993       20.546       35.066       31.039      422.147     1229.638      963.396        0.215        0.131       40.379       23.980        0.353      339.318       12.568      866.107
01/28/2014  12:35:00        8.617      -12.079       36.108       28.748       50.526       28.366      826.469     2552.862      804.640        0.285        0.209       14.838       28.507        3.691      339.810       13.397      866.082
01/28/2014  12:36:00       63.681      -65.457       17.252       54.633       76.205       31.692     2984.715     5807.240     1004.413        0.922        0.490       91.323       44.495        0.237      339.375       12.665      866.050
01/28/2014  12:37:00        4.690       27.498       57.413       25.042       46.567       29.222      627.086     2168.475      853.954        0.386        0.182       27.896       25.692        0.848      339.748       13.293      866.027
01/28/2014  12:38:00       78.320       61.676       37.358       70.539       42.494       44.452     4975.707     1805.698     1975.987        1.004        0.438       99.689       38.757        0.151      339.475       12.832      866.021
01/28/2014  12:39:00       87.569       55.692       24.911       67.658       51.012       42.017     4577.655     2602.232     1765.424        1.017        0.447      103.779       38.823        0.140      339.365       12.650      866.007
01/28/2014  12:40:00      137.030       85.972        0.658       42.952       30.459       29.180     1844.892      927.751      851.459        1.490        0.181      161.766        7.052        0.002      339.193       12.358      865.968
01/28/2014  12:41:00       14.130       69.350       59.473       56.138       42.736       40.871     3151.518     1826.337     1670.451        0.760        0.332       70.774       31.738        0.201      339.357       12.635      865.952
01/28/2014  12:42:00       37.249      -11.047       23.497       33.938       69.732       29.952     1151.799     4862.552      897.098        0.449        0.346       38.852       23.131        0.354      339.473       12.830      865.940
01/28/2014  12:43:00       28.358      -11.668       41.057       40.565       68.288       35.813     1645.551     4663.212     1282.557        0.511        0.380       30.664       38.454        1.573      339.594       13.035      865.920
01/28/2014  12:44:00       78.484       81.976       74.399       77.315       57.944       68.362     5977.537     3357.549     4673.371        1.621        0.700      113.489       56.775        0.250      339.322       12.575      865.938
01/28/2014  12:45:00       78.085       73.558       49.285       28.517       32.981       42.662      813.200     1087.762     1820.086        0.883        0.186      107.275       17.355        0.026      339.114       12.225      865.981
01/28/2014  12:46:00       48.882       41.491        8.660       16.135       12.913       18.185      260.333      166.748      330.711        0.247        0.038       64.117        7.325        0.013      339.035       12.093      865.991
01/28/2014  12:47:00       11.647       21.993       -5.877       29.606       40.865       17.418      876.511     1669.956      303.393        0.175        0.142       24.887       13.860        0.310      339.224       12.411      865.993
01/28/2014  12:48:00      -64.304       -6.914       -1.933       25.711       28.244       18.523      661.056      797.731      343.101        0.299        0.090       64.675       15.533        0.058      339.222       12.408      865.990
01/28/2014  12:49:00      -42.138        5.236       -1.951       20.028       19.881       11.961      401.104      395.236      143.064        0.137        0.047       42.462        3.993        0.009      339.307       12.550      865.976
01/28/2014  12:50:00        9.176      -81.377        8.278       50.115       49.604       32.668     2511.499     2460.580     1067.206        0.641        0.302       81.893       22.524        0.076      339.681       13.181      865.961
01/28/2014  12:51:00      -13.800       13.059       31.698       21.611       43.442       28.774      467.046     1887.198      827.949        0.227        0.159       18.999       10.767        0.321      339.903       13.555      865.949
01/28/2014  12:52:00       11.466      -12.782       47.119       30.138       47.602       28.874      908.317     2265.986      833.717        0.326        0.200       17.171       30.868        3.232      339.818       13.412      865.919
01/28/2014  12:53:00       15.632       -4.659       29.774       19.399       38.494       22.006      376.305     1481.788      484.275        0.175        0.117       16.311       25.277        2.401      339.784       13.355      865.877
01/28/2014  12:54:00       60.880       77.066       63.109       51.537       34.263       35.743     2656.113     1173.953     1277.556        0.937        0.255       98.212       33.404        0.116      339.508       12.889      865.850
01/28/2014  12:55:00       68.189       79.402       63.690       62.165       37.847       40.018     3864.512     1432.372     1601.480        1.095        0.345      104.663       39.580        0.143      339.483       12.847      865.822
01/28/2014  12:56:00       69.562       84.358       54.306       47.122       32.562       50.472     2220.496     1060.316     2547.425        1.037        0.291      109.340       38.168        0.122      339.300       12.540      865.803
01/28/2014  12:57:00       86.834       50.128       58.825       50.535       48.240       53.574     2553.822     2327.050     2870.210        1.063        0.388      100.264       39.918        0.159      339.380       12.672      865.778
01/28/2014  12:58:00      114.324      110.059       66.770       76.135       49.493       57.017     5796.486     2449.589     3250.898        2.057        0.575      158.691       53.301        0.113      339.381       12.674      865.739
01/28/2014  12:59:00       60.759       47.088       56.436       49.949       41.876       41.751     2494.933     1753.567     1743.127        0.754        0.300       76.870       28.173        0.134      339.670       13.164      865.707
01/28/2014  13:00:00       48.707       50.482       -3.463       37.081       35.549       33.215     1374.991     1263.719     1103.210        0.434        0.187       70.149       19.348        0.076      339.731       13.265      865.669
01/28/2014  13:01:00      119.275      101.653       24.482       63.111       38.220       40.952     3982.994     1460.758     1677.064        1.614        0.356      156.716       25.049        0.026      339.412       12.726      865.636
01/28/2014  13:02:00      110.401       92.196       -0.380       40.461       40.520       31.805     1637.094     1641.890     1011.553        1.249        0.215      143.835       24.882        0.030      339.424       12.747      865.614
01/28/2014  13:03:00       51.461       56.267       13.985       62.158       34.711       37.278     3863.619     1204.864     1389.656        0.623        0.323       76.251       21.458        0.079      339.524       12.917      865.592
01/28/2014  13:04:00        3.400       -1.621       -1.368       26.466       27.026       19.000      700.468      730.401      361.014        0.090        0.090        3.767       11.788        9.794      339.796       13.375      865.556
01/28/2014  13:05:00        5.851      -13.326        8.969       26.735       16.181       12.638      714.774      261.840      159.719        0.071        0.057       14.554        7.165        0.242      339.870       13.501      865.513
01/28/2014  13:06:00      -11.887        0.758       21.543       17.823       24.553       12.792      317.673      602.837      163.644        0.084        0.054       11.911        8.542        0.514      340.485       14.537      865.492
01/28/2014  13:07:00       13.236       11.785       24.757       21.734       20.548       21.693      472.384      422.212      470.575        0.115        0.068       17.722       14.579        0.677      340.240       14.123      865.471
01/28/2014  13:08:00       25.644       22.604       39.703       61.150       56.436       31.377     3739.332     3185.049      984.502        0.533        0.395       34.184       26.054        0.581      340.189       14.039      865.458
01/28/2014  13:09:00       81.645      -32.500       24.064       64.936       82.197       47.872     4216.661     6756.340     2291.688        1.078        0.663       87.875       60.773        0.478      340.131       13.941      865.427
01/28/2014  13:10:00      115.542     -176.457       -6.447       71.460       97.898       58.464     5106.571     9584.107     3418.072        3.132        0.905      210.919       53.340        0.064      339.839       13.444      865.382
01/28/2014  13:11:00       61.373       69.748       96.166       74.650       82.616       68.921     5572.560     6825.449     4750.091        1.751        0.857       92.906       64.974        0.489      339.974       13.675      865.357
01/28/2014  13:12:00       25.705       59.068       83.652       51.635       56.742       42.094     2666.150     3219.697     1771.887        0.940        0.383       64.419       33.371        0.268      340.107       13.900      865.313
01/28/2014  13:13:00       15.402       50.853       67.370       42.887       48.773       37.746     1839.284     2378.843     1424.784        0.650        0.282       53.135       33.462        0.397      340.289       14.208      865.269
01/28/2014  13:14:00       70.496      102.797       90.159       50.566       58.492       45.269     2556.901     3421.361     2049.258        1.585        0.401      124.647       34.431        0.076      339.710       13.230      865.224
01/28/2014  13:15:00       79.608      131.674      101.173       61.630       60.057       57.599     3798.235     3606.797     3317.678        2.232        0.536      153.868       50.816        0.109      339.640       13.110      865.194
01/28/2014  13:16:00       66.514       40.067       73.052       67.186       84.696       55.960     4514.000     7173.418     3131.528        1.309        0.741       77.650       64.341        0.687      339.773       13.335      865.184
01/28/2014  13:17:00       94.935      -96.607        7.093       66.404       62.931       43.260     4409.505     3960.334     1871.417        1.432        0.512      135.446       41.680        0.095      339.752       13.301      865.176
01/28/2014  13:18:00       46.619       59.117       58.957       62.739       59.520       36.826     3936.154     3542.630     1356.153        0.899        0.442       75.288       24.451        0.105      339.877       13.511      865.151
01/28/2014  13:19:00       41.150       36.093       39.551       41.536       52.957       38.505     1725.205     2804.400     1482.628        0.529        0.301       54.736       39.680        0.526      339.982       13.688      865.159
01/28/2014  13:20:00       -4.458      -28.643       12.659       44.568       49.581       31.557     1986.264     2458.238      995.843        0.322        0.272       28.988       28.050        0.936      340.121       13.924      865.165
01/28/2014  13:21:00      -58.208      -23.865        0.280       47.287       35.542       23.801     2236.102     1263.210      566.478        0.401        0.203       62.910       12.618        0.040      340.374       14.352      865.179
01/28/2014  13:22:00      -37.064      -65.767        8.294       63.719       46.480       28.581     4060.169     2160.350      816.850        0.640        0.352       75.492       27.808        0.136      340.119       13.920      865.202
01/28/2014  13:23:00      -48.438      -96.884        9.298       60.470       50.786       37.840     3656.586     2579.219     1431.857        0.974        0.383      108.318       33.180        0.094      339.799       13.381      865.193
01/28/2014  13:24:00      -39.211      -31.961        4.218       38.868       42.636       28.030     1510.693     1817.806      785.702        0.334        0.206       50.586       25.495        0.254      339.950       13.635      865.192
01/28/2014  13:25:00      -48.610      -20.177        8.402       43.993       28.972       28.027     1935.375      839.366      785.490        0.320        0.178       52.631       25.328        0.232      340.089       13.868      865.171
01/28/2014  13:26:00      -46.618       -6.235      -17.697       26.259       41.335       23.016      689.560     1708.560      529.724        0.273        0.146       47.033       21.336        0.206      339.834       13.439      865.158
01/28/2014  13:27:00      -25.275       -8.177        9.908       22.603       20.826       15.497      510.898      433.717      240.144        0.099        0.059       26.565        9.982        0.141      340.410       14.412      865.151
01/28/2014  13:28:00      -48.992      -12.734        1.389       18.053       23.957       15.785      325.905      573.948      249.156        0.186        0.057       50.620        9.641        0.036      340.198       14.054      865.150
01/28/2014  13:29:00      -21.638      -63.677       -1.914       45.975       73.149       33.538     2113.689     5350.798     1124.801        0.656        0.429       67.254       29.199        0.188      340.146       13.966      865.140
01/28/2014  13:30:00       56.835      -35.216       29.883       52.206       78.319       48.008     2725.494     6133.889     2304.733        0.826        0.558       66.861       56.003        0.702      340.165       13.999      865.128
01/28/2014  13:31:00       75.618       28.265       48.942       54.870       43.808       40.786     3010.766     1919.115     1663.472        0.775        0.330       80.728       31.815        0.155      340.042       13.791      865.147
01/28/2014  13:32:00       78.164       71.949       49.452       63.320       37.203       40.601     4009.373     1384.048     1648.443        1.039        0.352      106.237       34.770        0.107      340.124       13.928      865.118
01/28/2014  13:33:00       33.571       64.540        6.006       35.864       27.064       31.293     1286.202      732.462      979.267        0.416        0.150       72.749       19.759        0.074      339.923       13.589      865.115
01/28/2014  13:34:00       37.059       46.823       -2.838       21.275       17.770       26.809      452.607      315.771      718.704        0.253        0.074       59.714       14.181        0.056      339.905       13.559      865.113
01/28/2014  13:35:00       34.392       83.073      102.609       45.614       73.169       60.182     2080.601     5353.686     3621.821        1.483        0.553       89.911       55.382        0.379      340.253       14.145      865.092
01/28/2014  13:36:00       59.593       97.596       95.206       66.252       76.908       56.935     4389.305     5914.765     3241.608        1.784        0.677      114.352       56.560        0.245      340.058       13.816      865.083
01/28/2014  13:37:00        3.922      -15.572       59.774       46.666       80.036       44.128     2177.752     6405.695     1947.270        0.718        0.527       16.058       49.955        9.678      340.565       14.673      865.088
01/28/2014  13:38:00       95.924      -87.790        9.966       79.150       92.866       60.936     6264.795     8624.167     3713.216        1.780        0.930      130.032       75.946        0.341      340.219       14.086      865.092
01/28/2014  13:39:00       50.967        5.734       47.968       62.624       65.158       58.362     3921.803     4245.507     3406.166        0.825        0.579       51.288       55.790        1.183      340.485       14.537      865.109
01/28/2014  13:40:00       -9.384      -10.321       47.902       36.791       40.739       23.051     1353.557     1659.649      531.340        0.302        0.177       13.949       21.035        2.274      340.489       14.544      865.121
01/28/2014  13:41:00       19.635      -24.756      -21.504       26.814       21.200       19.517      718.988      449.458      380.902        0.150        0.077       31.598       23.246        0.541      339.966       13.661      865.113
01/28/2014  13:42:00      -12.649        6.682        0.978       20.829       17.296       18.081      433.860      299.154      326.927        0.063        0.053       14.305        8.503        0.353      340.171       14.007      865.124
01/28/2014  13:43:00        4.397        5.882        9.715       18.496       19.413       12.561      342.115      376.879      157.773        0.051        0.044        7.343        9.685        1.739      340.633       14.788      865.114
01/28/2014  13:44:00       86.461       43.527       17.638       49.567       34.825       27.808     2456.903     1212.799      773.297        0.706        0.222       96.799       17.345        0.032      340.261       14.159      865.094
01/28/2014  13:45:00        6.756       28.778       15.354       42.514       32.710       27.408     1807.475     1069.942      751.185        0.237        0.181       29.560        9.247        0.098      340.529       14.613      865.066
01/28/2014  13:46:00       20.872       45.456       44.394       37.973       32.779       20.410     1441.936     1074.463      416.584        0.370        0.147       50.019       16.586        0.110      340.633       14.788      865.054
01/28/2014  13:47:00       -1.374       26.833       45.154       14.631       27.668       20.083      214.059      765.528      403.312        0.207        0.069       26.868       14.433        0.289      340.935       15.299      865.051
01/28/2014  13:48:00       11.278       45.296       57.564       23.578       28.043       13.113      555.906      786.404      171.944        0.350        0.076       46.679       14.076        0.091      340.520       14.596      865.042
01/28/2014  13:49:00       59.517       14.088       20.538       34.566       23.153       23.630     1194.821      536.051      558.389        0.323        0.114       61.162       12.240        0.040      340.357       14.321      865.033
01/28/2014  13:50:00       18.820       -1.147       11.928       24.919       17.817       14.255      620.950      317.440      203.197        0.082        0.057       18.855       11.533        0.374      340.632       14.787      865.033
01/28/2014  13:51:00      -31.744       -2.830       -4.488       46.736       22.400       19.309     2184.256      501.773      372.852        0.205        0.153       31.869       13.215        0.172      340.656       14.828      865.025
01/28/2014  13:52:00      -36.749      -10.112        3.418       43.167       26.774       34.543     1863.413      716.839     1193.189        0.262        0.189       38.114       24.983        0.430      340.737       14.966      865.045
01/28/2014  13:53:00      -25.616      -18.598       21.932       48.014       37.033       29.645     2305.373     1371.419      878.812        0.302        0.228       31.655       20.518        0.420      341.004       15.415      865.052
01/28/2014  13:54:00      -16.334      -38.720        8.145       37.606       48.919       26.173     1414.226     2393.076      685.013        0.316        0.225       42.024       28.537        0.461      340.933       15.297      865.080
01/28/2014  13:55:00      -64.238     -104.306      -11.427       35.186       43.986       21.424     1238.039     1934.766      459.007        0.938        0.182      122.501       17.478        0.020      340.199       14.054      865.103
01/28/2014  13:56:00      -50.267      -24.024       12.568       46.591       41.118       33.573     2170.765     1690.690     1127.144        0.412        0.249       55.713       19.280        0.120      340.662       14.837      865.095
01/28/2014  13:57:00     -102.276      -39.280        4.724       65.637       41.239       26.666     4308.193     1700.671      711.058        0.937        0.336      109.559       24.573        0.050      340.305       14.235      865.113
01/28/2014  13:58:00     -151.188     -109.645      -11.399       73.578       47.972       27.217     5413.663     2301.350      740.778        2.173        0.423      186.761       39.146        0.044      340.155       13.979      865.111
01/28/2014  13:59:00     -138.959      -41.983       -4.653       37.364       25.647       20.811     1396.077      657.775      433.086        1.179        0.124      145.163       17.131        0.014      340.176       14.015      865.094
01/28/2014  14:00:00     -118.900      -35.782       -3.196       33.011       30.707       21.919     1089.742      942.891      480.464        0.897        0.126      124.167       19.908        0.026      340.254       14.146      865.067
01/28/2014  14:01:00     -101.201      -47.949       -3.024       36.569       27.327       23.131     1337.287      746.760      535.053        0.758        0.131      111.986       19.880        0.032      340.340       14.294      865.054
01/28/2014  14:02:00     -162.553      -42.984      -28.689       24.594       30.785       15.045      604.850      947.742      226.355        1.544        0.089      168.140       11.593        0.005      340.122       13.928      865.068
01/28/2014  14:03:00     -147.737        5.745      -25.873       22.698       26.564       14.306      515.189      705.659      204.674        1.198        0.071      147.849        7.755        0.003      340.258       14.155      865.060
01/28/2014  14:04:00     -108.705       -9.527       -5.653       45.193       30.376       20.969     2042.377      922.728      439.697        0.767        0.170      109.121       24.475        0.050      340.417       14.423      865.048
01/28/2014  14:05:00      -89.479      -44.669       -0.566       73.691       42.373       31.552     5430.428     1795.494      995.547        0.911        0.411      100.009       39.242        0.154      340.671       14.851      865.029
01/28/2014  14:06:00      -40.626      -27.044        0.629       48.529       37.464       20.538     2355.104     1403.550      421.795        0.328        0.209       48.804       18.255        0.140      340.686       14.877      865.010
01/28/2014  14:07:00       34.642     -131.141       -8.602       68.380       90.625       42.938     4675.779     8212.925     1843.630        1.660        0.737      135.639       53.122        0.153      340.556       14.658      865.020
01/28/2014  14:08:00      109.249     -159.270      -17.707       63.245       58.281       43.414     3999.902     3396.640     1884.741        2.345        0.464      193.138       44.016        0.052      340.310       14.240      865.029
01/28/2014  14:09:00       45.349      -12.898       42.505       46.293       73.209       52.579     2143.036     5359.603     2764.604        0.715        0.513       47.147       52.568        1.243      340.618       14.763      865.047
01/28/2014  14:10:00       43.613      -31.893       13.837       38.649       44.984       31.777     1493.777     2023.580     1009.789        0.382        0.226       54.030       34.759        0.414      340.492       14.550      865.054
01/28/2014  14:11:00       80.494     -122.606       -6.788       45.694       60.718       33.450     2087.972     3686.717     1118.933        1.422        0.345      146.669       30.974        0.045      340.570       14.681      865.033
01/28/2014  14:12:00       63.272     -135.267      -17.003       53.626       45.921       35.711     2875.745     2108.765     1275.305        1.442        0.313      149.333       30.145        0.041      340.536       14.624      865.025
01/28/2014  14:13:00       37.502      -42.839       31.238       36.873       62.263       39.836     1359.640     3876.686     1586.928        0.552        0.341       56.934       35.245        0.383      340.894       15.230      865.011
01/28/2014  14:14:00       28.596       10.645       19.044       35.515       48.175       34.757     1261.332     2320.863     1208.074        0.304        0.240       30.513       24.737        0.657      340.905       15.249      865.027
01/28/2014  14:15:00       33.556       21.726       34.466       48.113       35.274       32.283     2314.905     1244.286     1042.221        0.369        0.230       39.975       23.099        0.334      341.267       15.863      865.045
01/28/2014  14:16:00      117.265       95.271       25.383       61.115       58.430       55.700     3735.068     3414.087     3102.457        1.686        0.513      151.088       30.307        0.040      340.575       14.690      865.034
01/28/2014  14:17:00       67.854       71.724       31.860       55.821       47.177       53.435     3116.029     2225.686     2855.256        0.948        0.410       98.734       34.567        0.123      340.831       15.123      865.031
01/28/2014  14:18:00      108.203       76.276       26.135       53.879       53.907       36.449     2902.924     2906.011     1328.563        1.267        0.357      132.385       19.207        0.021      340.792       15.056      865.027
01/28/2014  14:19:00      202.203      138.296       25.707       32.549       45.553       41.161     1059.463     2075.033     1694.268        3.275        0.241      244.973       25.954        0.011      340.252       14.139      865.020
01/28/2014  14:20:00      105.990      107.758       -0.340       53.639       39.738       36.457     2877.179     1579.100     1329.083        1.431        0.289      151.148       16.822        0.012      340.335       14.284      864.973
01/28/2014  14:21:00       64.749       38.784       -2.386       52.954       28.470       23.880     2804.144      810.562      570.246        0.494        0.209       75.476       28.738        0.145      340.434       14.451      864.953
01/28/2014  14:22:00       25.263       32.520       -3.058       36.702       34.621       28.423     1347.060     1198.618      807.855        0.253        0.168       41.179       27.058        0.432      340.747       14.982      864.939
01/28/2014  14:23:00        0.204        1.261       28.274       19.815       30.429       23.488      392.635      925.936      551.687        0.134        0.094        1.277       26.486      429.887      341.252       15.835      864.910
01/28/2014  14:24:00       27.320      -33.473       27.376       55.720       63.771       46.804     3104.747     4066.683     2190.628        0.599        0.468       43.206       46.239        1.145      340.922       15.276      864.871
01/28/2014  14:25:00       80.756      -68.579       10.319       41.984       57.604       32.463     1762.630     3318.247     1053.849        0.873        0.307      105.946       35.355        0.111      340.721       14.937      864.857
01/28/2014  14:26:00       42.580      -68.397        9.524       43.807       57.576       40.037     1919.061     3315.015     1602.926        0.671        0.342       80.568       34.858        0.187      341.055       15.503      864.855
01/28/2014  14:27:00       63.431     -117.891      -10.247       71.908       62.975       40.393     5170.817     3965.898     1631.595        1.440        0.538      133.873       44.673        0.111      340.743       14.974      864.862
01/28/2014  14:28:00       51.341     -112.631      -34.874       52.961       57.057       37.062     2804.816     3255.495     1373.556        1.198        0.372      123.780       18.325        0.022      340.596       14.725      864.859
01/28/2014  14:29:00       11.822      -64.157       -8.401       27.955       64.059       30.398      781.494     4103.514      924.051        0.507        0.290       65.237       30.168        0.214      340.736       14.962      864.859
01/28/2014  14:30:00       72.785     -111.178      -15.081       48.287       66.011       37.051     2331.647     4357.437     1372.795        1.297        0.403      132.884       42.065        0.100      340.756       14.994      864.850
01/28/2014  14:31:00       88.701     -137.547      -16.968       52.165       95.440       54.720     2721.189     9108.848     2994.315        2.095        0.741      163.668       60.041        0.135      340.674       14.856      864.851
01/28/2014  14:32:00      119.669     -119.189      -18.426       50.570       66.368       39.102     2557.302     4404.715     1528.981        1.868        0.425      168.899       41.791        0.061      340.566       14.672      864.853
01/28/2014  14:33:00       29.470       -0.847        5.945       40.926       41.165       35.140     1674.938     1694.589     1234.841        0.275        0.230       29.483       25.773        0.764      340.654       14.824      864.844
01/28/2014  14:34:00       16.216      -24.556        2.903       23.699       46.474       38.152      561.634     2159.806     1455.563        0.252        0.209       29.427       37.806        1.651      340.692       14.888      864.835
01/28/2014  14:35:00       -9.506       -5.810        2.865       20.728       20.786       18.506      429.635      432.064      342.482        0.067        0.060       11.141       12.803        1.321      340.785       15.044      864.812
01/28/2014  14:36:00       26.238        2.931       12.429       16.497       22.848       18.586      272.149      522.037      345.448        0.100        0.057       26.401       12.246        0.215      340.705       14.910      864.797
01/28/2014  14:37:00       17.113        5.516        7.321       13.194        9.691       15.307      174.081       93.911      234.307        0.044        0.025       17.980        7.952        0.196      340.752       14.990      864.787
01/28/2014  14:38:00       -1.276       30.541       45.684       17.766       23.553       33.979      315.640      554.750     1154.587        0.252        0.101       30.568       22.606        0.547      340.833       15.126      864.784
01/28/2014  14:39:00        1.905       11.422       50.958       29.998       41.367       29.623      899.871     1711.236      877.532        0.311        0.174       11.580       30.566        6.968      341.046       15.488      864.770
01/28/2014  14:40:00       24.451       -3.111       34.448       32.847       60.987       29.894     1078.956     3719.407      893.625        0.374        0.285       24.648       34.463        1.955      340.943       15.312      864.778
01/28/2014  14:41:00       57.914       77.808       67.052       54.557       39.946       45.292     2976.462     1595.646     2051.370        1.026        0.331       96.995       26.210        0.073      340.693       14.890      864.788
01/28/2014  14:42:00       48.261       61.865       70.794       66.140       48.834       45.915     4374.551     2384.796     2108.171        1.002        0.443       78.463       40.624        0.268      340.820       15.106      864.780
01/28/2014  14:43:00      -12.000       10.931       65.746       18.174       42.624       28.471      330.303     1816.837      810.588        0.377        0.148       16.232       28.065        2.989      341.193       15.734      864.768
01/28/2014  14:44:00       14.037       62.390       77.706       44.958       74.429       54.310     2021.243     5539.717     2949.626        1.032        0.526       63.949       56.748        0.787      341.067       15.522      864.767
01/28/2014  14:45:00       55.806        9.076       69.297       63.795       88.752       51.877     4069.782     7876.972     2691.228        1.132        0.732       56.539       68.522        1.469      340.887       15.219      864.761
01/28/2014  14:46:00       72.085       70.378       55.057       38.816       41.358       36.638     1506.692     1710.493     1342.373        0.887        0.228      100.744       26.839        0.071      340.766       15.014      864.748
01/28/2014  14:47:00       76.924      -17.531       24.164       71.148      117.711       50.381     5062.060    13855.959     2538.262        1.413        1.073       78.896       71.880        0.830      340.840       15.136      864.739
01/28/2014  14:48:00       87.073     -108.399       -2.019       80.274       88.563       36.666     6443.939     7843.391     1344.408        1.748        0.782      139.040       43.400        0.097      340.799       15.067      864.751
01/28/2014  14:49:00       33.796       -8.736       31.397       41.551       60.491       33.616     1726.471     3659.114     1130.013        0.436        0.326       34.907       32.612        0.873      341.107       15.591      864.760
01/28/2014  14:50:00       53.496      -90.146      -11.805       36.670       31.489       22.618     1344.689      991.571      511.587        0.699        0.142      104.824       19.079        0.033      340.997       15.404      864.744
01/28/2014  14:51:00       63.824      -45.581        3.477       39.035       46.131       27.621     1523.715     2128.078      762.898        0.529        0.221       78.429       29.438        0.141      341.087       15.557      864.725
01/28/2014  14:52:00       12.014      -55.539        7.089       52.169       44.423       27.322     2721.611     1973.391      746.500        0.436        0.272       56.824       28.597        0.253      341.040       15.476      864.725
01/28/2014  14:53:00       -2.635       30.359       27.991       50.852       53.196       21.138     2585.967     2829.817      446.800        0.379        0.293       30.473       24.342        0.638      341.046       15.486      864.739
01/28/2014  14:54:00      -34.351       -9.096        6.089       37.134       35.926       24.576     1378.938     1290.666      603.959        0.229        0.164       35.535       20.306        0.327      341.062       15.514      864.753
01/28/2014  14:55:00      -62.330      -47.488       -3.859       67.287       45.282       36.178     4527.503     2050.496     1308.839        0.702        0.394       78.359       30.953        0.156      341.015       15.436      864.752
01/28/2014  14:56:00       49.512     -100.888      -12.155       69.842       58.166       34.393     4877.909     3383.306     1182.899        1.111        0.472      112.382       28.469        0.064      341.053       15.499      864.760
01/28/2014  14:57:00       86.011     -104.645        4.300      109.101      127.430       70.813    11902.941    16238.365     5014.448        2.576        1.658      135.457       92.701        0.468      340.908       15.251      864.764
01/28/2014  14:58:00      -27.158      -78.659       24.628       56.125       80.036       32.887     3150.068     6405.777     1081.542        0.908        0.532       83.215       40.471        0.237      341.242       15.818      864.786
01/28/2014  14:59:00      -11.527      -76.134        7.948       73.143       66.046       38.878     5349.942     4362.066     1511.517        0.861        0.561       77.002       30.103        0.153      341.205       15.756      864.786
01/28/2014  15:00:00      -46.525      -82.079        4.600       68.585       57.843       39.072     4703.836     3345.835     1526.630        0.925        0.479       94.348       36.938        0.153      341.121       15.612      864.780
01/28/2014  15:01:00        5.878     -102.387       -4.100       75.639       80.275       47.615     5721.208     6444.138     2267.231        1.248        0.722      102.556       41.468        0.163      340.987       15.386      864.788
01/28/2014  15:02:00       66.867     -117.875       -1.663       60.812      101.909       50.973     3698.126    10385.534     2598.241        1.752        0.834      135.520       57.525        0.180      340.868       15.184      864.796
01/28/2014  15:03:00       51.508      -47.404       12.885       50.813       64.876       42.168     2582.010     4208.945     1778.176        0.682        0.428       70.002       48.621        0.482      340.913       15.261      864.802
01/28/2014  15:04:00       13.069      -63.177       -5.982       35.410       49.586       36.460     1253.851     2458.798     1329.336        0.462        0.252       64.514       28.960        0.202      340.993       15.398      864.793
01/28/2014  15:05:00       41.307      -54.141       -4.198       35.689       45.161       30.931     1273.671     2039.543      956.717        0.446        0.213       68.099       29.413        0.187      340.981       15.376      864.779
01/28/2014  15:06:00       43.055      -47.075        4.505       30.822       47.767       29.021      950.017     2281.703      842.237        0.408        0.204       63.795       30.052        0.222      340.956       15.335      864.759
01/28/2014  15:07:00       30.424        1.586       35.940       30.297       38.628       27.655      917.892     1492.101      764.819        0.270        0.159       30.465       28.384        0.868      341.028       15.457      864.737
01/28/2014  15:08:00       41.668      -39.253       11.080       28.504       34.638       23.161      812.457     1199.759      536.454        0.297        0.127       57.245       17.207        0.090      341.087       15.556      864.731
01/28/2014  15:09:00       18.281       25.470       56.308       36.857       46.061       35.710     1358.451     2121.596     1275.184        0.445        0.238       31.352       36.123        1.328      341.088       15.559      864.738
01/28/2014  15:10:00       37.473      -69.328       -5.414       38.900       47.636       33.195     1513.207     2269.228     1101.911        0.556        0.244       78.808       34.778        0.195      341.124       15.618      864.750
01/28/2014  15:11:00       81.719      -78.184      -12.453       43.664       44.298       30.473     1906.520     1962.304      928.587        0.887        0.240      113.096       22.681        0.040      340.838       15.135      864.770
01/28/2014  15:12:00       66.514      -79.468      -11.020       60.076       68.787       35.674     3609.177     4731.615     1272.640        1.024        0.481      103.630       46.429        0.201      340.949       15.323      864.775
01/28/2014  15:13:00       40.359      -29.401        8.600       37.981       39.116       30.515     1442.536     1530.022      931.173        0.323        0.195       49.933       20.518        0.169      341.144       15.651      864.785
01/28/2014  15:14:00       18.363       -5.617       12.424       32.323       25.496       23.673     1044.804      650.055      560.415        0.139        0.113       19.203       21.123        1.210      341.183       15.719      864.786
01/28/2014  15:15:00       21.135      -77.338        0.643       96.175       40.315       30.362     9249.670     1625.338      921.870        0.911        0.590       80.174       25.824        0.104      341.034       15.468      864.778
01/28/2014  15:16:00      -80.546      -46.435        5.255       70.858       43.460       26.306     5020.823     1888.733      692.000        0.814        0.380       92.972       24.054        0.067      341.202       15.751      864.761
01/28/2014  15:17:00      -54.785        2.411       14.823       40.522       37.942       27.834     1642.023     1439.568      774.739        0.354        0.193       54.838       24.862        0.206      341.101       15.581      864.758
01/28/2014  15:18:00      -38.226       -7.704        7.840       57.322       23.878       19.118     3285.799      570.153      365.517        0.290        0.211       38.995       23.625        0.367      341.262       15.853      864.757
01/28/2014  15:19:00      -64.323      -77.633        1.118       25.424       43.503       17.815      646.391     1892.532      317.373        0.651        0.143      100.818       12.068        0.014      340.806       15.083      864.751
01/28/2014  15:20:00      -69.728      -12.120      -11.167       13.365       15.174       14.500      178.636      230.237      210.237        0.288        0.031       70.774        7.382        0.011      340.857       15.165      864.738
01/28/2014  15:21:00      -38.928      -17.091       -4.317       26.643       23.481       20.082      709.837      551.336      403.298        0.175        0.083       42.515       18.729        0.194      341.078       15.541      864.735
01/28/2014  15:22:00      -69.628      -77.141      -14.710       33.216       46.700       15.720     1103.302     2180.915      247.117        0.727        0.177      103.917       12.097        0.014      340.992       15.396      864.738
01/28/2014  15:23:00      -49.233      -62.225       -2.402       31.015       29.561       24.001      961.907      873.838      576.031        0.436        0.121       79.346       15.294        0.037      341.082       15.548      864.734
01/28/2014  15:24:00       -8.001      -58.628       -5.272       22.586       39.392       21.878      510.135     1551.743      478.666        0.303        0.127       59.171       21.780        0.135      341.178       15.711      864.709
01/28/2014  15:25:00       48.189     -101.560      -18.553       49.985       60.309       39.314     2498.456     3637.168     1545.623        1.033        0.384      112.412       40.446        0.129      340.998       15.406      864.694
01/28/2014  15:26:00        2.366       18.599       33.956       34.365       31.273       25.302     1180.953      977.972      640.196        0.215        0.140       18.749       20.076        1.147      341.084       15.550      864.676
01/28/2014  15:27:00      -30.211      -42.157        3.829       38.814       35.613       21.197     1506.501     1268.269      449.309        0.296        0.161       51.864       15.565        0.090      341.258       15.846      864.661
01/28/2014  15:28:00      -48.109      -88.075        1.721       63.049       51.318       41.829     3975.224     2633.516     1749.639        0.922        0.418      100.357       41.008        0.167      341.136       15.638      864.645
01/28/2014  15:29:00      -85.272     -134.419      -13.343       32.876       27.163       18.438     1080.824      737.846      339.962        1.384        0.108      159.185        8.955        0.003      340.864       15.179      864.624
01/28/2014  15:30:00      -75.683      -45.634        8.299       44.764       33.973       24.247     2003.796     1154.180      587.916        0.581        0.187       88.376       25.632        0.084      341.032       15.465      864.598
01/28/2014  15:31:00      -96.509      -66.918       -0.711       50.569       69.908       36.822     2557.175     4887.087     1355.854        1.129        0.440      117.439       39.454        0.113      340.972       15.362      864.583
01/28/2014  15:32:00      -94.960      -28.348        5.379       50.413       45.814       30.727     2541.461     2098.921      944.119        0.772        0.279       99.101       27.358        0.076      341.041       15.479      864.591
01/28/2014  15:33:00      -15.565      -46.735        8.611       39.672       32.689       32.698     1573.875     1068.602     1069.169        0.311        0.186       49.259       22.794        0.214      341.202       15.752      864.619
01/28/2014  15:34:00       -9.387       -2.247       32.433       19.290       45.167       29.174      372.120     2040.049      851.138        0.220        0.163        9.652       22.159        5.271      341.300       15.918      864.649
01/28/2014  15:35:00      -49.727      -41.563       10.421       45.437       50.799       27.191     2064.502     2580.573      739.326        0.485        0.269       64.810       16.550        0.065      341.177       15.709      864.702
01/28/2014  15:36:00      -76.599      -66.508       -9.816       46.507       62.267       29.165     2162.888     3877.125      850.619        0.864        0.345      101.443       24.172        0.057      341.266       15.859      864.751
01/28/2014  15:37:00      -97.130      -57.433       -6.134       62.861       40.969       26.277     3951.558     1678.429      690.495        0.954        0.316      112.839       17.146        0.023      341.144       15.652      864.795
01/28/2014  15:38:00     -138.378     -107.143      -10.803       63.407       91.243       39.791     4020.397     8325.296     1583.346        2.233        0.696      175.008       50.106        0.082      340.895       15.230      864.825
01/28/2014  15:39:00      -64.403      -34.000       -5.683       50.070       30.343       26.355     2507.052      920.688      694.575        0.473        0.206       72.827       13.323        0.033      341.101       15.582      864.874
01/28/2014  15:40:00      -85.663      -55.358        0.286       83.443       40.412       31.334     6962.674     1633.098      981.807        0.999        0.479      101.993       26.820        0.069      341.150       15.662      864.914
01/28/2014  15:41:00     -105.417      -66.245        5.906       85.382       47.065       32.529     7290.140     2215.077     1058.105        1.305        0.528      124.504       34.953        0.079      341.082       15.547      864.940
01/28/2014  15:42:00     -137.593     -118.043      -10.937       58.062       49.831       31.576     3371.247     2483.172      997.054        1.992        0.343      181.290       31.469        0.030      340.891       15.223      864.967
01/28/2014  15:43:00     -151.905      -75.300       -9.539       32.963       22.744       20.472     1086.557      517.299      419.115        1.543        0.101      169.544       11.644        0.005      340.856       15.164      864.970
01/28/2014  15:44:00      -66.156      -81.090        2.131       44.175       37.738       18.867     1951.448     1424.164      355.961        0.734        0.187      104.653       22.606        0.047      341.008       15.422      864.973
01/28/2014  15:45:00     -128.750      -58.487        3.093      105.471       40.840       33.986    11124.210     1667.912     1155.055        1.697        0.697      141.412       42.490        0.090      341.077       15.537      864.971
01/28/2014  15:46:00     -160.085      -42.623        2.478       57.142       34.734       26.911     3265.152     1206.474      724.206        1.632        0.260      165.662       29.265        0.031      340.956       15.333      864.980
01/28/2014  15:47:00     -143.640      -65.198       -7.066       44.959       50.212       23.513     2021.295     2521.257      552.881        1.501        0.255      157.744       16.545        0.011      341.011       15.426      864.985
01/28/2014  15:48:00     -149.665      -37.780       -3.311       45.946       44.701       26.944     2111.004     1998.217      725.988        1.434        0.242      154.360       25.605        0.028      340.990       15.392      864.978
01/28/2014  15:49:00     -123.505      -34.458       -4.321       29.762       34.781       25.058      885.769     1209.726      627.913        0.959        0.136      128.221       18.967        0.022      341.044       15.481      864.967
01/28/2014  15:50:00      -70.359      -42.389        1.228       40.044       44.830       23.621     1603.551     2009.716      557.953        0.546        0.209       82.141       19.067        0.054      341.046       15.488      864.959
01/28/2014  15:51:00     -118.039      -85.078       -2.332       60.876       51.355       32.433     3705.831     2637.333     1051.928        1.428        0.370      145.504       29.195        0.040      340.970       15.359      864.956
01/28/2014  15:52:00     -111.653     -134.259       -6.445       42.798       49.493       27.826     1831.671     2449.571      774.304        1.779        0.253      174.619       15.971        0.008      340.887       15.217      864.970
01/28/2014  15:53:00     -117.488      -93.351       -2.760       44.372       35.209       32.745     1968.871     1239.705     1072.241        1.340        0.214      150.060       28.205        0.035      340.886       15.217      864.985
01/28/2014  15:54:00     -101.275     -115.558       -5.673       34.635       42.936       23.274     1199.552     1843.494      541.658        1.361        0.179      153.656       10.211        0.004      340.841       15.140      865.005
01/28/2014  15:55:00      -85.503     -100.697       -9.666       35.529       30.891       23.699     1262.286      954.274      561.641        1.016        0.139      132.101       22.058        0.028      340.877       15.200      865.017
01/28/2014  15:56:00     -113.229      -81.613       -1.951       51.678       54.191       31.331     2670.653     2936.616      981.644        1.304        0.329      139.576       25.673        0.034      340.969       15.357      865.007
01/28/2014  15:57:00     -102.832     -121.894       -7.290       58.171       47.685       29.508     3383.867     2273.899      870.738        1.601        0.326      159.476       31.651        0.039      340.874       15.194      865.002
01/28/2014  15:58:00      -77.421      -70.746        8.332       85.851       58.507       37.846     7370.390     3423.084     1432.315        1.165        0.611      104.876       29.252        0.078      340.959       15.339      865.010
01/28/2014  15:59:00     -120.051      -72.363       -6.243       42.580       43.095       30.744     1813.021     1857.166      945.183        1.215        0.231      140.174       20.641        0.022      340.975       15.368      865.025
01/28/2014  16:00:00     -148.303     -126.643      -12.640       39.155       48.482       26.277     1533.111     2350.472      690.473        2.138        0.229      195.019       24.091        0.015      340.918       15.270      865.032
01/28/2014  16:01:00      -86.893      -67.196      -18.091       35.677       26.320       17.440     1272.854      692.765      304.154        0.733        0.113      109.844       18.916        0.030      340.842       15.140      865.030
01/28/2014  16:02:00      -48.675      -29.306        7.985       57.322       29.140       23.140     3285.822      849.130      535.446        0.398        0.234       56.816       30.390        0.286      340.972       15.362      865.027
01/28/2014  16:03:00      -74.152      -55.193        4.560       57.954       47.199       24.397     3358.710     2227.704      595.221        0.737        0.309       92.438       25.437        0.076      341.023       15.448      865.025
01/28/2014  16:04:00      -46.677      -38.759        5.324       52.186       55.864       31.467     2723.398     3120.819      990.181        0.527        0.342       60.672       38.878        0.411      341.015       15.435      865.026
01/28/2014  16:05:00      -72.267      -52.987        0.727       53.144       43.010       22.903     2824.274     1849.830      524.533        0.661        0.260       89.611       25.026        0.078      340.959       15.338      865.026
01/28/2014  16:06:00      -90.086      -33.567       -4.115       47.918       45.938       23.545     2296.098     2110.346      554.375        0.711        0.248       96.137       18.764        0.038      341.022       15.447      865.039
01/28/2014  16:07:00      -84.322      -81.787        1.939       40.107       45.524       31.178     1608.559     2072.465      972.060        0.923        0.233      117.470       22.147        0.036      340.977       15.371      865.057
01/28/2014  16:08:00      -60.966      -58.889        9.025       36.523       40.176       25.843     1333.945     1614.146      667.837        0.544        0.181       84.763       23.516        0.077      341.044       15.483      865.062
01/28/2014  16:09:00      -39.300      -89.466       -4.030       29.725       44.293       22.651      883.582     1961.887      513.074        0.646        0.168       97.718       20.715        0.045      340.901       15.241      865.051
01/28/2014  16:10:00     -104.018      -70.499       -5.088       57.443       57.472       31.726     3299.680     3303.028     1006.515        1.171        0.380      125.658       25.699        0.042      340.983       15.380      865.038
01/28/2014  16:11:00     -125.263      -57.898       -0.508       54.653       35.302       28.818     2987.000     1246.208      830.493        1.205        0.253      137.997       25.802        0.035      340.892       15.225      865.029
01/28/2014  16:12:00     -155.486      -42.992       -3.650       32.208       26.989       19.504     1037.349      728.430      380.408        1.409        0.107      161.320       17.082        0.011      340.848       15.152      865.029
01/28/2014  16:13:00     -103.001      -44.256       -5.105       45.897       24.146       20.890     2106.547      583.010      436.380        0.786        0.156      112.107       20.833        0.035      340.890       15.224      865.054
01/28/2014  16:14:00      -46.869      -30.603        4.963       35.578       26.881       14.748     1265.792      722.563      217.504        0.268        0.110       55.975       16.706        0.089      341.054       15.500      865.069
01/28/2014  16:15:00      -78.802      -40.829       -6.339       12.535       20.068       14.059      157.122      402.730      197.663        0.434        0.038       88.751        5.840        0.004      340.893       15.228      865.070
01/28/2014  16:16:00      -11.828       -0.368       20.811       17.660       31.240       13.631      311.893      975.955      185.792        0.102        0.074       11.834       13.098        1.225      341.011       15.427      865.056
01/28/2014  16:17:00      -25.089       -7.101        9.218       29.265       34.351       23.294      856.454     1179.977      542.591        0.167        0.129       26.074       18.692        0.514      341.066       15.524      865.057
01/28/2014  16:18:00        0.031      -43.044        9.691       30.776       31.672       28.689      947.166     1003.133      823.031        0.236        0.139       43.044       16.758        0.152      341.079       15.544      865.066
01/28/2014  16:19:00      -42.486      -56.285       -2.886       29.838       26.084       18.674      890.315      680.377      348.706        0.345        0.096       70.520        9.694        0.019      341.178       15.712      865.063
01/28/2014  16:20:00      -32.443      -48.532        3.446       42.421       29.369       21.049     1799.513      862.560      443.051        0.326        0.155       58.377       20.146        0.119      341.119       15.609      865.052
01/28/2014  16:21:00       11.226      -46.942        5.575       26.475       39.073       22.225      700.945     1526.666      493.934        0.254        0.136       48.266       15.042        0.097      341.020       15.442      865.034
01/28/2014  16:22:00      -11.293      -26.111        8.005       24.197       21.733       20.109      585.512      472.327      404.369        0.117        0.073       28.448       15.665        0.303      341.022       15.446      865.010
01/28/2014  16:23:00      -18.543        1.572       15.621       35.066       28.417       20.683     1229.597      807.519      427.779        0.153        0.123       18.610       18.340        0.971      341.042       15.481      864.989
01/28/2014  16:24:00       11.207      -21.726        5.890       25.841       34.826       20.900      667.741     1212.876      436.808        0.147        0.116       24.446       17.571        0.517      341.082       15.549      864.962
01/28/2014  16:25:00      -16.102      -56.056       -4.207       26.464       33.915       15.028      700.340     1150.213      225.855        0.275        0.104       58.323        9.197        0.025      341.085       15.552      864.943
01/28/2014  16:26:00        6.564      -45.974       -3.891       37.350       33.550       30.388     1395.048     1125.629      923.433        0.281        0.172       46.440       23.823        0.263      341.062       15.515      864.941
01/28/2014  16:27:00        1.063      -47.551        4.425       35.961       27.961       19.676     1293.178      781.797      387.138        0.237        0.123       47.563       17.691        0.138      341.123       15.618      864.954
01/28/2014  16:28:00      -29.528      -45.117       -6.406       28.798       27.354       11.370      829.306      748.225      129.279        0.233        0.085       53.921        9.855        0.033      341.092       15.565      864.971
01/28/2014  16:29:00      -27.201        8.761        5.689       21.654       16.304       18.122      468.877      265.814      328.399        0.096        0.053       28.577       14.883        0.271      341.037       15.472      864.984
01/28/2014  16:30:00      -63.808      -34.748      -10.367       22.980       48.399       15.788      528.075     2342.468      249.246        0.425        0.156       72.656       15.570        0.046      340.836       15.129      865.005
01/28/2014  16:31:00      -30.343       15.483       16.901       25.699       14.596       16.120      660.431      213.055      259.856        0.129        0.057       34.066       13.650        0.161      340.940       15.307      865.006
01/28/2014  16:32:00      -63.207       -9.804       -2.038       25.942       43.063       15.528      672.985     1854.436      241.129        0.343        0.138       63.963       12.007        0.035      341.001       15.411      865.013
01/28/2014  16:33:00      -67.600      -92.175       -3.932       39.895       45.005       15.728     1591.610     2025.409      247.372        0.847        0.193      114.306       20.662        0.033      340.882       15.211      865.008
01/28/2014  16:34:00      -79.045      -75.464       -6.965       46.808       29.906       23.827     2191.024      894.383      567.736        0.782        0.183      109.284       21.565        0.039      340.944       15.313      865.003
01/28/2014  16:35:00      -96.654     -123.025      -13.928       31.241       33.095       17.702      975.999     1095.306      313.350        1.353        0.119      156.452       14.484        0.009      340.858       15.169      864.998
01/28/2014  16:36:00      -17.271      -60.415        2.389       33.910       48.678       27.946     1149.921     2369.502      781.003        0.413        0.215       62.835       31.721        0.255      340.942       15.312      864.999
01/28/2014  16:37:00      -77.116      -30.655      -19.812       35.703       29.839       17.504     1274.699      890.345      306.382        0.487        0.124       82.985        6.907        0.007      340.969       15.357      865.001
01/28/2014  16:38:00      -52.769      -38.080        2.519       33.920       20.784       17.060     1150.539      431.970      291.051        0.306        0.094       65.074       13.129        0.041      340.950       15.324      865.009
01/28/2014  16:39:00      -78.060      -31.348       -9.001       21.875       15.513       10.368      478.534      240.663      107.496        0.399        0.041       84.119        7.961        0.009      340.892       15.227      865.018
01/28/2014  16:40:00      -67.905      -20.820       -7.899       15.271       19.014       13.961      233.211      361.550      194.911        0.295        0.039       71.025       11.940        0.028      340.854       15.163      865.030
01/28/2014  16:41:00      -37.164      -40.590       -3.531       37.857       15.556       14.753     1433.124      241.976      217.655        0.247        0.095       55.034       12.645        0.053      341.052       15.497      865.036
01/28/2014  16:42:00      -25.895      -34.587       -3.398       31.747       23.364       16.274     1007.893      545.876      264.850        0.185        0.091       43.207       16.220        0.141      341.036       15.472      865.036
01/28/2014  16:43:00      -25.288      -40.055        6.874       17.414       25.689       10.008      303.244      659.922      100.156        0.168        0.053       47.370        7.427        0.025      341.035       15.469      865.036
01/28/2014  16:44:00      -37.793      -42.991       -3.579       26.341       25.010       13.704      693.858      625.513      187.803        0.240        0.075       57.241       17.353        0.092      340.899       15.236      865.029
01/28/2014  16:45:00      -12.063       -6.929       13.285       24.782       18.260       16.413      614.155      333.445      269.391        0.079        0.061       13.911       18.078        1.689      340.985       15.384      865.017
01/28/2014  16:46:00      -44.534      -31.262       -2.273       20.880       18.507       15.199      435.984      342.496      231.010        0.199        0.050       54.411       11.039        0.041      340.964       15.349      865.009
01/28/2014  16:47:00      -25.582        0.527        8.059       18.441       21.579       13.424      340.080      465.674      180.209        0.085        0.049       25.588       12.587        0.242      340.991       15.392      865.001
01/28/2014  16:48:00      -19.122       10.046        7.109       41.004       24.421       15.658     1681.308      596.392      245.166        0.152        0.126       21.601        9.163        0.180      340.937       15.301      865.010
01/28/2014  16:49:00      -92.474      -46.740        4.679       37.290       30.224       18.927     1390.577      913.486      358.224        0.671        0.133      103.615       10.864        0.011      340.955       15.333      865.026
01/28/2014  16:50:00      -92.525      -72.143        6.128       43.882       33.329       24.285     1925.612     1110.790      589.776        0.871        0.181      117.326       12.841        0.012      340.931       15.292      865.045
01/28/2014  16:51:00     -104.342      -62.531        0.129       39.030       30.622       20.515     1523.327      937.732      420.866        0.884        0.144      121.644       20.115        0.027      340.876       15.198      865.063
01/28/2014  16:52:00      -42.989      -53.047        3.973       24.222       23.703       19.196      586.696      561.831      368.473        0.310        0.076       68.279       13.628        0.040      340.917       15.268      865.066
01/28/2014  16:53:00      -18.421      -37.254       -4.534       15.036       17.984       13.565      226.079      323.430      184.000        0.124        0.037       41.559       14.249        0.118      340.943       15.310      865.032
01/28/2014  16:54:00      -19.391      -59.627        0.033       17.338       26.641       15.428      300.594      709.741      238.021        0.259        0.062       62.701       13.350        0.045      340.948       15.320      864.963
01/28/2014  16:55:00      -33.180      -73.914       -0.185       28.249       22.174       17.349      797.989      491.686      300.986        0.408        0.080       81.019       11.841        0.021      340.903       15.245      864.900
01/28/2014  16:56:00      -85.297      -71.641       -5.644       31.151       25.006       20.412      970.390      625.313      416.645        0.723        0.101      111.392       18.793        0.028      340.943       15.311      864.872
01/28/2014  16:57:00      -82.253      -61.240       -6.809       34.437       23.634       17.692     1185.901      558.543      313.006        0.631        0.103      102.547       13.458        0.017      340.894       15.231      864.880
01/28/2014  16:58:00      -70.799      -66.135        6.447       46.207       42.592       24.781     2135.116     1814.080      614.121        0.699        0.228       96.883       22.923        0.056      340.887       15.216      864.891
01/28/2014  16:59:00      -44.620      -60.643        4.371       39.611       33.330       25.926     1569.062     1110.893      672.155        0.452        0.168       75.289       23.984        0.101      340.884       15.213      864.895
01/28/2014  17:00:00      -41.858      -42.053       -1.648       22.740       23.167       11.835      517.108      536.699      140.074        0.236        0.060       59.334       14.569        0.060      340.857       15.169      864.878
01/28/2014  17:01:00      -55.816      -59.762       -1.242       26.214       19.105       16.361      687.157      365.013      267.698        0.400        0.066       81.773       13.691        0.028      340.922       15.278      864.848
01/28/2014  17:02:00      -56.003      -44.164       -2.140       36.546       28.506       18.871     1335.602      812.620      356.131        0.380        0.125       71.322       19.611        0.076      340.885       15.215      864.842
01/28/2014  17:03:00      -56.271      -43.784        0.049       30.237       25.457       16.085      914.263      648.060      258.712        0.345        0.091       71.299       13.590        0.036      340.852       15.156      864.833
01/28/2014  17:04:00      -62.252      -10.589       -8.165       12.139       19.862        9.909      147.355      394.488       98.188        0.235        0.032       63.147        6.969        0.012      340.805       15.078      864.805
01/28/2014  17:05:00      -80.105      -16.101      -11.663       10.117       20.920       10.648      102.362      437.649      113.371        0.373        0.033       81.707       11.488        0.020      340.816       15.098      864.761
01/28/2014  17:06:00      -66.894      -35.119       -7.104       30.470       16.653       11.573      928.396      277.310      133.945        0.355        0.067       75.553       11.823        0.024      340.829       15.119      864.723
01/28/2014  17:07:00      -93.564      -34.736       -1.302       36.430       35.116       23.837     1327.155     1233.116      568.205        0.654        0.156       99.804       18.906        0.036      340.825       15.112      864.705
01/28/2014  17:08:00     -103.416      -65.242        3.552       46.594       31.574       24.773     2170.997      996.910      613.695        0.937        0.189      122.276       19.450        0.025      340.757       14.999      864.699
01/28/2014  17:09:00      -95.969      -68.511        0.894       43.183       32.286       20.729     1864.760     1042.361      429.672        0.862        0.167      117.914       21.821        0.034      340.771       15.022      864.686
01/28/2014  17:10:00      -76.786      -23.480       -6.770       26.687       16.542       11.884      712.211      273.625      141.232        0.381        0.056       80.295       13.130        0.027      340.779       15.033      864.684
01/28/2014  17:11:00      -28.068      -30.913        8.036       22.675       26.162       15.773      514.160      684.437      248.776        0.163        0.072       41.754       17.914        0.184      340.783       15.044      864.676
01/28/2014  17:12:00      -75.715      -42.904       -5.973       14.710       18.914       10.493      216.380      357.723      110.109        0.415        0.034       87.026        7.954        0.008      340.760       15.004      864.693
01/28/2014  17:13:00      -69.462      -51.264       -9.669       19.701       23.205       11.703      388.111      538.481      136.956        0.430        0.053       86.330        6.990        0.007      340.794       15.060      864.711
01/28/2014  17:14:00      -92.166      -27.937      -13.678       17.091       18.243       14.030      292.100      332.800      196.829        0.514        0.041       96.307       10.842        0.013      340.814       15.091      864.746
01/28/2014  17:15:00      -67.789      -16.120       -2.959       23.886       16.990       17.236      570.559      288.649      297.092        0.301        0.058       69.680       14.923        0.046      340.790       15.055      864.780
01/28/2014  17:16:00      -80.785      -32.553        2.844       23.586       25.344       15.782      556.283      642.326      249.070        0.452        0.072       87.097       13.948        0.026      340.736       14.964      864.806
01/28/2014  17:17:00      -83.876      -29.160       -3.458       31.590       32.746       16.725      997.934     1072.318      279.730        0.512        0.117       88.800       13.402        0.023      340.723       14.939      864.816
01/28/2014  17:18:00      -88.894      -44.908       -0.898       24.240       26.556       17.486      587.582      705.219      305.766        0.576        0.080       99.593       12.864        0.017      340.681       14.870      864.818
01/28/2014  17:19:00     -115.925      -41.205       -6.745       30.303       26.847       18.060      918.250      720.736      326.175        0.857        0.098      123.030       15.931        0.017      340.672       14.854      864.807
01/28/2014  17:20:00      -81.590      -14.669        2.999       29.966       24.917       17.187      897.938      620.843      295.386        0.435        0.091       82.899       17.128        0.043      340.648       14.815      864.813
01/28/2014  17:21:00      -87.534      -18.503       -1.780       40.522       21.617       18.296     1641.996      467.294      334.739        0.523        0.122       89.468       22.266        0.062      340.730       14.951      864.824
01/28/2014  17:22:00     -105.372      -20.605       -7.116       21.450       20.610       13.692      460.112      424.774      187.458        0.633        0.054      107.368       10.352        0.009      340.737       14.964      864.867
01/28/2014  17:23:00      -86.566        2.090       -6.082       52.074       20.570       16.273     2711.718      423.109      264.814        0.547        0.170       86.592       21.307        0.061      340.687       14.881      864.906
01/28/2014  17:24:00     -116.569      -24.732       -7.192       29.447       26.485       19.129      867.133      701.449      365.930        0.809        0.097      119.163       17.410        0.021      340.635       14.792      864.959
01/28/2014  17:25:00     -102.773      -29.653        1.579       31.682       23.279       16.841     1003.770      541.889      283.621        0.664        0.091      106.965       10.182        0.009      340.640       14.801      865.001
01/28/2014  17:26:00      -83.244      -43.832       -4.376       57.583       32.436       23.999     3315.825     1052.062      575.939        0.691        0.247       94.079       18.727        0.040      340.668       14.848      865.030
01/28/2014  17:27:00     -123.985      -55.253       -4.644       32.065       26.563       19.054     1028.171      705.619      363.050        1.027        0.105      135.739       18.099        0.018      340.630       14.782      865.036
01/28/2014  17:28:00     -111.264      -40.537       -6.240       33.412       22.892       18.293     1116.366      524.025      334.646        0.802        0.099      118.418       20.594        0.030      340.615       14.758      865.030
01/28/2014  17:29:00     -106.253      -40.656      -14.036       29.218       20.050       13.799      853.666      402.021      190.402        0.729        0.072      113.766       14.237        0.016      340.625       14.776      865.016
01/28/2014  17:30:00     -119.596      -39.081       -7.089       17.425       16.657       12.698      303.617      277.453      161.250        0.831        0.037      125.819        5.450        0.002      340.601       14.734      865.004
01/28/2014  17:31:00      -96.183      -41.260        0.436       33.359       28.197       15.177     1112.802      795.061      230.330        0.655        0.107      104.659       16.933        0.026      340.621       14.767      864.987
01/28/2014  17:32:00     -109.142      -45.565        2.067       32.418       21.380       19.602     1050.924      457.118      384.257        0.794        0.095      118.272       17.287        0.021      340.581       14.701      864.966
01/28/2014  17:33:00     -109.531      -22.614       -1.363       25.391       20.565       17.825      644.682      422.936      317.739        0.695        0.069      111.841       15.715        0.020      340.565       14.673      864.954
01/28/2014  17:34:00     -121.745      -34.473        0.959       22.652       22.703       13.740      513.132      515.412      188.778        0.861        0.061      126.532       13.924        0.012      340.574       14.688      864.947
01/28/2014  17:35:00      -88.827      -38.191        0.988       28.965       19.414       12.034      838.955      376.901      144.817        0.535        0.068       96.689       11.044        0.013      340.583       14.706      864.954
01/28/2014  17:36:00      -65.375      -29.994       -0.051       35.823       22.687       17.423     1283.303      514.684      303.575        0.364        0.105       71.927       20.438        0.081      340.605       14.743      864.959
01/28/2014  17:37:00      -80.279      -23.716       -5.189       22.534       12.937        7.460      507.764      167.366       55.649        0.388        0.037       83.709        4.671        0.003      340.639       14.796      864.963
01/28/2014  17:38:00      -72.022      -28.606      -11.587       15.043       13.616       11.615      226.280      185.403      134.904        0.334        0.027       77.495        6.571        0.007      340.649       14.816      864.968
01/28/2014  17:39:00      -68.186      -31.241       -7.760       22.221       15.401       14.553      493.781      237.195      211.793        0.331        0.047       75.002       13.308        0.031      340.640       14.801      864.987
01/28/2014  17:40:00      -63.305      -19.960       -8.946       17.589       15.656        9.820      309.357      245.111       96.426        0.257        0.033       66.377        8.781        0.017      340.597       14.727      865.015
01/28/2014  17:41:00      -61.057      -10.921       -5.846       21.890       15.172       12.898      479.158      230.180      166.350        0.238        0.044       62.026       10.396        0.028      340.567       14.677      865.035
01/28/2014  17:42:00      -81.939       11.996       -6.769       20.386       16.679       10.335      415.591      278.196      106.820        0.385        0.040       82.813        5.798        0.005      340.541       14.633      865.050
01/28/2014  17:43:00      -88.706       13.620       -6.001       18.744       13.555       11.998      351.334      183.740      143.942        0.438        0.034       89.746        8.442        0.009      340.585       14.709      865.076
01/28/2014  17:44:00      -83.286       13.639       -9.052       15.023       11.831        8.093      225.701      139.980       65.489        0.382        0.022       84.395        5.021        0.004      340.574       14.687      865.099
01/28/2014  17:45:00      -74.250        9.023      -10.179       19.121       13.627        8.399      365.613      185.688       70.543        0.316        0.031       74.796        4.973        0.004      340.594       14.726      865.137
01/28/2014  17:46:00      -59.597       28.631       -7.598       16.052       15.802       12.189      257.667      249.704      148.561        0.254        0.033       66.118        5.673        0.007      340.599       14.731      865.164
01/28/2014  17:47:00      -64.528       68.400      -19.893       12.298       20.168       11.315      151.240      406.747      128.024        0.496        0.034       94.034        9.744        0.011      340.599       14.733      865.188
01/28/2014  17:48:00      -57.385       47.545      -13.732       17.412       16.920        9.260      303.181      286.282       85.749        0.321        0.034       74.522        8.683        0.014      340.660       14.836      865.190
01/28/2014  17:49:00      -33.607       14.719       -4.731       17.884       23.204       14.604      319.840      538.429      213.271        0.122        0.054       36.689       15.790        0.185      340.723       14.941      865.190
01/28/2014  17:50:00      -69.707        2.636      -11.458       15.072       14.346       10.152      227.153      205.811      103.063        0.277        0.027       69.757        7.965        0.013      340.676       14.861      865.176
01/28/2014  17:51:00      -65.327       -9.427       -7.185       21.352       20.283       13.837      455.897      411.412      191.474        0.273        0.053       66.004       10.584        0.026      340.605       14.742      865.166
01/28/2014  17:52:00      -62.649      -19.932       -8.581       20.765       15.779       12.282      431.199      248.987      150.858        0.261        0.042       65.743       11.555        0.031      340.563       14.670      865.153
01/28/2014  17:53:00      -30.757        9.701       -4.237       17.933       20.421       11.883      321.577      417.032      141.218        0.097        0.044       32.251        7.584        0.055      340.549       14.646      865.129
01/28/2014  17:54:00       -6.056       48.416       -7.753       24.644       15.251       10.915      607.319      232.584      119.133        0.170        0.048       48.794        3.299        0.005      340.673       14.855      865.122
01/28/2014  17:55:00       -6.740       60.588      -12.109       10.338       16.865        7.000      106.873      284.412       48.996        0.215        0.022       60.962        5.047        0.007      340.618       14.763      865.127
01/28/2014  17:56:00      -43.428       30.874       -2.433       22.311       16.082       13.226      497.781      258.632      174.919        0.189        0.047       53.284        8.782        0.027      340.734       14.959      865.147
01/28/2014  17:57:00      -60.105       51.855      -13.421       12.207       19.143       11.381      149.008      366.468      129.521        0.356        0.032       79.383       10.169        0.016      340.676       14.860      865.167
01/28/2014  17:58:00      -27.808        8.078        3.918       21.937       26.453       14.325      481.221      699.772      205.215        0.112        0.069       28.957        9.640        0.111      340.751       14.987      865.163
01/28/2014  17:59:00      -67.737      -23.664       -7.188       15.260       16.212        9.774      232.858      262.823       95.527        0.290        0.030       71.752        6.291        0.008      340.473       14.516      865.172
01/28/2014  18:00:00      -54.727      -27.013       -6.876       25.911       11.838       12.498      671.388      140.145      156.199        0.237        0.048       61.031       14.244        0.054      340.404       14.403      865.182
01/28/2014  18:01:00      -55.916      -22.778       -6.820       12.730       11.746        7.640      162.045      137.960       58.372        0.203        0.018       60.378        3.910        0.004      340.386       14.371      865.184
01/28/2014  18:02:00      -29.968       21.223      -12.170       26.548       25.342       12.708      704.816      642.206      161.486        0.150        0.075       36.722       12.460        0.115      340.639       14.798      865.193
01/28/2014  18:03:00       11.135       45.719       -1.181       32.107       15.557       15.490     1030.889      242.023      239.950        0.186        0.076       47.056       12.484        0.070      340.595       14.724      865.177
01/28/2014  18:04:00       66.215       46.003        4.118       23.790       20.565       16.931      565.975      422.917      286.673        0.390        0.064       80.627       10.818        0.018      340.494       14.554      865.143
01/28/2014  18:05:00       10.519       25.692      -16.622       38.577       37.833       12.761     1488.221     1431.362      162.846        0.206        0.154       27.762       16.112        0.337      340.470       14.513      865.142
01/28/2014  18:06:00       11.381       72.123      -13.965       15.636       11.235        7.329      244.480      126.226       53.718        0.298        0.021       73.015        6.367        0.008      340.468       14.509      865.145
01/28/2014  18:07:00       81.466       57.163        3.422       35.005       19.679       17.447     1225.331      387.263      304.404        0.592        0.096       99.521       13.456        0.018      340.419       14.425      865.119
01/28/2014  18:08:00      117.535       38.761        9.170       37.970       22.828       21.801     1441.737      521.131      475.287        0.892        0.122      123.761       15.949        0.017      340.341       14.294      865.099
01/28/2014  18:09:00       21.516       26.538       -9.543       52.060       30.637       24.672     2710.281      938.634      608.714        0.276        0.213       34.165       18.183        0.283      340.332       14.278      865.129
01/28/2014  18:10:00      -21.932       51.827      -21.797       22.891       19.826        8.971      523.975      393.070       80.487        0.232        0.050       56.277        9.086        0.026      340.425       14.436      865.169
01/28/2014  18:11:00      -40.309      -17.208       -5.486       23.257       21.327       11.021      540.883      454.834      121.470        0.153        0.056       43.829        5.014        0.013      340.363       14.332      865.208
01/28/2014  18:12:00      -51.681      -40.669       -6.106       20.695       11.353        7.742      428.269      128.889       59.946        0.249        0.031       65.763        4.870        0.005      340.383       14.368      865.247
01/28/2014  18:13:00      -53.849      -15.887      -11.143       13.792       14.423        8.276      190.208      208.014       68.493        0.187        0.023       56.144        6.343        0.013      340.385       14.372      865.271
01/28/2014  18:14:00      -44.584      -21.727       -9.755       18.727       27.866        9.696      350.700      776.510       94.013        0.189        0.061       49.596        7.187        0.021      340.512       14.583      865.300
01/28/2014  18:15:00      -65.702      -24.145       -8.442       21.459       14.003        5.973      460.501      196.097       35.674        0.283        0.035       69.998        4.139        0.003      340.496       14.556      865.320
01/28/2014  18:16:00      -39.282      -26.578        2.949       24.542       19.927       13.844      602.333      397.088      191.655        0.172        0.060       47.428       13.414        0.080      340.485       14.538      865.321
01/28/2014  18:17:00      -34.090      -28.935       -3.619       14.182       10.555        9.720      201.116      111.405       94.469        0.121        0.020       44.714        3.885        0.008      340.510       14.579      865.316
01/28/2014  18:18:00      -40.224      -31.003        0.138       19.554       14.371       15.281      382.369      206.539      233.495        0.170        0.041       50.786       12.421        0.060      340.571       14.684      865.322
01/28/2014  18:19:00      -61.939      -40.028       -6.034       22.266       16.195       11.292      495.766      262.270      127.509        0.318        0.044       73.747       10.655        0.021      340.456       14.489      865.326
01/28/2014  18:20:00      -75.759      -33.177       -6.189       15.974       13.640        9.110      255.183      186.042       82.997        0.370        0.026       82.705        4.993        0.004      340.283       14.196      865.324
01/28/2014  18:21:00      -82.710      -16.924      -10.650       29.078       24.484       15.700      845.525      599.481      246.487        0.447        0.085       84.423       17.017        0.041      340.519       14.596      865.330
01/28/2014  18:22:00      -74.593      -16.854       -9.470       27.110       21.250       13.896      734.952      451.576      193.100        0.366        0.069       76.473       15.119        0.039      340.576       14.692      865.349
01/28/2014  18:23:00      -61.953       12.435       -2.816       34.142       31.183       16.781     1165.665      972.368      281.617        0.321        0.121       63.189       11.923        0.036      340.709       14.916      865.372
01/28/2014  18:24:00     -151.988       -2.528       -7.959       37.002       29.694       23.313     1369.177      881.723      543.518        1.298        0.140      152.009       21.441        0.020      340.578       14.695      865.396
01/28/2014  18:25:00     -138.257       -1.708      -12.594       41.363       27.875       22.540     1710.906      776.999      508.044        1.114        0.150      138.267       18.698        0.018      340.478       14.526      865.436
01/28/2014  18:26:00     -106.878       -2.157      -12.067       34.332       26.259       21.443     1178.709      689.550      459.813        0.695        0.116      106.899       19.790        0.034      340.615       14.757      865.452
01/28/2014  18:27:00      -90.257       12.940       -4.177       34.230       29.715       21.179     1171.716      882.959      448.559        0.542        0.125       91.179       18.690        0.042      340.720       14.934      865.468
01/28/2014  18:28:00     -139.410       -7.053      -10.244       32.674       22.427       19.370     1067.589      502.990      375.196        1.077        0.097      139.589       18.130        0.017      340.484       14.537      865.483
01/28/2014  18:29:00     -111.030      -20.329       -7.333       41.704       22.285       16.530     1739.199      496.601      273.252        0.765        0.125      112.875       19.228        0.029      340.260       14.157      865.499
01/28/2014  18:30:00      -59.037       -4.770        0.127       41.363       27.613       19.321     1710.914      762.467      373.293        0.318        0.142       59.230       22.034        0.138      340.405       14.403      865.498
01/28/2014  18:31:00      -95.227      -13.739      -15.524       38.296       29.005       16.852     1466.616      841.300      283.979        0.604        0.130       96.213       18.401        0.037      340.483       14.535      865.472
01/28/2014  18:32:00      -98.836       51.596        0.414       79.395       54.935       33.560     6303.598     3017.891     1126.292        1.144        0.522      111.493       38.011        0.116      340.497       14.559      865.440
01/28/2014  18:33:00     -195.625      -28.948      -15.288       90.452       54.953       33.154     8181.593     3019.786     1099.202        2.582        0.615      197.755       42.656        0.047      340.575       14.688      865.398
01/28/2014  18:34:00     -140.386      -36.869        1.588       53.564       55.490       31.034     2869.070     3079.145      963.115        1.399        0.346      145.146       25.046        0.030      340.613       14.754      865.384
01/28/2014  18:35:00     -220.158      -93.980       -1.904       93.161      110.394       46.434     8678.944    12186.777     2156.080        4.016        1.151      239.377       40.119        0.028      340.728       14.945      865.349
01/28/2014  18:36:00     -156.528      -30.541       -9.455       71.878       57.619       39.799     5166.453     3319.946     1583.968        1.780        0.504      159.480       43.598        0.075      340.780       15.034      865.330
01/28/2014  18:37:00     -192.186      -20.689        4.255       77.936       56.893       39.030     6074.059     3236.787     1523.314        2.411        0.542      193.296       41.504        0.046      340.738       14.963      865.321
01/28/2014  18:38:00     -186.307      -41.930       -6.252       54.750       60.484       28.158     2997.532     3658.327      792.893        2.198        0.372      190.967       26.210        0.019      340.742       14.970      865.318
01/28/2014  18:39:00     -129.931      -52.692        0.157       72.990       69.440       33.956     5327.543     4821.947     1153.008        1.548        0.565      140.209       41.737        0.089      340.778       15.033      865.296
01/28/2014  18:40:00     -152.707      -77.710       -0.708       85.018       59.913       41.164     7228.023     3589.522     1694.511        2.093        0.626      171.343       33.559        0.038      340.878       15.200      865.288
01/28/2014  18:41:00     -113.156      -55.558       -4.074       56.770       46.854       27.942     3222.800     2195.314      780.769        1.105        0.310      126.060       25.303        0.040      340.814       15.094      865.299
01/28/2014  18:42:00     -117.762      -70.531        0.673       71.815       55.871       32.867     5157.347     3121.581     1080.270        1.410        0.468      137.268       29.523        0.046      340.856       15.165      865.328
01/28/2014  18:43:00     -159.153      -27.413       -1.993       71.797       51.679       35.751     5154.758     2670.715     1278.165        1.759        0.455      161.496       38.067        0.056      340.827       15.114      865.363
01/28/2014  18:44:00     -176.276      -47.043       -1.176       50.825       55.030       26.550     2583.186     3028.303      704.903        1.980        0.316      182.445       25.064        0.019      340.828       15.117      865.401
01/28/2014  18:45:00     -257.085      -25.538       -6.601      103.505       61.912       45.867    10713.286     3833.135     2103.756        4.172        0.833      258.350       44.305        0.029      340.861       15.170      865.445
01/28/2014  18:46:00     -173.426      -43.338       -0.703       98.746       82.790       47.419     9750.689     6854.178     2248.607        2.540        0.943      178.759       48.494        0.074      340.828       15.117      865.460
01/28/2014  18:47:00     -148.811      -25.250      -14.786       83.665       74.716       38.980     6999.834     5582.537     1519.476        1.855        0.705      150.938       33.589        0.050      340.819       15.101      865.475
01/28/2014  18:48:00     -109.438      -69.684        9.530       72.676       72.881       38.626     5281.822     5311.670     1492.000        1.450        0.604      129.741       28.666        0.049      340.838       15.135      865.512
01/28/2014  18:49:00     -148.165      -65.815        2.532       65.493       79.437       39.498     4289.382     6310.200     1560.104        1.922        0.608      162.125       40.729        0.063      340.823       15.108      865.536
01/28/2014  18:50:00     -170.503      -56.023       -1.725       94.916       76.860       43.179     9008.980     5907.479     1864.468        2.449        0.839      179.471       48.341        0.073      340.867       15.182      865.557
01/28/2014  18:51:00     -165.328      -22.976        0.305       67.439       54.595       33.469     4547.983     2980.645     1120.193        1.825        0.432      166.917       31.080        0.035      340.812       15.090      865.576
01/28/2014  18:52:00     -109.067      -47.882       11.629      106.138       88.633       46.284    11265.329     7855.724     2142.227        1.779        1.063      119.115       50.825        0.182      340.818       15.101      865.604
01/28/2014  18:53:00     -217.474      -35.003      -16.656       81.464       74.733       41.062     6636.454     5585.027     1686.113        3.135        0.695      220.272       41.728        0.036      340.823       15.107      865.602
01/28/2014  18:54:00     -184.455      -14.063       -8.568       98.399       71.319       40.790     9682.361     5086.431     1663.813        2.536        0.822      184.990       41.575        0.051      340.806       15.079      865.598
01/28/2014  18:55:00     -200.849      -27.266      -18.926       63.778       56.420       33.890     4067.672     3183.168     1148.501        2.492        0.420      202.691       33.119        0.027      340.816       15.096      865.584
01/28/2014  18:56:00     -248.267      -19.722      -13.736      117.891       69.916       49.261    13898.187     4888.219     2426.605        4.171        1.061      249.049       52.184        0.044      340.817       15.097      865.583
01/28/2014  18:57:00     -197.316      -72.908      -12.867       83.465       60.184       36.840     6966.434     3622.066     1357.221        2.818        0.597      210.355       34.844        0.027      340.849       15.151      865.578
01/28/2014  18:58:00     -211.775      -53.959      -13.674       94.734       79.359       45.221     8974.622     6297.881     2044.963        3.263        0.866      218.541       38.349        0.031      340.821       15.104      865.574
01/28/2014  18:59:00     -251.631      -41.983       -4.142      105.906       58.372       50.057    11216.110     3407.267     2505.669        4.111        0.856      255.110       55.177        0.047      340.821       15.105      865.581
01/28/2014  19:00:00     -180.514      -82.596       -2.770      111.447       83.731       56.968    12420.394     7010.817     3245.322        3.104        1.134      198.513       62.374        0.099      340.813       15.089      865.589
01/28/2014  19:01:00     -249.666      -80.591        0.674      106.830      144.242       56.679    11412.606    20805.672     3212.529        5.212        1.772      262.351       54.123        0.043      340.851       15.152      865.600
01/28/2014  19:02:00     -150.317      -98.053       -6.532      116.855       73.971       46.991    13655.165     5471.670     2208.114        2.679        1.067      179.470       55.790        0.097      340.849       15.151      865.618
01/28/2014  19:03:00     -187.824      -22.206      -12.079      117.025       95.658       72.051    13694.940     9150.496     5191.398        3.197        1.402      189.132       68.729        0.132      340.865       15.178      865.634
01/28/2014  19:04:00     -306.952      -78.393       -0.271      189.710       80.725       56.755    35990.057     6516.589     3221.186        7.304        2.286      316.805       74.515        0.055      340.878       15.200      865.689
01/28/2014  19:05:00     -234.081      -38.404       -9.742      127.198      105.322       51.906    16179.361    11092.813     2694.221        4.316        1.498      237.211       56.890        0.058      340.862       15.172      865.707
01/28/2014  19:06:00     -209.952      -84.407       -5.065      114.382       97.854       56.640    13083.142     9575.397     3208.063        3.854        1.293      226.284       60.144        0.071      340.855       15.161      865.720
01/28/2014  19:07:00     -311.320      -21.458      -10.360      134.945       77.719       58.806    18210.026     6040.192     3458.194        6.259        1.385      312.059       62.662        0.040      340.868       15.181      865.719
01/28/2014  19:08:00     -189.046      -13.508       12.694      131.984       67.061       53.466    17419.707     4497.146     2858.606        3.042        1.239      189.528       55.133        0.085      340.861       15.171      865.708
01/28/2014  19:09:00     -157.770      -49.091        5.970       71.784       93.777       45.447     5152.979     8794.067     2065.463        2.167        0.801      165.231       44.270        0.072      340.836       15.130      865.713
01/28/2014  19:10:00     -250.213      -90.291       -3.602      110.635      111.327       52.966    12240.016    12393.760     2805.399        4.910        1.372      266.005       44.457        0.028      340.832       15.122      865.709
01/28/2014  19:11:00     -208.945      -35.073       -3.466       72.715       86.429       51.785     5287.404     7469.928     2681.661        3.017        0.772      211.868       33.231        0.025      340.815       15.093      865.705
01/28/2014  19:12:00     -216.092      -59.377       -3.663      121.528       98.942       58.744    14769.017     9789.563     3450.855        3.912        1.400      224.101       67.768        0.091      340.799       15.067      865.710
01/28/2014  19:13:00     -301.840      -51.544       -2.816      103.163       88.837       52.572    10642.595     7892.014     2763.797        5.753        1.065      306.210       53.196        0.030      340.792       15.053      865.710
01/28/2014  19:14:00     -307.120      -96.306       -9.829      102.873      102.069       56.331    10582.862    10418.033     3173.142        6.393        1.209      321.866       57.270        0.032      340.782       15.037      865.717
01/28/2014  19:15:00     -285.019      -58.309       -6.487      114.538      148.204       59.180    13118.944    21964.523     3502.297        6.163        1.929      290.922       57.758        0.039      340.781       15.035      865.719
01/28/2014  19:16:00     -236.057      -72.584       -7.760       80.555       92.849       48.072     6489.171     8620.894     2310.934        3.923        0.871      246.965       47.729        0.037      340.755       14.991      865.715
01/28/2014  19:17:00     -264.110     -137.541      -16.633       96.720       73.888       41.925     9354.801     5459.435     1757.701        5.276        0.829      297.778       42.600        0.020      340.766       15.009      865.729
01/28/2014  19:18:00     -305.574      -69.246      -12.864      115.725      118.232       54.587    13392.160    13978.732     2979.737        6.434        1.518      313.322       48.838        0.024      340.796       15.061      865.725
01/28/2014  19:19:00     -165.696      -86.299       -8.737      103.735       77.078       45.886    10760.850     5941.086     2105.529        2.689        0.940      186.823       49.208        0.069      340.770       15.016      865.744
01/28/2014  19:20:00     -244.656     -126.419        4.544      116.418      124.152       52.250    13553.250    15413.647     2730.041        5.377        1.585      275.388       47.032        0.029      340.763       15.005      865.738
01/28/2014  19:21:00     -222.880      -34.296      -15.943      126.728       64.876       43.085    16060.025     4208.944     1856.311        3.661        1.106      225.504       44.262        0.039      340.757       14.995      865.738
01/28/2014  19:22:00     -157.796      -80.914       -4.365       85.044       66.184       40.282     7232.494     4380.295     1622.609        2.235        0.662      177.332       40.297        0.052      340.735       14.959      865.746
01/28/2014  19:23:00     -179.782      -34.571       -0.747       92.976       58.746       38.515     8644.463     3451.118     1483.367        2.355        0.679      183.075       40.483        0.049      340.749       14.982      865.733
01/28/2014  19:24:00     -233.996      -26.148        1.771       88.043       79.286       46.147     7751.550     6286.242     2129.523        3.580        0.808      235.452       45.798        0.038      340.716       14.924      865.742
01/28/2014  19:25:00     -299.597      -54.985      -10.500      114.819      107.267       53.591    13183.435    11506.310     2872.022        6.022        1.378      304.601       60.174        0.039      340.716       14.926      865.752
01/28/2014  19:26:00     -300.657      -87.846      -12.236      126.837      144.120       58.442    16087.557    20770.685     3415.445        6.926        2.014      313.228       52.628        0.028      340.714       14.921      865.750
01/28/2014  19:27:00     -202.540      -69.093      -19.263       99.350       79.180       40.585     9870.380     6269.455     1647.139        3.197        0.889      214.001       31.187        0.021      340.725       14.941      865.752
01/28/2014  19:28:00     -167.109      -74.303       12.481      123.967      108.494       66.765    15367.703    11770.852     4457.561        3.259        1.580      182.883       67.583        0.137      340.716       14.926      865.746
01/28/2014  19:29:00     -262.347      -85.370       -8.535       90.859       87.949       50.096     8255.443     7734.991     2509.652        4.734        0.925      275.888       39.702        0.021      340.716       14.926      865.738
01/28/2014  19:30:00     -191.754      -68.256        0.846      105.036       98.809       51.941    11032.530     9763.166     2697.817        3.246        1.175      203.540       53.328        0.069      340.684       14.871      865.735
01/28/2014  19:31:00     -278.977     -109.693      -20.759      134.520       97.571       64.225    18095.588     9520.072     4124.862        6.101        1.587      299.768       54.153        0.033      340.694       14.888      865.744
01/28/2014  19:32:00     -187.288      -53.304        6.243      115.312       81.820       55.720    13296.788     6694.577     3104.713        3.052        1.155      194.726       61.334        0.099      340.673       14.855      865.741
01/28/2014  19:33:00     -247.659      -61.782       -9.054      107.311       62.131       47.448    11515.568     3860.290     2251.349        4.143        0.881      255.249       46.730        0.034      340.678       14.861      865.739
01/28/2014  19:34:00     -194.498      -19.929       12.196      109.459       79.357       58.271    11981.187     6297.604     3395.489        3.002        1.084      195.516       57.491        0.086      340.671       14.851      865.729
01/28/2014  19:35:00     -301.463      -54.263      -12.577      116.672       79.231       56.151    13612.350     6277.539     3152.949        5.851        1.152      306.307       62.047        0.041      340.664       14.837      865.730
01/28/2014  19:36:00     -307.694     -114.374      -21.040      108.157       86.514       57.609    11697.831     7484.595     3318.802        6.535        1.125      328.263       60.576        0.034      340.689       14.881      865.716
01/28/2014  19:37:00     -252.215      -49.024       -0.356      141.789      112.320       50.439    20104.177    12615.680     2544.082        5.063        1.763      256.935       60.658        0.056      340.685       14.874      865.704
01/28/2014  19:38:00     -177.791      -39.965        8.397      123.081       89.023       57.012    15148.856     7925.041     3250.373        2.980        1.316      182.228       51.363        0.079      340.655       14.824      865.711
01/28/2014  19:39:00     -139.351      -90.779        7.337      132.609      115.956       59.158    17585.047    13445.724     3499.628        3.112        1.727      166.312       57.746        0.121      340.676       14.859      865.699
01/28/2014  19:40:00     -244.319     -108.774        0.574      127.883       84.706       62.899    16354.169     7175.159     3956.308        4.950        1.374      267.439       68.558        0.066      340.687       14.877      865.707
01/28/2014  19:41:00     -237.785      -45.282       -6.930      131.019       84.744       59.317    17165.947     7181.532     3518.459        4.325        1.393      242.058       63.909        0.070      340.699       14.897      865.706
01/28/2014  19:42:00     -265.342      -25.847      -10.965      118.618       90.222       41.803    14070.273     8140.084     1747.529        4.757        1.198      266.598       44.944        0.028      340.697       14.894      865.723
01/28/2014  19:43:00     -172.384      -21.211        2.862      108.703       61.736       42.392    11816.393     3811.377     1797.119        2.380        0.871      173.684       52.373        0.091      340.684       14.873      865.759
01/28/2014  19:44:00     -187.479      -94.111       -9.157       89.349      109.922       38.304     7983.163    12082.764     1467.183        3.281        1.077      209.775       35.298        0.028      340.688       14.879      865.794
01/28/2014  19:45:00     -318.497     -104.052      -24.157      122.785       89.404       60.166    15076.071     7993.014     3619.965        6.977        1.334      335.064       67.298        0.040      340.679       14.863      865.810
01/28/2014  19:46:00     -243.700     -145.581      -10.357      140.256       92.635       66.161    19671.815     8581.169     4377.285        5.666        1.632      283.873       64.495        0.052      340.673       14.853      865.816
01/28/2014  19:47:00     -218.080      -91.354       -3.574      108.591       89.071       63.580    11792.101     7933.678     4042.383        3.984        1.188      236.441       54.784        0.054      340.656       14.824      865.823
01/28/2014  19:48:00     -304.843      -32.422       -4.963      114.057      114.577       57.044    13009.088    13127.973     3254.024        6.169        1.470      306.563       64.021        0.044      340.657       14.824      865.837
01/28/2014  19:49:00     -328.433       -3.435      -22.583      155.102      116.033       70.749    24056.687    13463.726     5005.404        7.545        2.126      328.451       77.205        0.055      340.644       14.804      865.854
01/28/2014  19:50:00     -172.771      -54.395       10.808       87.770      124.085       57.044     7703.568    15397.180     3253.999        2.964        1.318      181.132       46.231        0.065      340.637       14.791      865.872
01/28/2014  19:51:00     -225.513      -87.902       -4.007      186.935      125.583       88.659    34944.701    15771.085     7860.396        5.858        2.929      242.039      106.996        0.195      340.647       14.807      865.872
01/28/2014  19:52:00     -357.566     -171.913      -32.701      100.379       97.482       53.035    10076.025     9502.735     2812.694        9.043        1.120      396.746       39.363        0.010      340.642       14.797      865.874
01/28/2014  19:53:00     -149.760      -76.547      -11.751      106.393       77.131       50.589    11319.497     5949.141     2559.231        2.412        0.991      168.189       46.299        0.076      340.618       14.761      865.864
01/28/2014  19:54:00     -185.436        3.017        3.874       81.791       75.607       47.386     6689.696     5716.450     2245.394        2.453        0.733      185.460       43.514        0.055      340.581       14.698      865.851
01/28/2014  19:55:00     -185.176      -42.020      -18.338       94.506       66.183       48.316     8931.359     4380.224     2334.454        2.602        0.782      189.884       46.143        0.059      340.593       14.719      865.835
01/28/2014  19:56:00     -314.624      -51.999      -14.498      113.427      123.214       49.765    12865.755    15181.798     2476.507        6.621        1.526      318.892       55.835        0.031      340.596       14.722      865.810
01/28/2014  19:57:00     -235.924      -13.267       -4.134      117.122      108.293       60.176    13717.553    11727.379     3621.103        4.245        1.453      236.297       54.071        0.052      340.581       14.696      865.782
01/28/2014  19:58:00     -250.386      -51.196       -8.229      105.093       91.007       53.160    11044.470     8282.341     2826.002        4.376        1.108      255.567       53.336        0.044      340.595       14.720      865.780
01/28/2014  19:59:00     -213.587     -103.868      -10.956       81.318       59.549       39.726     6612.623     3546.114     1578.175        3.413        0.587      237.504       31.422        0.018      340.581       14.698      865.782
01/28/2014  20:00:00     -281.534      -69.475      -13.943       97.118       74.176       49.931     9431.836     5502.135     2493.135        5.085        0.871      289.980       46.826        0.026      340.573       14.683      865.794
01/28/2014  20:01:00     -169.601        5.210        9.032      104.961       75.871       50.081    11016.764     5756.431     2508.131        2.407        0.964      169.681       61.276        0.130      340.544       14.635      865.812
01/28/2014  20:02:00     -228.038     -166.571      -10.810      141.047      124.337       57.250    19894.262    15459.751     3277.572        5.924        1.932      282.395       62.783        0.049      340.585       14.705      865.832
01/28/2014  20:03:00     -191.554     -108.277      -10.548      107.295      127.021       58.521    11512.116    16134.268     3424.675        3.979        1.554      220.038       67.478        0.094      340.559       14.660      865.837
01/28/2014  20:04:00     -224.878      -93.280      -12.246      103.929       81.861       35.256    10801.302     6701.143     1242.951        3.908        0.937      243.457       46.104        0.036      340.540       14.628      865.850
01/28/2014  20:05:00     -176.603      -61.842       -2.391       87.015       62.412       43.529     7571.606     3895.213     1894.811        2.419        0.668      187.117       40.196        0.046      340.540       14.629      865.837
01/28/2014  20:06:00     -158.617      -41.684       -1.541       83.289       84.016       45.607     6937.123     7058.607     2079.971        2.148        0.804      164.003       36.978        0.051      340.540       14.630      865.837
01/28/2014  20:07:00     -265.670      -39.925       -2.837       95.001       85.228       49.010     9025.113     7263.749     2401.973        4.543        0.935      268.654       52.462        0.038      340.527       14.608      865.850
01/28/2014  20:08:00     -198.856      -66.174        3.925      101.120       77.013       49.713    10225.270     5930.986     2471.379        3.128        0.931      209.577       55.218        0.069      340.503       14.564      865.838
01/28/2014  20:09:00     -135.933      -68.827       10.334      127.034       82.702       61.519    16137.763     6839.602     3784.571        2.504        1.338      152.364       72.036        0.224      340.546       14.639      865.812
01/28/2014  20:10:00     -149.752      -89.980        9.006      123.677      105.306       50.371    15295.944    11089.406     2537.213        2.976        1.446      174.706       64.666        0.137      340.559       14.661      865.801
01/28/2014  20:11:00     -220.608     -137.043       -9.498      143.068      112.720       60.658    20468.387    12705.910     3679.428        5.219        1.843      259.709       61.218        0.056      340.559       14.661      865.789
01/28/2014  20:12:00      -75.906      -12.980        8.524       89.993       65.019       47.967     8098.799     4227.419     2300.815        1.031        0.731       77.008       49.475        0.413      340.536       14.624      865.781
01/28/2014  20:13:00     -221.658     -118.791      -15.369       96.396      106.205       47.965     9292.186    11279.504     2300.683        4.317        1.144      251.482       43.467        0.030      340.514       14.585      865.794
01/28/2014  20:14:00     -126.400        6.681       17.910      140.413       62.174       49.142    19715.704     3865.619     2414.950        2.116        1.300      126.576       69.097        0.298      340.518       14.595      865.817
01/28/2014  20:15:00     -133.217      -80.982       -2.421       94.003       76.536       46.421     8836.644     5857.753     2154.911        2.058        0.842      155.900       46.814        0.090      340.531       14.615      865.852
01/28/2014  20:16:00     -152.005      -31.868        1.518       90.808       85.701       54.280     8246.043     7344.671     2946.356        2.133        0.927      155.310       52.909        0.116      340.525       14.602      865.877
01/28/2014  20:17:00     -133.793      -55.508       14.374      108.819       87.576       61.092    11841.528     7669.633     3732.173        2.221        1.162      144.850       61.376        0.180      340.522       14.600      865.899
01/28/2014  20:18:00     -185.616      -11.933        0.308      108.587      102.194       51.540    11791.130    10443.660     2656.378        2.974        1.245      185.999       54.410        0.086      340.524       14.603      865.900
01/28/2014  20:19:00     -166.890      -92.707       -1.700      118.147       83.310       49.672    13958.596     6940.490     2467.296        2.990        1.168      190.910       58.983        0.095      340.531       14.614      865.903
01/28/2014  20:20:00     -206.054      -56.247       -8.011      146.251       88.355       55.055    21389.343     7806.661     3031.087        3.895        1.611      213.594       62.127        0.085      340.546       14.640      865.898
01/28/2014  20:21:00     -164.721     -132.001      -14.647       86.137      100.889       54.987     7419.614    10178.679     3023.529        3.269        1.031      211.086       45.124        0.046      340.532       14.617      865.880
01/28/2014  20:22:00     -257.920       -1.540      -16.405       79.999       91.441       53.351     6399.885     8361.400     2846.279        4.220        0.880      257.925       40.951        0.025      340.536       14.620      865.854
01/28/2014  20:23:00     -173.995      -76.081       -5.433      149.671       83.755       54.580    22401.473     7014.885     2978.931        3.424        1.620      189.902       59.433        0.098      340.534       14.621      865.828
01/28/2014  20:24:00     -136.387      -93.491       -3.212      122.481       86.555       58.393    15001.709     7491.816     3409.717        2.662        1.295      165.355       61.848        0.140      340.518       14.594      865.798
01/28/2014  20:25:00      -18.584       -4.444       17.198       79.862       72.415       41.132     6377.889     5243.992     1691.882        0.699        0.666       19.108       40.537        4.500      340.501       14.564      865.777
01/28/2014  20:26:00     -162.141      -92.976       -3.717      125.409       82.016       44.637    15727.365     6726.684     1992.457        2.969        1.222      186.907       62.284        0.111      340.502       14.565      865.751
01/28/2014  20:27:00     -137.526      -89.760        1.215      139.406       95.314       67.325    19433.997     9084.846     4532.664        3.001        1.653      164.226       74.199        0.204      340.530       14.612      865.704
01/28/2014  20:28:00     -227.688       -2.375      -12.037       78.845       74.554       47.473     6216.525     5558.240     2253.647        3.301        0.701      227.700       36.654        0.026      340.519       14.595      865.686
01/28/2014  20:29:00     -157.595       18.155       -8.928       56.197       85.421       37.505     3158.148     7296.761     1406.655        1.855        0.593      158.638       19.118        0.015      340.493       14.549      865.659
01/28/2014  20:30:00      -76.390       -1.084       -3.415       56.390       55.489       31.384     3179.795     3079.011      984.928        0.654        0.362       76.398       27.550        0.130      340.496       14.555      865.643
01/28/2014  20:31:00      -35.381      -35.849        7.455       52.203       58.846       25.977     2725.200     3462.840      674.829        0.473        0.343       50.368       29.131        0.335      340.484       14.536      865.644
01/28/2014  20:32:00       -3.962      -11.876       25.305       62.279       30.135       35.255     3878.703      908.108     1242.920        0.341        0.301       12.520       36.397        8.452      340.512       14.584      865.652
01/28/2014  20:33:00     -116.101      -22.159        0.356       73.741       40.921       27.527     5437.795     1674.567      757.711        1.092        0.394      118.197       26.581        0.051      340.451       14.481      865.653
01/28/2014  20:34:00      -84.498       -4.754        0.191       28.273       33.729       21.216      799.375     1137.645      450.125        0.477        0.119       84.632       17.588        0.043      340.446       14.473      865.655
01/28/2014  20:35:00       -3.601      -45.166        7.865       21.795       54.587       18.195      475.038     2979.722      331.055        0.295        0.189       45.310       21.661        0.229      340.487       14.539      865.642
01/28/2014  20:36:00      -57.433     -117.412       -3.598       51.473       41.382       32.430     2649.467     1712.432     1051.710        1.125        0.271      130.706       11.792        0.008      340.498       14.557      865.627
01/28/2014  20:37:00      -74.430       26.478       -0.622       43.575       81.030       25.263     1898.822     6565.920      638.194        0.767        0.455       79.000       23.253        0.087      340.482       14.532      865.632
01/28/2014  20:38:00      -51.041        2.231        7.695       35.130       23.493       17.042     1234.120      551.912      290.438        0.237        0.104       51.090       16.952        0.110      340.445       14.470      865.649
01/28/2014  20:39:00      -83.939      -25.905       -5.212       41.942       33.197       19.738     1759.159     1102.049      389.582        0.550        0.163       87.845       15.475        0.031      340.435       14.453      865.668
01/28/2014  20:40:00     -117.297      -47.967      -17.158       40.636       26.466       27.177     1651.319      700.442      738.568        0.972        0.155      126.726       19.943        0.025      340.475       14.521      865.678
01/28/2014  20:41:00      -70.521      -35.377      -16.705       24.880       20.097       15.514      619.020      403.882      240.685        0.388        0.063       78.897       14.860        0.035      340.502       14.566      865.690
01/28/2014  20:42:00      -36.255      -17.535       -4.763       27.258       34.965       16.833      743.000     1222.565      283.364        0.195        0.112       40.273       15.199        0.142      340.483       14.533      865.708
01/28/2014  20:43:00      -72.467       35.075       -4.601       36.831       27.408       13.896     1356.503      751.172      193.108        0.440        0.115       80.509       13.402        0.028      340.414       14.417      865.724
01/28/2014  20:44:00      -95.565       31.850       -9.513       28.001       20.711       12.806      784.065      428.945      164.005        0.581        0.069      100.732        5.223        0.003      340.359       14.325      865.755
01/28/2014  20:45:00      -58.809       16.861       -0.855       31.350       27.918       13.015      982.801      779.432      169.398        0.284        0.097       61.178       16.758        0.075      340.391       14.377      865.777
01/28/2014  20:46:00      -71.352       17.559       -1.537       25.173       19.672       11.984      633.682      386.985      143.626        0.328        0.058       73.481       11.640        0.025      340.402       14.400      865.799
01/28/2014  20:47:00      -62.795       13.680       -5.399       15.686       17.267        8.452      246.050      298.156       71.433        0.239        0.031       64.268        6.270        0.010      340.408       14.406      865.814
01/28/2014  20:48:00      -85.033      -18.219      -10.461       22.235       15.510       11.230      494.387      240.550      126.120        0.427        0.043       86.963       11.059        0.016      340.383       14.368      865.824
01/28/2014  20:49:00      -38.799      -32.894        1.668       22.767       14.850       14.943      518.325      220.520      223.281        0.178        0.048       50.867       12.396        0.059      340.372       14.349      865.825
01/28/2014  20:50:00      -83.366      -34.912       -5.152       25.170       21.798       15.501      633.517      475.134      240.283        0.477        0.067       90.381       11.247        0.015      340.383       14.370      865.832
01/28/2014  20:51:00     -156.975       30.949       -7.751       87.996       42.744       24.901     7743.371     1827.058      620.043        1.792        0.510      159.997       32.664        0.042      340.399       14.391      865.840
01/28/2014  20:52:00     -138.481       16.412      -16.931       43.970       30.022       17.600     1933.374      901.340      309.776        1.144        0.157      139.450       12.864        0.009      340.402       14.397      865.854
01/28/2014  20:53:00      -68.934      -19.840       -7.232       16.622       24.733       12.291      276.303      611.714      151.061        0.312        0.052       71.732        4.832        0.005      340.391       14.382      865.867
01/28/2014  20:54:00     -113.061        0.996       -5.497       30.333       28.263       20.129      920.115      798.821      405.185        0.747        0.106      113.066       12.576        0.012      340.376       14.357      865.884
01/28/2014  20:55:00      -72.528       10.258       -3.571       30.741       30.964       17.518      945.021      958.799      306.892        0.379        0.111       73.250       14.362        0.038      340.344       14.300      865.892
01/28/2014  20:56:00      -59.866      -20.642       -1.398       31.700       29.719       13.573     1004.920      883.191      184.228        0.304        0.104       63.325        5.969        0.009      340.365       14.339      865.898
01/28/2014  20:57:00      -55.054       -0.449       -2.584       27.392       19.232       12.082      750.306      369.870      145.969        0.215        0.063       55.056        8.841        0.026      340.360       14.330      865.902
01/28/2014  20:58:00      -60.691      -11.686       -0.484       35.297       29.316       16.758     1245.856      859.414      280.825        0.310        0.119       61.806       15.191        0.060      340.306       14.235      865.895
01/28/2014  20:59:00      -44.318      -29.457        0.236       31.324       35.566       19.301      981.176     1264.937      372.510        0.272        0.131       53.214       10.571        0.039      340.318       14.255      865.880
01/28/2014  21:00:00      -96.120      -50.952       -4.296       38.033       28.007       20.391     1446.491      784.407      415.780        0.725        0.132      108.789       18.566        0.029      340.315       14.252      865.865
01/28/2014  21:01:00      -94.882      -52.084       -4.566       34.563       28.648       20.149     1194.611      820.716      405.999        0.708        0.121      108.237       13.217        0.015      340.311       14.243      865.841
01/28/2014  21:02:00      -99.093        2.942        3.960       66.709       45.033       29.015     4450.090     2027.967      841.883        0.858        0.366       99.137       37.501        0.143      340.320       14.258      865.808
01/28/2014  21:03:00     -177.758      -18.776       -3.830       85.508       53.261       38.549     7311.568     2836.715     1486.042        2.180        0.582      178.747       38.386        0.046      340.311       14.240      865.792
01/28/2014  21:04:00     -231.612      -28.449      -12.334       58.337       58.385       34.195     3403.182     3408.785     1169.325        3.129        0.399      233.352       24.100        0.011      340.285       14.196      865.766
01/28/2014  21:05:00     -249.440      -32.240      -14.592       84.270       73.440       42.997     7101.469     5393.442     1848.779        3.891        0.717      251.515       45.437        0.033      340.272       14.173      865.736
01/28/2014  21:06:00     -106.822      -25.657        6.619       53.708       44.038       28.894     2884.563     1939.304      834.880        0.888        0.283      109.860       27.373        0.062      340.263       14.162      865.690
01/28/2014  21:07:00     -151.550      -53.167       -0.575       68.658       51.275       28.024     4713.904     2629.175      785.343        1.696        0.406      160.605       27.795        0.030      340.245       14.133      865.631
01/28/2014  21:08:00     -162.111      -63.295       -5.504       73.942       61.116       33.278     5467.391     3735.205     1107.413        2.031        0.516      174.029       33.934        0.038      340.288       14.204      865.578
01/28/2014  21:09:00     -135.536      -52.263        1.358       61.830       53.648       33.489     3822.938     2878.138     1121.511        1.446        0.391      145.264       31.663        0.048      340.256       14.150      865.539
01/28/2014  21:10:00     -120.358      -35.032        1.452       71.933       77.943       42.012     5174.368     6075.052     1764.998        1.436        0.651      125.353       38.190        0.093      340.304       14.230      865.524
01/28/2014  21:11:00     -203.690      -44.522      -15.791       71.621       72.708       40.470     5129.572     5286.465     1637.853        2.789        0.603      208.499       31.009        0.022      340.290       14.206      865.532
01/28/2014  21:12:00     -229.648      -63.311      -18.922       69.758       57.595       31.988     4866.142     3317.235     1023.219        3.315        0.460      238.215       28.600        0.014      340.267       14.165      865.552
01/28/2014  21:13:00     -187.186      -45.307        0.524       83.389       52.638       41.863     6953.711     2770.771     1752.542        2.428        0.574      192.591       46.061        0.057      340.236       14.116      865.565
01/28/2014  21:14:00     -182.416      -56.865       -4.158       57.782       54.142       36.334     3338.706     2931.304     1320.139        2.206        0.380      191.074       32.327        0.029      340.235       14.112      865.568
01/28/2014  21:15:00     -196.447      -71.435        3.673       63.239       48.748       40.692     3999.214     2376.364     1655.800        2.587        0.402      209.032       38.132        0.033      340.250       14.138      865.561
01/28/2014  21:16:00     -160.662      -56.398        0.938       77.499       57.306       31.289     6006.129     3283.955      979.021        1.963        0.513      170.273       34.111        0.040      340.220       14.089      865.552
01/28/2014  21:17:00     -169.279      -45.882       -0.403       55.530       58.555       31.595     3083.563     3428.631      998.221        1.913        0.376      175.387       25.666        0.021      340.234       14.113      865.541
01/28/2014  21:18:00     -192.948      -43.446       -7.201      108.845       63.605       39.833    11847.295     4045.579     1586.669        2.832        0.874      197.778       51.901        0.069      340.243       14.128      865.522
01/28/2014  21:19:00     -176.992      -72.040        2.758       73.340       70.946       40.982     5378.721     5033.359     1679.553        2.431        0.605      191.092       35.366        0.034      340.228       14.101      865.524
01/28/2014  21:20:00     -198.378      -93.356       -0.407       61.185       70.977       37.829     3743.596     5037.717     1431.001        2.914        0.511      219.247       29.896        0.019      340.224       14.093      865.532
01/28/2014  21:21:00     -236.582      -51.492       -0.989       81.023       71.737       39.928     6564.801     5146.133     1594.284        3.596        0.665      242.121       41.607        0.030      340.207       14.065      865.551
01/28/2014  21:22:00     -201.687      -81.929      -11.976       57.024       73.094       39.774     3251.766     5342.724     1581.932        2.885        0.509      217.693       22.272        0.010      340.209       14.068      865.577
01/28/2014  21:23:00     -265.159     -118.924      -11.941       79.334       53.901       36.855     6293.906     2905.303     1358.275        4.757        0.528      290.607       32.146        0.012      340.221       14.086      865.633
01/28/2014  21:24:00     -240.346      -86.291       -8.513       85.647       73.569       43.912     7335.440     5412.452     1928.256        3.998        0.734      255.367       44.285        0.030      340.216       14.079      865.705
01/28/2014  21:25:00     -199.567      -93.606      -13.158       72.185       64.212       37.552     5210.713     4123.119     1410.139        2.975        0.537      220.429       24.223        0.012      340.207       14.064      865.775
01/28/2014  21:26:00     -211.438      -95.958       -1.195       76.984       84.133       45.979     5926.497     7078.343     2114.029        3.451        0.756      232.194       45.419        0.038      340.192       14.039      865.828
01/28/2014  21:27:00     -257.833      -58.192      -11.430       67.641       65.210       41.992     4575.268     4252.395     1763.322        4.029        0.530      264.318       36.512        0.019      340.206       14.061      865.851
01/28/2014  21:28:00     -222.598      -27.851       -5.154       95.996       52.754       35.573     9215.287     2782.945     1265.462        3.181        0.663      224.334       39.990        0.032      340.202       14.056      865.855
01/28/2014  21:29:00     -240.844      -21.709      -11.081      107.739       71.929       38.956    11607.619     5173.785     1517.565        3.845        0.915      241.821       41.306        0.029      340.219       14.085      865.854
01/28/2014  21:30:00     -198.622      -36.477      -21.533       86.116       84.039       37.335     7415.918     7062.493     1393.880        2.856        0.794      201.944       34.579        0.029      340.200       14.053      865.847
01/28/2014  21:31:00     -202.834      -78.541      -15.908       68.076       42.603       30.794     4634.389     1814.979      948.258        2.748        0.370      217.509       26.050        0.014      340.226       14.098      865.835
01/28/2014  21:32:00     -153.644      -44.975        5.409       93.672       48.807       39.329     8774.377     2382.122     1546.774        1.918        0.635      160.091       50.680        0.100      340.201       14.056      865.813
01/28/2014  21:33:00     -128.606      -30.264       -3.640       64.367       43.243       25.865     4143.151     1869.951      669.023        1.207        0.334      132.119       29.488        0.050      340.180       14.022      865.783
01/28/2014  21:34:00     -165.669      -46.084      -11.260       42.858       44.484       31.656     1836.836     1978.831     1002.092        1.726        0.241      171.959       22.728        0.017      340.174       14.012      865.758
01/28/2014  21:35:00      -99.100        2.813        0.667       50.495       43.742       26.713     2549.784     1913.397      713.602        0.750        0.259       99.139       27.175        0.075      340.165       13.997      865.720
01/28/2014  21:36:00     -106.229      -59.759        3.011       72.565       56.563       32.066     5265.667     3199.342     1028.237        1.218        0.475      121.885       34.155        0.079      340.187       14.034      865.689
01/28/2014  21:37:00     -161.489       -8.696       -5.099       60.664       50.905       28.853     3680.133     2591.315      832.498        1.664        0.355      161.723       27.543        0.029      340.165       13.995      865.665
01/28/2014  21:38:00     -150.301      -13.330       -7.035       78.667       49.878       34.451     6188.436     2487.768     1186.882        1.634        0.493      150.891       37.694        0.062      340.181       14.022      865.639
01/28/2014  21:39:00      -89.691      -56.940       -0.820       55.864       45.725       27.732     3120.830     2090.820      769.044        0.863        0.299      106.238       30.497        0.082      340.208       14.071      865.623
01/28/2014  21:40:00     -173.761      -55.401       -9.810       99.920       49.450       31.501     9983.989     2445.331      992.320        2.339        0.671      182.380       43.331        0.056      340.218       14.082      865.620
01/28/2014  21:41:00     -137.951      -78.003       -5.610       48.418       56.110       30.748     2344.330     3148.293      945.418        1.579        0.322      158.477       25.998        0.027      340.171       14.008      865.641
01/28/2014  21:42:00     -115.485      -56.659       -2.127       41.657       53.234       31.543     1735.316     2833.892      994.940        1.106        0.278      128.635       23.356        0.033      340.134       13.945      865.678
01/28/2014  21:43:00     -147.777      -31.452       -9.293       84.065       48.044       28.416     7066.935     2308.192      807.458        1.655        0.509      151.087       32.287        0.046      340.131       13.939      865.691
01/28/2014  21:44:00     -165.068       -0.981       -4.859       54.890       49.683       36.780     3012.922     2468.407     1352.777        1.705        0.342      165.071       35.721        0.047      340.114       13.910      865.696
01/28/2014  21:45:00     -226.287      -49.654       -9.628       64.888       54.730       31.238     4210.478     2995.416      975.810        3.097        0.409      231.671       25.610        0.012      340.144       13.960      865.696
01/28/2014  21:46:00     -137.062      -97.212       -1.278       73.669       72.446       44.670     5427.136     5248.475     1995.400        2.045        0.634      168.036       37.270        0.049      340.124       13.926      865.685
01/28/2014  21:47:00     -128.961      -31.711        4.217       78.984       51.097       36.669     6238.510     2610.862     1344.586        1.392        0.510      132.803       37.386        0.079      340.121       13.923      865.672
01/28/2014  21:48:00     -101.496      -68.023        0.261       66.026       57.822       31.013     4359.478     3343.331      961.812        1.180        0.433      122.183       33.242        0.074      340.100       13.886      865.660
01/28/2014  21:49:00     -140.208      -79.489      -12.171       70.168       56.436       33.356     4923.501     3184.975     1112.597        1.767        0.461      161.173       27.970        0.030      340.133       13.940      865.649
01/28/2014  21:50:00      -63.621      -41.099        2.918       55.362       41.376       28.891     3064.897     1711.977      834.676        0.568        0.281       75.742       30.605        0.163      340.132       13.942      865.659
01/28/2014  21:51:00     -109.053      -32.241        5.793       62.458       61.890       31.934     3900.986     3830.350     1019.778        1.086        0.438      113.719       25.455        0.050      340.121       13.923      865.680
01/28/2014  21:52:00     -118.476      -31.275        5.446       50.697       53.499       27.267     2570.154     2862.191      743.504        1.061        0.309      122.535       22.214        0.033      340.148       13.968      865.684
01/28/2014  21:53:00     -111.609      -21.475       -4.290       29.377       36.698       16.464      863.029     1346.772      271.047        0.771        0.124      113.656        9.608        0.007      340.131       13.940      865.688
01/28/2014  21:54:00     -195.434        5.711      -21.498       42.305       39.390       30.445     1789.736     1551.558      926.890        2.148        0.213      195.517       20.592        0.011      340.120       13.921      865.690
01/28/2014  21:55:00     -168.106      -26.008       -8.118       46.271       45.589       23.190     2140.975     2078.324      537.773        1.688        0.238      170.106       22.345        0.017      340.112       13.908      865.693
01/28/2014  21:56:00     -156.724        1.472       -4.780       69.840       44.995       40.380     4877.690     2024.532     1630.547        1.656        0.427      156.731       44.006        0.079      340.090       13.870      865.686
01/28/2014  21:57:00     -162.320      -63.019       -2.199       65.191       61.806       35.384     4249.838     3819.924     1252.061        1.982        0.466      174.125       32.119        0.034      340.064       13.825      865.680
01/28/2014  21:58:00     -120.264      -31.284       -5.773       44.645       38.978       24.059     1993.142     1519.294      578.835        0.978        0.205      124.267       22.216        0.032      340.058       13.816      865.689
01/28/2014  21:59:00     -115.041      -14.551       -2.059       24.306       31.089       20.816      590.763      966.517      433.307        0.772        0.100      115.958       15.926        0.019      340.039       13.785      865.720
01/28/2014  22:00:00     -165.035       16.833      -24.850       32.276       42.659       26.283     1041.713     1819.832      690.804        1.584        0.178      165.891       11.416        0.005      340.057       13.814      865.765
01/28/2014  22:01:00     -142.609      -30.153      -10.472       40.064       42.848       25.399     1605.160     1835.965      645.123        1.272        0.204      145.762       23.876        0.027      340.025       13.759      865.798
01/28/2014  22:02:00     -108.660      -52.435       -5.618       45.014       36.086       23.531     2026.292     1302.226      553.715        0.923        0.194      120.650       19.087        0.025      339.985       13.693      865.821
01/28/2014  22:03:00     -134.670      -40.745      -23.860       31.657       38.814       23.910     1002.166     1506.547      571.680        1.172        0.154      140.699       23.138        0.027      339.992       13.705      865.844
01/28/2014  22:04:00     -115.295      -50.697       -6.188       42.671       46.640       29.079     1820.845     2175.253      845.597        1.037        0.242      125.949       25.943        0.042      339.948       13.630      865.847
01/28/2014  22:05:00      -84.292      -35.331       -7.215       35.142       39.207       22.590     1234.927     1537.201      510.325        0.584        0.164       91.397       17.337        0.036      339.987       13.696      865.820
01/28/2014  22:06:00      -68.902      -14.805       -9.293       22.057       29.437       22.952      486.530      866.550      526.785        0.347        0.094       70.475       14.327        0.041      339.984       13.692      865.787
01/28/2014  22:07:00     -136.687        4.791      -11.202       48.105       36.337       24.731     2314.099     1320.392      611.632        1.154        0.212      136.771       24.367        0.032      340.008       13.732      865.757
01/28/2014  22:08:00      -93.660        0.288      -18.731       30.962       36.200       18.731      958.640     1310.442      350.862        0.587        0.131       93.660        9.540        0.010      339.985       13.694      865.748
01/28/2014  22:09:00     -115.703      -18.354      -13.818       41.801       28.480       23.849     1747.353      811.098      568.771        0.852        0.156      117.150       22.678        0.037      339.957       13.648      865.737
01/28/2014  22:10:00      -58.872        0.263      -10.528       49.199       28.133       26.432     2420.569      791.462      698.665        0.374        0.196       58.872       27.664        0.221      339.926       13.593      865.704
01/28/2014  22:11:00      -59.136      -36.729       -4.160       35.932       48.815       34.702     1291.140     2382.916     1204.195        0.487        0.244       69.614       23.146        0.111      339.929       13.599      865.666
01/28/2014  22:12:00     -154.889      -23.505      -18.892       49.181       63.713       24.038     2418.814     4059.323      577.811        1.598        0.353      156.663       12.198        0.006      339.930       13.599      865.633
01/28/2014  22:13:00     -138.073      -30.226      -13.697       31.337       30.685       20.175      981.977      941.599      407.035        1.125        0.117      141.343       12.963        0.008      339.921       13.588      865.596
01/28/2014  22:14:00     -140.332      -17.327      -15.856       49.406       51.621       22.792     2440.987     2664.677      519.457        1.293        0.281      141.398       17.469        0.015      339.884       13.523      865.578
01/28/2014  22:15:00     -150.697      -26.495      -13.274       53.467       49.702       26.700     2858.669     2470.247      712.914        1.481        0.302      153.008       21.952        0.021      339.874       13.505      865.575
01/28/2014  22:16:00     -184.744      -75.570      -10.433       91.380       65.220       42.812     8350.366     4253.622     1832.890        2.719        0.722      199.602       43.073        0.047      339.860       13.480      865.565
01/28/2014  22:17:00     -155.773      -71.051       -4.237      101.635       81.846       45.748    10329.739     6698.712     2092.837        2.422        0.956      171.212       51.012        0.089      339.859       13.478      865.527
01/28/2014  22:18:00     -182.759      -81.263      -11.915       62.263       59.627       38.842     3876.657     3555.403     1508.709        2.454        0.447      200.011       30.743        0.024      339.853       13.467      865.513
01/28/2014  22:19:00     -151.044      -66.358       -0.461       81.979       61.347       36.025     6720.600     3763.493     1297.792        1.950        0.589      164.978       39.757        0.058      339.814       13.403      865.511
01/28/2014  22:20:00      -53.503      -34.781       13.434       64.268       50.922       37.454     4130.365     2593.081     1402.807        0.619        0.406       63.814       28.284        0.196      339.751       13.299      865.494
01/28/2014  22:21:00     -104.755      -46.038       -9.721       41.516       49.030       28.599     1723.574     2403.928      817.902        0.907        0.247      114.425       18.972        0.027      339.802       13.385      865.465
01/28/2014  22:22:00      -87.701      -21.706        1.152       60.183       43.861       31.535     3622.013     1923.757      994.479        0.735        0.327       90.347       34.252        0.144      339.824       13.423      865.442
01/28/2014  22:23:00      -89.007       17.906      -19.996       53.481       45.832       41.992     2860.259     2100.591     1763.289        0.768        0.336       90.790       30.313        0.111      339.876       13.509      865.403
01/28/2014  22:24:00      -66.450        9.532       -6.308       55.949       54.312       26.378     3130.329     2949.843      695.776        0.566        0.339       67.130       12.391        0.034      339.879       13.514      865.368
01/28/2014  22:25:00      -85.140       51.447      -13.963       88.568       62.802       45.134     7844.214     3944.125     2037.044        1.196        0.691       99.476       50.546        0.258      339.929       13.598      865.311
01/28/2014  22:26:00     -125.303       -0.548      -12.816       73.213       55.067       37.686     5360.096     3032.333     1420.210        1.284        0.491      125.304       41.065        0.107      339.941       13.618      865.271
01/28/2014  22:27:00      -76.134       -0.346      -15.555       38.873       40.320       24.561     1511.133     1625.717      603.218        0.489        0.187       76.135       12.498        0.027      339.955       13.644      865.233
01/28/2014  22:28:00     -101.609       33.357      -14.921       30.023       76.934       26.171      901.398     5918.811      684.921        0.958        0.375      106.944       18.548        0.030      339.957       13.646      865.193
01/28/2014  22:29:00      -96.143       -3.404      -17.416       50.850       74.631       21.038     2585.710     5569.847      442.590        0.908        0.430       96.203       19.593        0.041      339.962       13.655      865.164
01/28/2014  22:30:00       -7.257       -8.731       -0.021       51.888       34.514       16.055     2692.342     1191.223      257.751        0.213        0.207       11.354       17.808        2.460      339.891       13.532      865.156
01/28/2014  22:31:00     -117.362       83.270      -33.179       63.029       45.479       29.365     3972.702     2068.352      862.317        1.435        0.345      143.902       28.013        0.038      339.953       13.640      865.133
01/28/2014  22:32:00      -47.238      -33.134        3.559       48.846       40.391       23.440     2385.946     1631.458      549.424        0.395        0.228       57.700       29.558        0.262      339.841       13.452      865.119
01/28/2014  22:33:00      -23.872      -40.376        9.651       58.133       52.597       25.654     3379.496     2766.400      658.118        0.455        0.340       46.905       33.360        0.506      339.841       13.451      865.112
01/28/2014  22:34:00      -78.993      -64.943       -8.473       63.170       35.763       33.932     3990.490     1278.963     1151.368        0.847        0.321      102.262       23.889        0.055      339.745       13.291      865.097
01/28/2014  22:35:00      -95.491      -37.658       -1.008       46.206       45.796       21.286     2135.022     2097.276      453.108        0.761        0.234      102.649       23.295        0.052      339.741       13.283      865.085
01/28/2014  22:36:00      -92.960      -42.747       -9.248       33.189       36.469       16.506     1101.493     1329.967      272.453        0.663        0.135      102.318       15.305        0.022      339.728       13.261      865.078
01/28/2014  22:37:00     -122.455      -60.739       -4.853       30.102       49.782       24.168      906.144     2478.204      584.109        1.134        0.198      136.691       16.957        0.015      339.723       13.252      865.081
01/28/2014  22:38:00     -103.805      -83.142      -12.867       52.330       39.071       23.315     2738.438     1526.581      543.578        1.133        0.240      132.997       24.991        0.035      339.751       13.299      865.089
01/28/2014  22:39:00      -64.315      -38.138       11.572       49.513       20.667       22.491     2451.546      427.138      505.850        0.455        0.169       74.773       22.829        0.093      339.783       13.354      865.098
01/28/2014  22:40:00     -117.387      -53.734       -4.687       39.023       41.154       20.614     1522.829     1693.692      424.929        1.016        0.182      129.101       17.120        0.018      339.830       13.432      865.108
01/28/2014  22:41:00      -70.397       -9.841        2.526       35.768       27.747       16.483     1279.358      769.904      271.677        0.369        0.116       71.082       16.818        0.056      339.775       13.341      865.104
01/28/2014  22:42:00      -76.409      -22.998       -4.795       23.979       19.036       12.979      574.976      362.364      168.458        0.375        0.055       79.795        7.366        0.009      339.819       13.416      865.107
01/28/2014  22:43:00      -20.802      -21.838        8.594       27.721       13.737       16.741      768.480      188.702      280.247        0.111        0.062       30.160       15.184        0.253      339.804       13.391      865.135
01/28/2014  22:44:00       27.946      -51.299      -11.208       16.073       19.678        9.945      258.352      387.227       98.906        0.214        0.037       58.417        4.336        0.006      339.873       13.505      865.155
01/28/2014  22:45:00      -21.501      -34.446        3.989       38.844       17.971       16.300     1508.874      322.960      265.689        0.188        0.105       40.605        7.418        0.033      339.934       13.607      865.151
01/28/2014  22:46:00      -13.012        2.424        8.570       28.068       25.645       19.603      787.818      657.644      384.271        0.104        0.091       13.236        8.724        0.434      339.798       13.378      865.135
01/28/2014  22:47:00       23.686       -7.898       47.686       32.883       31.976       32.720     1081.320     1022.461     1070.609        0.304        0.159       24.968       20.833        0.696      339.728       13.260      865.103
01/28/2014  22:48:00       56.380      -24.078       43.913       54.868       70.064       60.365     3010.511     4908.906     3643.987        0.862        0.578       61.306       46.760        0.582      339.753       13.303      865.068
01/28/2014  22:49:00       91.854      -70.258       23.860       72.777       96.441       68.688     5296.563     9300.819     4718.067        1.663        0.966      115.644       55.386        0.229      339.721       13.247      865.053
01/28/2014  22:50:00      142.616     -130.138       -2.372       92.177      102.304       60.001     8496.528    10466.126     3600.173        2.992        1.128      193.068       67.392        0.122      339.690       13.194      865.046
01/28/2014  22:51:00       35.736       49.133       77.869       53.249       63.321       47.621     2835.452     4009.526     2267.738        0.943        0.456       60.755       47.862        0.621      339.549       12.960      865.073
01/28/2014  22:52:00       70.516      -18.158       47.808       63.456       79.731       54.288     4026.603     6357.039     2947.205        1.046        0.667       72.816       64.069        0.774      339.505       12.883      865.115
01/28/2014  22:53:00       65.272       10.013       51.582       53.231       42.528       39.825     2833.540     1808.672     1586.007        0.662        0.311       66.035       32.783        0.246      339.461       12.810      865.166
01/28/2014  22:54:00       50.521      -33.204        3.282       30.995       23.564       26.039      960.664      555.263      678.029        0.293        0.110       60.456       22.312        0.136      339.586       13.021      865.172
01/28/2014  22:55:00      -18.901      -44.802        2.172       46.518       29.053       16.255     2163.911      844.099      264.223        0.282        0.164       48.625       11.737        0.058      339.610       13.063      865.171
01/28/2014  22:56:00        3.477        9.731       13.129       31.203       18.315       14.565      973.640      335.427      212.125        0.090        0.076       10.334       14.969        2.098      339.535       12.936      865.172
01/28/2014  22:57:00      -65.646      -20.440       -4.594       26.617       28.024       16.050      708.446      785.357      257.605        0.325        0.088       68.755       13.663        0.039      339.504       12.883      865.186
01/28/2014  22:58:00        4.244      -14.446      -16.467       24.791       28.782       18.663      614.600      828.382      348.296        0.114        0.090       15.057       17.503        1.351      339.593       13.033      865.189
01/28/2014  22:59:00      -15.842      -13.790       -1.910       27.798       23.208       15.686      772.730      538.631      246.063        0.100        0.078       21.003        7.364        0.123      339.593       13.032      865.189
01/28/2014  23:00:00        2.072      -64.029       -0.491       34.490       42.013       19.726     1189.537     1765.110      389.109        0.372        0.167       64.062       15.054        0.055      339.769       13.330      865.193
01/28/2014  23:01:00        1.393      -23.175       11.760       27.540       35.442       22.020      758.469     1256.159      484.902        0.159        0.125       23.217       17.684        0.580      339.665       13.154      865.212
01/28/2014  23:02:00      -52.811      -32.320        1.897       33.491       30.417       16.024     1121.639      925.194      256.775        0.307        0.115       61.916       11.594        0.035      339.570       12.996      865.237
01/28/2014  23:03:00      -13.677      -12.528       14.040       27.587       22.621       15.795      761.069      511.699      249.491        0.103        0.076       18.547       13.819        0.555      339.607       13.058      865.252
01/28/2014  23:04:00       -1.425       64.528       89.946       31.521       54.531       48.907      993.588     2973.584     2391.926        0.931        0.318       64.544       46.802        0.526      339.616       13.071      865.241
01/28/2014  23:05:00       -4.083       64.655      108.499       31.698       72.130       40.523     1004.739     5202.753     1642.130        1.191        0.392       64.783       48.108        0.551      339.523       12.914      865.236
01/28/2014  23:06:00       15.237       22.623       89.707       37.064       43.645       26.007     1373.723     1904.877      676.360        0.637        0.198       27.276       15.075        0.305      339.544       12.950      865.257
01/28/2014  23:07:00       56.429     -129.583        8.240       47.254       48.780       32.269     2232.952     2379.447     1041.283        1.285        0.283      141.337       30.197        0.046      339.664       13.152      865.272
01/28/2014  23:08:00      109.527     -119.088       -4.154       58.163       37.919       27.865     3382.946     1437.870      776.466        1.590        0.280      161.796       22.199        0.019      339.672       13.165      865.266
01/28/2014  23:09:00       95.994     -111.617      -21.368       38.487       46.871       19.998     1481.285     2196.926      399.938        1.310        0.204      147.218       10.262        0.005      339.694       13.203      865.282
01/28/2014  23:10:00       45.286      -76.016        7.589       44.661       37.430       30.663     1994.621     1400.971      940.227        0.611        0.217       88.483       27.272        0.095      339.698       13.208      865.315
01/28/2014  23:11:00      -12.326      -50.051       11.256       21.382       27.110       24.175      457.197      734.977      584.448        0.228        0.089       51.546       18.526        0.129      339.627       13.090      865.353
01/28/2014  23:12:00        8.506      -77.492        0.135       36.318       26.173       26.242     1319.020      685.013      688.618        0.438        0.135       77.958       16.813        0.047      339.518       12.906      865.371
01/28/2014  23:13:00      -34.544       -0.761      -10.015       22.572       26.772       14.300      509.501      716.727      204.476        0.136        0.072       34.552       10.443        0.091      339.353       12.628      865.388
01/28/2014  23:14:00      -51.019        6.758       -8.827       12.269        7.871       10.001      150.538       61.947      100.027        0.152        0.016       51.465        6.629        0.017      339.462       12.814      865.386
01/28/2014  23:15:00      -24.258        1.610        1.876        8.601        4.544        4.693       73.983       20.650       22.025        0.036        0.006       24.311        1.762        0.005      339.484       12.849      865.385
01/28/2014  23:16:00       14.206      -10.653        5.217       18.497       21.636       10.657      342.131      468.119      113.572        0.063        0.046       17.756        4.342        0.060      339.491       12.861      865.384
01/28/2014  23:17:00       41.947       12.783       27.586       44.555       38.455       33.032     1985.193     1478.755     1091.090        0.362        0.228       43.852       34.272        0.611      339.501       12.876      865.359
01/28/2014  23:18:00       10.669       13.987       41.322       25.432       22.379       18.754      646.806      500.799      351.699        0.176        0.075       17.592        9.507        0.292      339.441       12.778      865.355
01/28/2014  23:19:00       -2.156        1.952       28.844       21.990       30.272       22.749      483.576      916.383      517.514        0.138        0.096        2.908       18.590       40.858      339.375       12.666      865.352
01/28/2014  23:20:00       63.054     -107.699      -21.851       43.709       48.076       31.217     1910.482     2311.294      974.527        1.062        0.260      124.799       29.902        0.057      339.445       12.784      865.326
01/28/2014  23:21:00       91.591     -128.945      -21.916       34.245       32.047       21.893     1172.728     1026.982      479.283        1.409        0.134      158.164       15.217        0.009      339.348       12.619      865.286
01/28/2014  23:22:00       57.597      -67.707      -21.205       40.982       46.443       29.312     1679.535     2156.920      859.196        0.652        0.235       88.891       19.680        0.049      339.324       12.577      865.228
01/28/2014  23:23:00       27.142      -18.123        6.783       27.227       32.743       27.651      741.308     1072.094      764.587        0.184        0.129       32.636       24.214        0.550      339.290       12.522      865.174
01/28/2014  23:24:00       10.595        9.513       23.409       14.056       11.511       16.115      197.561      132.514      259.702        0.067        0.029       14.239       10.417        0.535      339.237       12.433      865.145
01/28/2014  23:25:00       73.226       39.090       16.666       34.981       14.682       20.116     1223.638      215.559      404.661        0.451        0.092       83.007       18.892        0.052      339.254       12.459      865.139
01/28/2014  23:26:00       91.581       40.177        4.110       13.181       17.947       11.185      173.748      322.110      125.097        0.532        0.031      100.007        8.823        0.008      339.288       12.518      865.131
01/28/2014  23:27:00       72.810       40.518       18.946       26.411       21.311       25.504      697.547      454.159      650.471        0.455        0.090       83.325       17.354        0.043      339.251       12.457      865.138
01/28/2014  23:28:00       54.806       26.691       10.139       30.939       17.491       16.497      957.235      305.937      272.164        0.268        0.077       60.960       15.375        0.064      339.223       12.408      865.173
01/28/2014  23:29:00       50.131       19.513        9.791       32.893       28.908       17.889     1081.932      835.659      320.014        0.261        0.112       53.795       13.683        0.065      339.179       12.335      865.201
01/28/2014  23:30:00       80.975       39.606        4.829       22.870       21.342       16.568      523.025      455.481      274.487        0.470        0.063       90.142       11.442        0.016      339.089       12.182      865.221
01/28/2014  23:31:00       81.375       39.239       27.164       42.031       25.844       25.233     1766.574      667.909      636.693        0.598        0.154       90.341       18.227        0.041      339.105       12.210      865.225
01/28/2014  23:32:00       69.282       22.035        7.288       45.440       25.902       24.025     2064.779      670.929      577.189        0.433        0.166       72.702       16.712        0.053      339.117       12.230      865.241
01/28/2014  23:33:00       31.230       20.216       32.077       32.907       22.679       21.250     1082.856      514.354      451.549        0.223        0.102       37.203       22.520        0.366      339.122       12.239      865.261
01/28/2014  23:34:00       22.766       41.085       49.721       27.565       21.701       19.227      759.832      470.950      369.677        0.314        0.080       46.971       19.080        0.165      339.151       12.287      865.254
01/28/2014  23:35:00       14.881       56.187       55.130       18.332       22.629       17.766      336.064      512.059      315.643        0.379        0.058       58.124       16.490        0.080      339.164       12.310      865.234
01/28/2014  23:36:00       24.319       63.988       64.159       34.030       29.386       27.132     1158.071      863.551      736.159        0.578        0.138       68.453       26.804        0.153      339.114       12.223      865.214
01/28/2014  23:37:00       43.885       86.997       80.203       44.077       46.959       32.378     1942.749     2205.143     1048.324        1.056        0.260       97.440       28.286        0.084      339.075       12.161      865.208
01/28/2014  23:38:00       61.302       66.289       58.925       68.031       31.912       30.885     4628.246     1018.403      953.902        0.911        0.330       90.289       29.906        0.110      339.036       12.094      865.225
01/28/2014  23:39:00       15.194        1.720       26.140       24.441       19.462       17.783      597.359      378.778      316.246        0.110        0.065       15.291       15.299        1.001      338.978       11.998      865.268
01/28/2014  23:40:00       11.315      -26.554        4.601       12.396       15.235       14.796      153.651      232.104      218.910        0.073        0.030       28.864        8.344        0.084      338.987       12.013      865.288
01/28/2014  23:41:00      -39.745      -20.839       -1.761       28.852       15.515        9.817      832.436      240.728       96.372        0.159        0.058       44.876       10.843        0.058      338.994       12.024      865.309
01/28/2014  23:42:00      -35.233      -23.781       -0.359       18.722       15.040       10.564      350.512      226.190      111.590        0.125        0.034       42.507        6.090        0.021      338.955       11.959      865.347
01/28/2014  23:43:00      -64.378      -15.630       -1.088       19.572       20.415       13.295      383.071      416.757      176.755        0.268        0.049       66.248       10.299        0.024      338.909       11.881      865.379
01/28/2014  23:44:00      -27.600       13.506        0.667       11.428       11.626        7.377      130.605      135.170       54.421        0.063        0.016       30.727        4.963        0.026      339.026       12.078      865.385
01/28/2014  23:45:00      -28.795       28.926      -12.188       25.625       14.771        8.881      656.660      218.170       78.863        0.138        0.048       40.815        6.724        0.027      339.294       12.529      865.378
01/28/2014  23:46:00       28.772       70.462       -8.224       18.528       32.900       21.880      343.296     1082.400      478.723        0.388        0.095       76.110       11.647        0.023      339.356       12.635      865.363
01/28/2014  23:47:00      -21.193      -18.912       -2.380       30.900       32.898       13.067      954.831     1082.247      170.736        0.151        0.110       28.405       12.040        0.180      339.292       12.525      865.363
01/28/2014  23:48:00      -71.515       48.128      -19.209       17.072       24.479       12.594      291.466      599.232      158.599        0.442        0.052       86.201        9.392        0.012      339.054       12.124      865.370
01/28/2014  23:49:00       21.687       70.566        2.154       47.559       18.710       15.841     2261.893      350.079      250.935        0.416        0.143       73.823       17.578        0.057      339.263       12.478      865.362
01/28/2014  23:50:00       92.532       50.706        3.456       26.208       24.904       16.800      686.852      620.234      282.234        0.637        0.079      105.514       13.906        0.017      339.239       12.434      865.322
01/28/2014  23:51:00       70.963       28.766       12.043       27.556       31.279       22.893      759.315      978.346      524.090        0.413        0.113       76.572       15.791        0.043      339.152       12.290      865.298
01/28/2014  23:52:00       61.590        8.928       31.397       43.560       22.689       24.258     1897.503      514.799      588.442        0.393        0.150       62.234       26.009        0.175      339.320       12.573      865.278
01/28/2014  23:53:00        2.379      -18.352       16.541       27.406       32.404       24.627      751.103     1049.992      606.481        0.151        0.120       18.506       26.519        2.054      339.321       12.575      865.288
01/28/2014  23:54:00        2.435        9.292        3.005       21.577       16.523       12.177      465.552      273.005      148.289        0.049        0.044        9.606       10.905        1.289      339.168       12.315      865.282
01/28/2014  23:55:00       10.134       38.176        3.081       13.090       25.414       16.656      171.357      645.874      277.414        0.133        0.055       39.498       18.027        0.208      339.261       12.472      865.256
01/28/2014  23:56:00       12.665       40.050       -3.031       18.442       28.723       14.346      340.112      825.029      205.795        0.157        0.069       42.005       13.101        0.097      339.116       12.229      865.241
01/28/2014  23:57:00       45.398       27.785        3.478       16.552       17.386       15.349      273.958      302.274      235.579        0.183        0.041       53.226        7.890        0.022      339.138       12.264      865.223
01/28/2014  23:58:00      -55.895       34.379      -11.335       40.684       11.072       12.323     1655.189      122.593      151.852        0.318        0.096       65.622        9.774        0.022      339.094       12.192      865.225
01/28/2014  23:59:00       -0.536       65.057       -4.672       28.619       41.668       19.632      819.050     1736.227      385.411        0.360        0.147       65.059       24.007        0.136      339.329       12.587      865.205
